[[{"header":{"parameterUnit":"m.s-1","parameterCategory":1,"la1":30.6,"la2":28.766,"lo1":-90.7593,"lo2":-88.6598,"dy":0.0162,"dx":0.0183,"nx":116,"ny":114,"refTime":"2024-03-24T12:00:00:Z","depth":0,"parameterNumber":2,"parameterNumberName":"U-component_of_WINDS"},"data":[0.0,0.0,0.0,0.0,0.0,0.0,0.0,0.0,0.0,0.0,0.0,0.0,0.0,0.0,0.0,0.0,0.0,0.0,0.0,0.0,0.0,0.0,0.0,0.0,0.0,0.0,0.0,0.0,0.0,0.0,0.0,0.0,0.0,0.0,0.0,0.0,0.0,0.0,0.0,0.0,0.0,0.0,0.0,0.0,0.0,0.0,0.0,0.0,0.0,0.0,0.0,0.0,0.0,0.0,0.0,0.0,0.0,0.0,0.0,0.0,0.0,0.0,0.0,0.0,0.0,0.0,0.0,0.0,0.0,0.0,0.0,0.0,0.0,0.0,0.0,0.0,0.0,0.0,0.0,0.0,0.0,0.0,0.0,0.0,0.0,0.0,0.0,0.0,0.0,0.0,0.0,0.0,0.0,0.0,0.0,0.0,0.0,0.0,0.0,0.0,0.0,0.0,0.0,0.0,0.0,0.0,0.0,0.0,0.0,0.0,0.0,0.0,0.0,0.0,0.0,0.0,0.0,0.0,0.0,0.0,0.0,0.0,0.0,0.0,0.0,0.0,0.0,0.0,0.0,0.0,0.0,0.0,0.0,0.0,0.0,0.0,0.0,0.0,0.0,0.0,0.0,0.0,0.0,0.0,0.0,0.0,0.0,0.0,0.0,0.0,0.0,0.0,0.0,0.0,0.0,0.0,0.0,0.0,0.0,0.0,0.0,0.0,0.0,0.0,0.0,0.0,0.0,0.0,0.0,0.0,0.0,0.0,0.0,0.0,0.0,0.0,0.0,0.0,0.0,0.0,0.0,0.0,0.0,0.0,0.0,0.0,0.0,0.0,0.0,0.0,0.0,0.0,0.0,0.0,0.0,0.0,0.0,0.0,0.0,0.0,0.0,0.0,0.0,0.0,0.0,0.0,0.0,0.0,0.0,0.0,0.0,0.0,0.0,0.0,0.0,0.0,0.0,0.0,0.0,0.0,0.0,0.0,0.0,0.0,0.0,0.0,0.0,0.0,0.0,0.0,0.0,0.0,0.0,0.0,0.0,0.0,0.0,0.0,0.0,0.0,0.0,0.0,0.0,0.0,0.0,0.0,0.0,0.0,0.0,0.0,0.0,0.0,0.0,0.0,0.0,0.0,0.0,0.0,0.0,0.0,0.0,0.0,0.0,0.0,0.0,0.0,0.0,0.0,0.0,0.0,0.0,0.0,0.0,0.0,0.0,0.0,0.0,0.0,0.0,0.0,0.0,0.0,0.0,0.0,0.0,0.0,0.0,0.0,0.0,0.0,0.0,0.0,0.0,0.0,0.0,0.0,0.0,0.0,0.0,0.0,0.0,0.0,0.0,0.0,0.0,0.0,0.0,0.0,0.0,0.0,0.0,0.0,0.0,0.0,0.0,0.0,0.0,0.0,0.0,0.0,0.0,0.0,0.0,0.0,0.0,0.0,0.0,0.0,0.0,0.0,0.0,0.0,0.0,0.0,0.0,0.0,0.0,0.0,0.0,0.0,0.0,0.0,0.0,0.0,0.0,0.0,0.0,0.0,0.0,0.0,0.0,0.0,0.0,0.0,0.0,0.0,0.0,0.0,0.0,0.0,0.0,0.0,0.0,0.0,0.0,0.0,0.0,0.0,0.0,0.0,0.0,0.0,0.0,0.0,0.0,0.0,0.0,0.0,0.0,0.0,0.0,0.0,0.0,0.0,0.0,0.0,0.0,0.0,0.0,0.0,0.0,0.0,0.0,0.0,0.0,0.0,0.0,0.0,0.0,0.0,0.0,0.0,0.0,0.0,0.0,0.0,0.0,0.0,0.0,0.0,0.0,0.0,0.0,0.0,0.0,0.0,0.0,0.0,0.0,0.0,0.0,0.0,0.0,0.0,0.0,0.0,0.0,0.0,0.0,0.0,0.0,0.0,0.0,0.0,0.0,0.0,0.0,0.0,0.0,0.0,0.0,0.0,0.0,0.0,0.0,0.0,0.0,0.0,0.0,0.0,0.0,0.0,0.0,0.0,0.0,0.0,0.0,0.0,0.0,0.0,0.0,0.0,0.0,0.0,0.0,0.0,0.0,0.0,0.0,0.0,0.0,0.0,0.0,0.0,0.0,0.0,0.0,0.0,0.0,0.0,0.0,0.0,0.0,0.0,0.0,0.0,0.0,0.0,0.0,0.0,0.0,0.0,0.0,0.0,0.0,0.0,0.0,0.0,0.0,0.0,0.0,0.0,0.0,0.0,0.0,0.0,0.0,0.0,0.0,0.0,0.0,0.0,0.0,0.0,0.0,0.0,0.0,0.0,0.0,0.0,0.0,0.0,0.0,0.0,0.0,0.0,0.0,0.0,0.0,0.0,0.0,0.0,0.0,0.0,0.0,0.0,0.0,0.0,0.0,0.0,0.0,0.0,0.0,0.0,0.0,0.0,0.0,0.0,0.0,0.0,0.0,0.0,0.0,0.0,0.0,0.0,0.0,0.0,0.0,0.0,0.0,0.0,0.0,0.0,0.0,0.0,0.0,0.0,0.0,0.0,0.0,0.0,0.0,0.0,0.0,0.0,0.0,0.0,0.0,0.0,0.0,0.0,0.0,0.0,0.0,0.0,0.0,0.0,0.0,0.0,0.0,0.0,0.0,0.0,0.0,0.0,0.0,0.0,0.0,0.0,0.0,0.0,0.0,0.0,0.0,0.0,0.0,0.0,0.0,0.0,0.0,0.0,0.0,0.0,0.0,0.0,0.0,0.0,0.0,0.0,0.0,0.0,0.0,0.0,0.0,0.0,0.0,0.0,0.0,0.0,0.0,0.0,0.0,0.0,0.0,0.0,0.0,0.0,0.0,0.0,0.0,0.0,0.0,0.0,0.0,0.0,0.0,0.0,0.0,0.0,0.0,0.0,0.0,0.0,0.0,0.0,0.0,0.0,0.0,0.0,0.0,0.0,0.0,0.0,0.0,0.0,0.0,0.0,0.0,0.0,0.0,0.0,0.0,0.0,0.0,0.0,0.0,0.0,0.0,0.0,0.0,0.0,0.0,0.0,0.0,0.0,0.0,0.0,0.0,0.0,0.0,0.0,0.0,0.0,0.0,0.0,0.0,0.0,0.0,0.0,0.0,0.0,0.0,0.0,0.0,0.0,0.0,0.0,0.0,0.0,0.0,0.0,0.0,0.0,0.0,0.0,0.0,0.0,0.0,0.0,0.0,0.0,0.0,0.0,0.0,0.0,0.0,0.0,0.0,0.0,0.0,0.0,0.0,0.0,0.0,0.0,0.0,0.0,0.0,0.0,0.0,0.0,0.0,0.0,0.0,0.0,0.0,0.0,0.0,0.0,0.0,0.0,0.0,0.0,0.0,0.0,0.0,0.0,0.0,0.0,0.0,0.0,0.0,0.0,0.0,0.0,0.0,0.0,0.0,0.0,0.0,0.0,0.0,0.0,0.0,0.0,0.0,0.0,0.0,0.0,0.0,0.0,0.0,0.0,0.0,0.0,0.0,0.0,0.0,0.0,0.0,0.0,0.0,0.0,0.0,0.0,0.0,0.0,0.0,0.0,0.0,0.0,0.0,0.0,0.0,0.0,0.0,0.0,0.0,0.0,0.0,0.0,0.0,0.0,0.0,0.0,0.0,0.0,0.0,0.0,0.0,0.0,0.0,0.0,0.0,0.0,0.0,0.0,0.0,0.0,0.0,0.0,0.0,0.0,0.0,0.0,0.0,0.0,0.0,0.0,0.0,0.0,0.0,0.0,0.0,0.0,0.0,0.0,0.0,0.0,0.0,0.0,0.0,0.0,0.0,0.0,0.0,0.0,0.0,0.0,0.0,0.0,0.0,0.0,0.0,0.0,0.0,0.0,0.0,0.0,0.0,0.0,0.0,0.0,0.0,0.0,0.0,0.0,0.0,0.0,0.0,0.0,0.0,0.0,0.0,0.0,0.0,0.0,0.0,0.0,0.0,0.0,0.0,0.0,0.0,0.0,0.0,0.0,0.0,0.0,0.0,0.0,0.0,0.0,0.0,0.0,0.0,0.0,0.0,0.0,0.0,0.0,0.0,0.0,0.0,0.0,0.0,0.0,0.0,0.0,0.0,0.0,0.0,0.0,0.0,0.0,0.0,0.0,0.0,0.0,0.0,0.0,0.0,0.0,0.0,0.0,0.0,0.0,0.0,0.0,0.0,0.0,0.0,0.0,0.0,0.0,0.0,0.0,0.0,0.0,0.0,0.0,0.0,0.0,0.0,0.0,0.0,0.0,0.0,0.0,0.0,0.0,0.0,0.0,0.0,0.0,0.0,0.0,0.0,0.0,0.0,0.0,0.0,0.0,0.0,0.0,0.0,0.0,0.0,0.0,0.0,0.0,0.0,0.0,0.0,0.0,0.0,0.0,0.0,0.0,0.0,0.0,0.0,0.0,0.0,0.0,0.0,0.0,0.0,0.0,0.0,0.0,0.0,0.0,0.0,0.0,0.0,0.0,0.0,0.0,0.0,0.0,0.0,0.0,0.0,0.0,0.0,0.0,0.0,0.0,0.0,0.0,0.0,0.0,0.0,0.0,0.0,0.0,0.0,0.0,0.0,0.0,0.0,0.0,0.0,0.0,0.0,0.0,0.0,0.0,0.0,0.0,0.0,0.0,0.0,0.0,0.0,0.0,0.0,0.0,0.0,0.0,0.0,0.0,0.0,0.0,0.0,0.0,0.0,0.0,0.0,0.0,0.0,0.0,0.0,0.0,0.0,0.0,0.0,0.0,0.0,0.0,0.0,0.0,0.0,0.0,0.0,0.0,0.0,0.0,0.0,0.0,0.0,0.0,0.0,0.0,0.0,0.0,0.0,0.0,0.0,0.0,0.0,0.0,0.0,0.0,0.0,0.0,0.0,0.0,0.0,0.0,0.0,0.0,0.0,0.0,0.0,0.0,0.0,0.0,0.0,0.0,0.0,0.0,0.0,0.0,0.0,0.0,0.0,0.0,0.0,0.0,0.0,0.0,0.0,0.0,0.0,0.0,0.0,0.0,0.0,0.0,0.0,0.0,0.0,0.0,0.0,0.0,0.0,0.0,0.0,0.0,0.0,0.0,0.0,0.0,0.0,0.0,0.0,0.0,0.0,0.0,0.0,0.0,0.0,0.0,0.0,0.0,0.0,0.0,0.0,0.0,0.0,0.0,0.0,0.0,0.0,0.0,0.0,0.0,0.0,0.0,0.0,0.0,0.0,0.0,0.0,0.0,0.0,0.0,0.0,0.0,0.0,0.0,0.0,0.0,0.0,0.0,0.0,0.0,0.0,0.0,0.0,0.0,0.0,0.0,0.0,0.0,0.0,0.0,0.0,0.0,0.0,0.0,0.0,0.0,0.0,0.0,0.0,0.0,0.0,0.0,0.0,0.0,0.0,0.0,0.0,0.0,0.0,0.0,0.0,0.0,0.0,0.0,0.0,0.0,0.0,0.0,0.0,0.0,0.0,0.0,0.0,0.0,0.0,0.0,0.0,0.0,0.0,0.0,0.0,0.0,0.0,0.0,0.0,0.0,0.0,0.0,0.0,0.0,0.0,0.0,0.0,0.0,0.0,0.0,0.0,0.0,0.0,0.0,0.0,0.0,0.0,0.0,0.0,0.0,0.0,0.0,0.0,0.0,0.0,0.0,0.0,0.0,0.0,0.0,0.0,0.0,0.0,0.0,0.0,0.0,0.0,0.0,0.0,0.0,0.0,0.0,0.0,0.0,0.0,0.0,0.0,0.0,0.0,0.0,0.0,0.0,0.0,0.0,0.0,0.0,0.0,0.0,0.0,0.0,0.0,0.0,0.0,0.0,0.0,0.0,0.0,0.0,0.0,0.0,0.0,0.0,0.0,0.0,0.0,0.0,0.0,0.0,0.0,0.0,0.0,0.0,0.0,0.0,0.0,0.0,0.0,0.0,0.0,0.0,0.0,0.0,0.0,0.0,0.0,0.0,0.0,0.0,0.0,0.0,0.0,0.0,0.0,0.0,0.0,0.0,0.0,0.0,0.0,0.0,0.0,0.0,0.0,0.0,0.0,0.0,0.0,0.0,0.0,0.0,0.0,0.0,0.0,0.0,0.0,0.0,0.0,0.0,0.0,0.0,0.0,0.0,0.0,0.0,-2.2497,0.0,0.0,0.0,0.0,0.0,0.0,0.0,0.0,0.0,0.0,0.0,0.0,0.0,0.0,0.0,0.0,0.0,0.0,0.0,0.0,0.0,0.0,0.0,0.0,0.0,-2.0472,-2.0559,-2.0546,-2.0577,-2.0605,-2.0604,0.0,0.0,0.0,0.0,-2.0604,-2.0602,-2.0993,-2.1796,-2.2241,-2.287,-2.3626,-2.3196,-2.2514,-2.1656,0.0,0.0,0.0,0.0,0.0,0.0,0.0,0.0,0.0,0.0,0.0,0.0,0.0,0.0,0.0,0.0,0.0,0.0,0.0,0.0,0.0,0.0,0.0,0.0,0.0,0.0,0.0,0.0,0.0,0.0,0.0,0.0,0.0,0.0,0.0,0.0,0.0,0.0,0.0,0.0,0.0,0.0,0.0,0.0,0.0,0.0,0.0,0.0,0.0,0.0,0.0,0.0,0.0,0.0,0.0,0.0,0.0,0.0,0.0,0.0,0.0,0.0,0.0,0.0,0.0,0.0,0.0,0.0,0.0,0.0,0.0,-2.3396,0.0,0.0,0.0,0.0,0.0,0.0,0.0,0.0,0.0,0.0,0.0,0.0,0.0,0.0,0.0,0.0,0.0,0.0,0.0,0.0,0.0,-2.0303,-2.056,-2.0618,-2.0711,-2.0929,-2.0805,-2.0767,-2.082,-2.0682,-2.0604,-2.0605,-2.0603,-2.0603,-2.0604,-2.0759,-2.1561,-2.3105,-2.3691,-2.4842,-2.649,-2.6497,-2.5682,-2.4223,-2.3684,0.0,0.0,0.0,0.0,0.0,0.0,0.0,0.0,0.0,0.0,0.0,0.0,0.0,0.0,0.0,0.0,0.0,0.0,0.0,0.0,0.0,0.0,0.0,0.0,0.0,0.0,0.0,0.0,0.0,0.0,0.0,0.0,0.0,0.0,0.0,0.0,0.0,0.0,0.0,0.0,0.0,0.0,0.0,0.0,0.0,0.0,0.0,0.0,0.0,0.0,0.0,0.0,0.0,0.0,0.0,0.0,0.0,0.0,0.0,0.0,0.0,0.0,0.0,-2.8626,-2.8793,-2.8793,-2.8946,-2.9459,-3.0067,-2.784,-2.6608,-2.6065,0.0,0.0,0.0,0.0,0.0,0.0,0.0,0.0,0.0,0.0,0.0,0.0,0.0,0.0,0.0,0.0,0.0,0.0,0.0,0.0,-2.0557,-2.127,-2.1465,-2.1838,-2.2604,-2.2029,-2.1659,-2.1718,-2.1016,-2.0605,-2.0605,-2.0605,-2.0604,-2.0604,-2.1345,-2.2187,-2.3093,-2.6029,-2.8335,-3.0039,-3.0024,-2.9862,-2.9464,-2.6551,-2.5193,-2.5016,0.0,0.0,0.0,0.0,0.0,0.0,0.0,0.0,0.0,0.0,0.0,0.0,0.0,0.0,0.0,0.0,0.0,0.0,0.0,0.0,0.0,0.0,0.0,0.0,0.0,0.0,0.0,0.0,0.0,0.0,0.0,0.0,0.0,0.0,0.0,0.0,0.0,0.0,0.0,0.0,0.0,-2.4622,-2.3862,0.0,0.0,0.0,0.0,0.0,0.0,0.0,0.0,0.0,0.0,0.0,0.0,0.0,0.0,-2.766,-2.9441,-2.9973,-2.9231,-3.0829,-3.1563,-3.1601,-3.2356,-3.2766,-3.2865,-3.2508,0.0,-2.8806,-2.7764,0.0,0.0,0.0,0.0,0.0,0.0,0.0,0.0,0.0,0.0,0.0,0.0,0.0,0.0,0.0,0.0,0.0,0.0,0.0,0.0,0.0,-2.2391,-2.3157,-2.354,-2.3765,-2.3697,-2.3283,-2.248,-2.1796,-2.1348,-2.0859,-2.0839,-2.1327,-2.2597,-2.4596,-2.7376,-2.9794,-3.1352,-3.211,-3.2074,-3.2025,-3.1942,-3.0466,-2.9011,-2.7592,-2.6236,0.0,0.0,0.0,0.0,0.0,0.0,0.0,0.0,0.0,0.0,0.0,0.0,0.0,0.0,0.0,0.0,0.0,0.0,0.0,0.0,0.0,0.0,0.0,0.0,0.0,0.0,0.0,0.0,0.0,0.0,0.0,0.0,0.0,0.0,0.0,0.0,0.0,0.0,0.0,-2.3833,-2.4592,-2.3721,-2.4171,-2.4038,0.0,0.0,0.0,0.0,0.0,0.0,0.0,0.0,0.0,-2.8303,-3.0484,-3.1441,-3.1038,-3.2792,-3.348,-3.3122,-3.3915,-3.429,-3.4309,-3.4697,-3.4851,-3.4851,-3.4851,-3.4164,-3.2875,-3.0541,-2.8745,-2.7417,0.0,0.0,0.0,0.0,0.0,-2.6864,0.0,0.0,0.0,0.0,0.0,0.0,0.0,0.0,0.0,0.0,0.0,0.0,-2.2422,-2.3789,-2.476,-2.4999,-2.5499,-2.5551,-2.4972,-2.3779,-2.2812,-2.2206,-2.1367,-2.1211,-2.1855,-2.4119,-2.7277,-3.1343,-3.2807,-3.363,-3.3836,-3.379,-3.3764,-3.3764,-3.3764,-3.2459,-3.0171,-2.8644,-2.7535,-2.6571,0.0,0.0,0.0,0.0,0.0,0.0,0.0,0.0,0.0,0.0,0.0,0.0,0.0,0.0,0.0,0.0,0.0,0.0,0.0,0.0,0.0,0.0,0.0,0.0,0.0,0.0,0.0,0.0,0.0,0.0,0.0,0.0,0.0,0.0,0.0,0.0,0.0,-2.4802,-2.572,-2.4869,-2.5903,-2.6101,0.0,0.0,0.0,0.0,0.0,0.0,-2.8229,-2.9723,-3.0758,-3.1157,-3.3274,-3.4506,-3.4736,-3.6024,-3.6665,-3.6678,-3.6677,-3.6677,-3.6677,-3.6677,-3.6677,-3.6677,-3.6677,-3.6643,-3.6341,-3.31,-3.1167,-3.0135,-2.9319,-2.8772,-2.8541,-2.9164,-2.9548,-2.9765,0.0,0.0,0.0,0.0,0.0,0.0,0.0,0.0,0.0,0.0,0.0,-2.3275,-2.4937,-2.5913,-2.6839,-2.772,-2.7083,-2.6648,-2.6663,-2.4366,-2.2994,-2.2955,-2.2165,-2.1765,-2.1792,-2.5816,-2.9615,-3.3071,-3.3916,-3.4767,-3.556,-3.5574,-3.5568,-3.5568,-3.5568,-3.4582,-3.2856,-3.1927,-3.1081,-3.0119,-2.7499,0.0,0.0,0.0,0.0,0.0,0.0,0.0,0.0,0.0,0.0,0.0,0.0,0.0,0.0,0.0,0.0,0.0,0.0,0.0,0.0,0.0,0.0,0.0,0.0,0.0,0.0,0.0,0.0,0.0,0.0,0.0,0.0,0.0,0.0,0.0,0.0,0.0,0.0,-2.9363,-2.9341,0.0,0.0,0.0,0.0,-2.9275,-3.0192,-3.1032,-3.1795,-3.2713,-3.3962,-3.5619,-3.6597,-3.7495,-3.8335,-3.8427,-3.8463,-3.8463,-3.8477,-3.8474,-3.8474,-3.8474,-3.8474,-3.8474,-3.8474,-3.8473,-3.8255,-3.5529,-3.3851,-3.2916,-3.205,-3.1129,-3.0274,-3.038,-3.0909,-3.1582,0.0,0.0,0.0,0.0,0.0,0.0,-2.0145,-2.0613,-2.1091,-2.1425,-2.3165,-2.4615,-2.5239,-2.705,-2.8335,-2.8613,-2.8946,-2.8928,-2.838,-2.6515,-2.5455,-2.5449,-2.4136,-2.4674,-2.7407,-3.0034,-3.2516,-3.4817,-3.5101,-3.54,-3.5704,-3.5704,-3.5704,-3.5704,-3.5704,-3.5356,-3.4679,-3.3242,-3.2469,-3.1985,-2.9418,-2.7329,0.0,0.0,0.0,0.0,0.0,0.0,0.0,0.0,0.0,0.0,0.0,0.0,0.0,0.0,0.0,0.0,0.0,0.0,0.0,0.0,0.0,0.0,0.0,0.0,0.0,0.0,0.0,0.0,0.0,0.0,0.0,0.0,0.0,0.0,0.0,0.0,0.0,-3.0397,-3.0882,0.0,0.0,-3.0444,-3.111,-3.1971,-3.3378,-3.455,-3.539,-3.6269,-3.7031,-3.7656,-3.7968,-3.828,-3.8591,-3.859,-3.8607,-3.86,-3.8599,-3.8595,-3.8591,-3.8591,-3.8591,-3.8591,-3.8591,-3.8591,-3.8533,-3.7565,-3.6596,-3.5623,-3.4808,-3.4194,-3.3809,-3.379,-3.3953,-3.4124,0.0,0.0,0.0,0.0,0.0,0.0,-2.0145,-2.0862,-2.1732,-2.2661,-2.449,-2.6027,-2.6886,-2.8487,-2.9499,-2.9435,-3.007,-3.0211,-2.9651,-2.8101,-2.7195,-2.719,-2.6154,-2.7411,-3.1353,-3.2574,-3.4123,-3.6091,-3.6091,-3.6265,-3.6535,-3.6535,-3.6535,-3.6535,-3.6535,-3.6381,-3.6033,-3.4867,-3.4229,-3.3784,-3.1507,-2.9553,-2.7886,0.0,0.0,0.0,0.0,0.0,0.0,0.0,0.0,0.0,0.0,0.0,0.0,0.0,0.0,0.0,0.0,0.0,0.0,0.0,0.0,0.0,0.0,0.0,0.0,0.0,0.0,0.0,0.0,0.0,0.0,0.0,0.0,0.0,0.0,0.0,-3.105,-3.1666,-3.2735,-3.3206,-3.2669,-3.3374,-3.4216,-3.5096,-3.6211,-3.7129,-3.7715,-3.8574,-3.918,-3.9473,-3.9746,-4.0019,-4.0312,-4.0311,-4.0328,-4.0321,-4.0319,-4.0316,-4.0328,-4.0328,-4.0328,-4.0309,-4.0016,-3.9879,-3.984,-3.9255,-3.8615,-3.7925,-3.7128,-3.6724,-3.6577,-3.6224,-3.6096,-3.5931,0.0,0.0,0.0,0.0,0.0,-2.0024,-2.0079,-2.0867,-2.2369,-2.4937,-2.6002,-2.7489,-2.9997,-3.0273,-3.0305,-3.0304,-3.0392,-3.0441,-3.0398,-2.8945,-2.8086,-2.8082,-2.8223,-2.9827,-3.3068,-3.3184,-3.4422,-3.6903,-3.6922,-3.7361,-3.8193,-3.8193,-3.8193,-3.8193,-3.8193,-3.7729,-3.6942,-3.6942,-3.6477,-3.5588,-3.3861,-3.2179,-3.0482,0.0,0.0,0.0,0.0,0.0,0.0,0.0,0.0,0.0,0.0,0.0,0.0,0.0,0.0,0.0,0.0,0.0,0.0,0.0,0.0,0.0,0.0,0.0,0.0,0.0,0.0,0.0,0.0,0.0,0.0,0.0,0.0,0.0,-3.0878,-3.2377,-3.3491,-3.3522,-3.504,-3.6077,-3.6087,-3.6847,-3.7707,-3.8612,-3.8671,-3.8691,-3.8769,-3.9551,-4.041,-4.125,-4.2031,-4.2851,-4.3691,-4.3691,-4.3708,-4.3703,-4.3699,-4.3693,-4.3705,-4.3705,-4.3705,-4.3647,-4.2806,-4.2435,-4.2318,-4.062,-3.9917,-3.9839,-3.8942,-3.8512,-3.8294,-3.745,-3.7095,-3.6906,0.0,0.0,0.0,0.0,0.0,-2.0017,-2.0098,-2.1374,-2.2839,-2.4245,-2.6226,-2.8003,-2.9286,-2.9952,-3.0323,-3.0373,-3.0968,-3.1093,-3.0507,-3.0061,-2.9815,-2.9815,-3.1645,-3.3098,-3.4026,-3.528,-3.6242,-3.6903,-3.7535,-3.7961,-3.8193,-3.8193,-3.8193,-3.8193,-3.8193,-3.8077,-3.7845,-3.7845,-3.7348,-3.6477,-3.5414,-3.3944,-3.2353,0.0,0.0,0.0,0.0,0.0,0.0,0.0,0.0,0.0,0.0,0.0,0.0,0.0,0.0,0.0,0.0,0.0,0.0,0.0,0.0,0.0,0.0,0.0,0.0,0.0,0.0,0.0,0.0,0.0,0.0,0.0,0.0,-3.3417,-3.2772,-3.4195,-3.5524,-3.6152,-3.7205,-3.789,-3.7894,-3.8095,-3.8841,-4.0308,-4.0468,-4.1016,-4.2226,-4.2539,-4.2773,-4.3008,-4.3223,-4.3457,-4.3691,-4.3691,-4.3691,-4.3708,-4.3707,-4.3705,-4.3701,-4.3696,-4.3695,-4.3693,-4.3453,-4.3333,-4.3313,-4.2825,-4.263,-4.2357,-3.9645,-3.8587,-3.8497,-3.8168,-3.7997,-3.7873,0.0,0.0,0.0,0.0,0.0,-2.0026,-2.0098,-2.1565,-2.3265,-2.4928,-2.6755,-2.847,-2.9985,-3.0247,-3.0305,-3.0324,-3.0828,-3.0799,-3.002,-3.0321,-3.1018,-3.2046,-3.3562,-3.4738,-3.5433,-3.6436,-3.7307,-3.7986,-3.8508,-3.8934,-3.9282,-3.9282,-3.9282,-3.9282,-3.9282,-3.9088,-3.874,-3.874,-3.8237,-3.7367,-3.6535,-3.5182,-3.3629,-3.3619,-3.2251,-3.0346,-3.0351,-2.9815,-2.9012,-2.8504,0.0,0.0,0.0,0.0,0.0,0.0,0.0,0.0,0.0,0.0,0.0,0.0,0.0,0.0,0.0,0.0,0.0,0.0,0.0,0.0,0.0,0.0,0.0,0.0,-3.3788,-3.533,-3.5545,-3.6443,-3.7282,-3.777,-3.8903,-3.9647,-3.9649,-4.0319,-4.1144,-4.2125,-4.2225,-4.2675,-4.3652,-4.4043,-4.4238,-4.4238,-4.4609,-4.4785,-4.4785,-4.4785,-4.4785,-4.4783,-4.4783,-4.4782,-4.4799,-4.4796,-4.4794,0.0,-4.4399,-4.4241,-4.4222,-4.3848,-4.369,0.0,0.0,0.0,0.0,0.0,-3.87,-3.8315,0.0,0.0,0.0,0.0,0.0,-2.0015,-2.0073,-2.1516,-2.3522,-2.6107,-2.7292,-2.8804,-3.1187,-3.0752,-3.0279,-3.0227,-3.0407,-3.0281,-2.9655,-3.0505,-3.2009,-3.4185,-3.445,-3.5278,-3.6864,-3.7,-3.7851,-3.9501,-3.9597,-4.0042,-4.0797,-4.079,-4.079,-4.0797,-4.0784,-4.0339,-3.963,-3.9624,-3.914,-3.8258,-3.7491,-3.6182,-3.4659,-3.4516,-3.3536,-3.2237,-3.225,-3.1772,-3.1159,-3.1067,0.0,0.0,0.0,0.0,0.0,0.0,0.0,0.0,0.0,0.0,0.0,0.0,0.0,0.0,0.0,0.0,0.0,0.0,0.0,0.0,0.0,0.0,0.0,0.0,-3.5231,-3.7009,-3.865,-3.8962,-3.8982,-3.8884,-4.0367,-4.1384,-4.139,-4.2796,-4.3738,-4.3844,-4.3845,-4.3885,-4.3984,0.0,0.0,0.0,0.0,-4.6308,-4.6308,-4.6308,-4.6308,-4.6307,-4.6307,-4.6306,-4.6303,-4.6302,-4.6302,-4.6263,-4.5481,-4.5149,-4.509,-4.4305,-4.393,-4.3753,-4.2887,-4.2552,-4.2355,-4.079,-3.964,0.0,0.0,0.0,0.0,0.0,0.0,-1.9996,-2.002,-2.1483,-2.3299,-2.5217,-2.6841,-2.8521,-3.035,-3.0407,-3.0299,-3.0286,-3.0938,-3.1603,-3.2147,-3.306,-3.3778,-3.4198,-3.4965,-3.5855,-3.6884,-3.7593,-3.847,-3.9501,-4.0197,-4.0623,-4.0797,-4.0746,-4.0746,-4.079,-4.07,-4.0571,-4.0456,-4.041,-3.9914,-3.9154,-3.8975,-3.7904,-3.6342,-3.5679,-3.5234,-3.4949,-3.4944,-3.4847,-3.4607,-3.3897,-3.3117,-3.2311,-3.149,-3.0062,0.0,0.0,0.0,0.0,0.0,0.0,0.0,0.0,0.0,0.0,0.0,0.0,0.0,0.0,0.0,0.0,0.0,0.0,0.0,-3.5211,-3.7495,-3.9429,-4.0465,-4.1225,-4.14,-4.0699,-4.2144,-4.3198,-4.3199,-4.3497,-4.3989,-4.4694,-4.4758,-4.5055,-4.576,-4.5956,0.0,-4.6055,-4.6211,-4.6308,-4.6308,-4.6308,-4.6308,-4.6308,0.0,0.0,-4.6308,-4.6307,-4.6306,-4.6286,-4.6127,-4.6048,-4.6048,-4.5867,-4.5372,-4.4662,-4.3783,-4.345,-4.3408,-4.3019,-4.2342,-4.1595,0.0,0.0,0.0,0.0,0.0,-1.9875,-1.9984,-2.148,-2.3086,-2.4422,-2.6082,-2.7633,-2.8911,-2.9052,-2.9046,-2.9008,-2.9825,-3.0905,-3.2204,-3.3145,-3.4017,-3.4859,-3.5345,-3.6217,-3.7516,-3.798,-3.8837,-4.0158,-4.0584,-4.0784,-4.0746,-4.0726,-4.07,-4.07,-4.0628,-4.0621,-4.0654,-4.0621,-4.0376,-3.997,-3.9527,-3.8859,-3.802,-3.6764,-3.6041,-3.5704,-3.5648,-3.5665,-3.5634,-3.5199,-3.4788,-3.4308,-3.3502,-3.2346,-3.0971,0.0,0.0,0.0,0.0,0.0,0.0,0.0,0.0,0.0,0.0,0.0,0.0,0.0,0.0,-3.123,-3.2519,0.0,-3.5916,-3.7612,-3.9331,-4.0912,-4.2222,-4.3157,-4.3372,-4.2495,-4.3548,-4.4348,-4.4348,-4.4742,-4.5176,-4.5629,-4.6041,-4.6495,-4.6929,-4.7358,-4.7399,-4.6953,-4.6953,-4.6738,-4.6308,-4.6308,-4.6308,-4.6308,-4.6308,-4.6308,-4.6308,-4.6307,-4.6306,-4.6307,-4.6303,-4.6301,-4.6301,-4.6295,-4.6035,-4.5617,-4.5168,-4.4465,-4.3702,-4.3663,-4.3394,-4.3033,0.0,0.0,0.0,0.0,0.0,-1.9744,-1.9915,-2.1309,-2.2726,-2.3826,-2.528,-2.6625,-2.7695,-2.7792,-2.7769,-2.7726,-2.8861,-3.0188,-3.1588,-3.2811,-3.4121,-3.5515,-3.559,-3.6399,-3.816,-3.8212,-3.9044,-4.0803,-4.079,-4.0746,-4.07,-4.0687,-4.0647,-4.0595,-4.06,-4.0593,-4.06,-4.0593,-4.0586,-4.0521,-3.9825,-3.9487,-3.9232,-3.7893,-3.6783,-3.5916,-3.5687,-3.5549,-3.547,-3.5635,-3.5592,-3.5355,-3.4875,-3.4129,-3.3093,-3.1425,-3.0773,0.0,0.0,0.0,0.0,0.0,0.0,0.0,0.0,0.0,-3.082,-3.2515,-3.3424,-3.4177,-3.5037,-3.6618,-3.8277,-3.9819,-4.0932,-4.2144,-4.3723,-4.4563,-4.4797,-4.427,-4.4836,-4.5324,-4.5498,-4.6144,-4.6616,-4.6778,-4.7442,-4.7835,-4.7822,-4.8506,-4.8489,-4.7635,-4.7595,-4.7186,-4.6308,-4.6308,-4.6308,-4.6308,-4.6308,-4.6307,-4.6308,-4.6305,-4.6303,-4.6306,-4.6303,-4.6301,-4.63,-4.6295,-4.6308,-4.63,-4.63,-4.5441,-4.4213,-4.4213,-4.4094,-4.3936,0.0,0.0,0.0,0.0,0.0,0.0,-1.9726,-2.0669,-2.1948,-2.3602,-2.4667,-2.5898,-2.7602,-2.78,-2.7806,-2.7785,-2.9947,-3.1392,-3.1591,-3.3878,-3.5321,-3.5494,-3.5515,-3.6356,-3.8166,-3.8194,-3.9057,-4.0794,-4.0733,-4.07,-4.0694,-4.0631,-4.0617,-4.0607,-4.0542,-4.0546,-4.0595,-4.0539,-4.0508,-4.0515,-4.0462,-3.9991,-3.9292,-3.9168,-3.815,-3.6671,-3.5943,-3.5203,-3.4656,-3.5437,-3.5185,-3.4652,-3.535,-3.4977,-3.3931,-3.2255,0.0,-3.0249,-2.8563,-2.8809,-2.9724,-3.047,-3.0617,-3.1191,0.0,0.0,-3.3473,-3.5211,-3.5632,-3.5973,-3.6852,-3.8394,-3.9839,-4.0797,-4.2339,-4.3743,-4.4719,-4.4932,-4.5246,-4.5929,-4.6105,-4.6456,-4.7235,-4.7391,-4.7744,-4.8468,-4.8605,-4.8667,-4.8675,-4.8753,-4.8447,-4.7635,-4.7593,-4.7184,-4.6308,-4.6308,-4.6308,-4.6308,-4.6308,-4.6307,-4.6307,-4.6304,-4.6301,-4.6302,-4.6301,-4.6299,-4.6294,-4.6293,-4.6308,-4.63,-4.63,-4.6183,-4.6007,-4.6007,-4.5519,-4.4854,0.0,0.0,0.0,0.0,0.0,0.0,0.0,-2.038,-2.1273,-2.2116,-2.2943,-2.4004,-2.5371,-2.5973,-2.6296,-2.6343,-2.914,-3.0893,-3.0899,-3.3782,-3.5494,-3.5502,-3.5502,-3.61,-3.7358,-3.7379,-3.8234,-3.9979,-3.9953,-4.0177,-4.0631,-4.0603,-4.0588,-4.0542,-4.0512,-4.0523,-4.0539,-4.0504,-4.0511,-4.051,-4.0523,-4.035,-3.9952,-3.8959,-3.8189,-3.7483,-3.6165,-3.5155,0.0,-3.4831,-3.472,-3.4594,-3.5432,-3.5088,-3.4163,-3.3001,-3.2362,0.0,-3.1864,-3.1773,0.0,0.0,-3.3787,-3.422,-3.5837,-3.5937,-3.6151,-3.786,-3.8203,-3.8629,-4.0015,-4.0834,-4.1752,0.0,-4.3977,-4.4758,-4.5636,-4.5753,-4.6085,-4.6944,-4.6612,-4.6436,-4.6807,-4.7725,-4.8232,-4.8115,-4.9013,-4.9347,-4.8823,-4.9272,-4.8965,-4.7647,-4.7606,-4.718,-4.6308,-4.6307,-4.6308,-4.6308,-4.6308,-4.6307,-4.6307,-4.6301,-4.6295,-4.6291,-4.6291,-4.6309,-4.6306,-4.6291,-4.6291,-4.6308,-4.6308,-4.6308,-4.6308,-4.6302,-4.6066,-4.5753,0.0,0.0,0.0,0.0,0.0,0.0,0.0,0.0,-2.0574,-2.0966,-2.1563,-2.2444,-2.3755,-2.4635,-2.5168,-2.5282,-2.8186,-3.0118,-3.0379,-3.3385,-3.5251,-3.5489,-3.5489,-3.592,-3.6774,-3.68,-3.754,-3.9071,-3.9044,-3.9441,-4.0241,-4.0246,-4.0327,-4.0496,-4.0496,-4.0496,-4.0496,-4.0496,-4.0511,-4.0502,-4.0499,-4.0404,-4.0092,-3.8847,-3.8009,-3.7328,-3.5869,-3.4812,-3.4081,-3.3795,-3.3723,-3.3868,-3.4449,-3.4357,-3.3877,-3.3069,-3.2624,-3.2663,-3.3831,0.0,0.0,-3.5834,-3.6462,-3.6894,-3.7789,-3.7988,-3.8398,-3.9854,-4.0352,-4.0893,-4.2162,-4.2786,0.0,-4.4795,-4.5207,-4.5578,-4.6202,-4.6515,-4.6885,-4.7528,-4.7451,-4.7256,-4.7002,-4.8096,-4.8759,-4.866,-4.9558,-4.9811,-4.9189,-4.954,-4.9075,-4.7658,-4.7598,-4.7174,-4.6306,-4.6305,-4.6306,-4.6308,-4.6307,-4.6306,-4.6307,-4.6299,-4.6309,-4.6303,-4.6302,-4.63,-4.6302,-4.6309,-4.6293,-4.6293,-4.6293,-4.6293,-4.6332,-4.6577,-4.6515,-4.63,0.0,0.0,0.0,0.0,0.0,0.0,0.0,0.0,0.0,-2.07,-2.0946,-2.177,-2.3684,-2.4505,-2.5006,-2.5276,-2.7593,-2.9422,-3.034,-3.2814,-3.4622,-3.5462,-3.55,-3.5906,-3.6768,-3.68,-3.7263,-3.824,-3.817,-3.8553,-3.9329,-3.9338,-3.9746,-4.0496,-4.0496,-4.0496,-4.0496,-4.0496,-4.0511,-4.051,-4.0492,-4.0035,-3.9323,-3.9283,-3.7816,-3.5651,-3.4749,-3.3872,-3.3015,-3.2232,-3.1932,-3.1894,-3.1913,-3.2469,0.0,-3.2101,-3.1294,0.0,0.0,0.0,-3.4824,-3.6699,-3.7742,-3.8561,-3.9501,-3.9721,-3.998,-4.0879,-4.173,-4.2337,-4.2396,-4.378,-4.4932,-4.499,-4.5714,-4.6261,-4.63,-4.7022,-4.7567,-4.7606,-4.9011,-4.9655,0.0,-4.8779,-4.9481,-5.116,-5.0553,-5.0085,-5.0065,-4.9286,-4.845,-4.7638,-4.7592,-4.7186,-4.6301,-4.6296,-4.63,-4.6307,-4.6304,-4.6304,-4.6307,-4.6299,-4.6293,-4.6293,-4.6305,-4.63,-4.6302,-4.6309,-4.6293,-4.6293,-4.6293,-4.6293,-4.641,-4.7258,-4.7022,-4.63,0.0,0.0,0.0,0.0,0.0,0.0,0.0,0.0,0.0,0.0,0.0,0.0,0.0,0.0,0.0,0.0,-2.6886,-2.8441,-2.9462,-3.191,-3.3737,-3.4603,-3.5192,-3.5648,-3.5926,-3.5931,-3.6349,-3.7204,-3.7177,-3.7606,-3.8452,-3.8438,-3.8584,-3.8834,-3.8834,-3.8834,-3.8834,-3.8834,-3.8831,-3.8785,-3.8819,-3.8681,-3.838,-3.7832,-3.644,-3.459,0.0,-3.214,-3.1395,-3.1134,0.0,0.0,-3.2314,0.0,0.0,-3.1255,0.0,-3.259,0.0,0.0,-3.6704,-3.8523,-3.9167,-3.9556,-4.0455,-4.0662,-4.0742,-4.1033,-4.0867,-4.0854,-4.142,-4.2494,-4.3469,-4.4036,-4.5343,-4.63,-4.63,-4.7042,-4.7606,-4.7606,-4.8564,0.0,0.0,0.0,0.0,-4.9716,-4.9948,-4.9616,-4.8504,-4.8152,-4.7608,-4.6754,-4.6731,-4.6598,-4.6296,-4.6294,-4.6297,-4.6304,-4.6302,-4.6302,-4.6304,-4.6301,-4.6297,-4.6293,-4.629,-4.6306,-4.6302,-4.6309,-4.6295,-4.6299,-4.6299,-4.6301,-4.6342,-4.6626,-4.6546,-4.6451,0.0,0.0,0.0,0.0,0.0,0.0,0.0,0.0,0.0,0.0,0.0,0.0,0.0,0.0,0.0,0.0,0.0,-2.7366,-2.8471,-3.0343,-3.1988,-3.3256,-3.3538,-3.3827,-3.4135,-3.3846,-3.4077,-3.4904,-3.5199,-3.5949,-3.7103,-3.7411,-3.77,-3.8007,-3.8007,-3.8007,-3.8007,-3.8007,-3.7973,-3.7905,-3.7647,-3.718,-3.6553,-3.5726,-3.4192,0.0,-3.0891,-2.9883,-2.9218,-2.9238,0.0,0.0,0.0,0.0,0.0,0.0,-3.2322,-3.3612,-3.5473,-3.6809,-3.8096,-3.989,-4.0297,-4.0411,-4.0967,-4.109,-4.1191,-4.1502,-4.0871,-4.0529,-4.1402,-4.1771,-4.222,-4.3099,-4.4172,-4.5129,-4.5753,-4.6846,-4.7606,-4.7606,-4.8857,0.0,0.0,0.0,0.0,-4.9345,-4.9226,-4.8738,-4.7664,-4.7295,-4.6885,-4.6319,-4.63,-4.6303,-4.6308,-4.6308,-4.6293,-4.6299,-4.6301,-4.6301,-4.6301,-4.6301,-4.63,-4.6296,-4.6296,-4.6294,-4.629,-4.6295,-4.6299,-4.6301,-4.6301,-4.6303,-4.6344,-4.665,-4.6767,-4.6924,0.0,0.0,0.0,0.0,0.0,0.0,0.0,0.0,0.0,0.0,0.0,0.0,0.0,0.0,0.0,0.0,0.0,0.0,-2.7347,-2.8232,-2.9568,-3.1469,-3.0802,-3.0782,-3.1621,-3.0827,-3.0808,-3.1641,-3.2385,-3.3635,-3.5327,-3.607,-3.6904,-3.7738,-3.7738,-3.7738,-3.7738,-3.7738,-3.7719,-3.7603,-3.6776,-3.5468,-3.3917,-3.3083,-3.1255,-2.903,-2.8203,-2.7344,0.0,0.0,0.0,0.0,0.0,0.0,0.0,0.0,0.0,-3.4205,-3.7576,-3.8567,-3.9021,-4.0695,-4.1103,-4.1098,-4.1098,-4.1103,-4.1304,-4.2051,-4.1541,-4.1202,0.0,0.0,-4.1363,-4.2201,-4.2474,-4.3177,-4.4834,-4.6552,-4.7645,0.0,0.0,0.0,0.0,0.0,0.0,-4.9987,0.0,-4.7586,-4.7547,-4.6749,-4.63,-4.63,-4.6339,-4.6378,-4.6378,-4.6417,-4.6422,-4.6429,-4.6435,-4.6438,-4.6438,-4.6438,-4.6438,-4.6438,-4.6438,-4.6438,-4.6438,-4.6438,-4.6438,-4.6438,-4.638,-4.636,-4.6458,-4.7238,-4.7531,-4.7549,0.0,0.0,0.0,0.0,0.0,0.0,0.0,0.0,0.0,0.0,0.0,0.0,0.0,0.0,0.0,0.0,0.0,0.0,-2.619,-2.7123,-2.8183,-2.948,-2.9953,-3.0343,-3.0731,-3.0519,-3.0519,-3.0731,-3.0849,-3.1507,-3.2673,-3.2722,-3.3273,-3.4199,-3.4199,-3.4199,-3.4199,-3.4199,-3.3853,-3.3295,-3.3064,-3.2333,-3.1346,-3.1115,-2.9871,-2.8195,-2.7986,-2.6968,0.0,0.0,0.0,0.0,0.0,0.0,-3.3528,0.0,0.0,-3.7218,-3.816,-3.9364,-4.0478,-4.0987,-4.1103,-4.1098,-4.1093,-4.1101,-4.0816,-3.9785,-3.9393,-3.8918,-3.783,0.0,0.0,-4.1402,-4.3606,0.0,-4.5909,-4.7432,0.0,0.0,0.0,-5.0711,-4.8974,-4.8993,0.0,0.0,-4.784,-4.7315,-4.6671,-4.6417,-4.63,-4.63,-4.6924,-4.7276,-4.7276,-4.7861,-4.8156,-4.8158,-4.8166,-4.817,-4.817,-4.8213,-4.8234,-4.8234,-4.8234,-4.8235,-4.8235,-4.8231,-4.8231,-4.8175,-4.7511,-4.728,-4.7224,-4.6794,-4.6639,-4.6718,0.0,0.0,0.0,0.0,0.0,0.0,0.0,0.0,0.0,0.0,0.0,0.0,0.0,0.0,0.0,0.0,0.0,0.0,0.0,-2.5096,-2.6013,-2.7455,-2.7729,-2.8077,-2.8542,-2.8678,-2.8678,-2.8568,-2.9257,-2.9829,-3.0294,-3.0574,-3.1035,-3.1632,-3.1632,-3.1632,-3.1632,-3.1632,-3.1364,0.0,0.0,-2.9953,-2.9147,-2.8848,-2.7904,-2.676,-2.6781,0.0,0.0,0.0,0.0,-3.1947,-3.2836,-3.3692,-3.4559,-3.5326,0.0,-3.8474,-3.9328,-4.0257,-4.1022,-4.1076,-4.1074,-4.0873,-4.0162,-4.0008,-3.9621,-3.8301,-3.7421,0.0,-3.6113,0.0,0.0,0.0,0.0,0.0,-4.5617,-4.6866,-4.7515,0.0,-4.8915,0.0,-4.7754,-4.7968,-4.7868,0.0,-4.6998,-4.6827,-4.6339,-4.63,-4.6475,-4.6866,-4.7332,-4.7762,-4.8115,-4.8564,-4.8798,-4.8798,-4.8804,-4.8805,-4.8805,-4.8833,-4.8855,-4.8855,0.0,-4.8899,-4.8899,-4.8873,-4.8852,-4.8816,-4.8328,-4.8136,-4.8063,-4.7185,-4.6874,-4.6933,0.0,0.0,0.0,0.0,0.0,0.0,0.0,0.0,0.0,0.0,-1.9249,0.0,0.0,0.0,0.0,0.0,0.0,0.0,0.0,0.0,-2.3741,-2.5445,-2.513,-2.5259,-2.6021,-2.6257,-2.6263,-2.604,-2.7532,-2.8229,-2.8167,-2.8904,-2.9396,-2.9627,-2.9627,-2.9654,-2.9642,-2.9642,-2.9585,-2.9441,-2.8807,-2.802,-2.7186,0.0,-2.5922,0.0,0.0,0.0,0.0,0.0,-3.1236,-3.2295,-3.3165,-3.4118,-3.5208,-3.6716,-3.7868,-3.8978,-4.0551,-4.0997,-4.0994,-4.1051,-4.1029,-4.0578,-3.8955,-3.8577,-3.8222,-3.7031,0.0,-3.4882,-3.553,-3.656,-3.7653,-3.8747,0.0,-4.3177,-4.4933,-4.5916,-4.6474,-4.6543,-4.7851,-4.8138,-4.6511,-4.7048,-4.7097,-4.6184,-4.6211,-4.6291,-4.6305,-4.6404,-4.6912,-4.7904,-4.7939,-4.833,-4.913,-4.915,-4.915,-4.915,-4.915,-4.915,-4.915,-4.9158,-4.9142,-4.9143,0.0,0.0,-4.923,-4.9165,-4.9143,-4.9124,-4.9026,-4.9009,-4.8956,-4.8082,-4.7772,-4.7754,0.0,0.0,0.0,0.0,0.0,0.0,0.0,0.0,0.0,0.0,-1.9511,-1.9184,0.0,0.0,0.0,0.0,0.0,0.0,0.0,0.0,0.0,-2.3562,-2.4124,-2.4681,-2.5203,-2.5203,-2.5203,-2.5209,0.0,-2.5725,-2.6349,-2.6339,-2.6837,-2.7782,-2.7782,-2.7813,-2.7839,-2.7839,-2.7466,-2.6859,-2.6728,-2.6158,-2.5379,-2.5359,0.0,0.0,0.0,0.0,0.0,0.0,-3.2037,-3.4104,-3.4969,-3.6303,-3.7599,-3.7893,-3.9124,-4.0449,-4.083,-4.0911,-4.0913,-4.0938,-4.0929,-4.0506,-3.887,-3.8472,0.0,0.0,0.0,-3.4469,-3.3957,-3.5742,0.0,-4.0309,0.0,0.0,0.0,0.0,-4.7499,0.0,0.0,0.0,0.0,0.0,0.0,0.0,0.0,0.0,-4.6301,-4.6989,-4.8083,-4.9618,-4.9664,-5.0085,-5.0945,-5.0945,-5.0945,-5.0945,-5.0945,-5.0945,-5.0945,-5.0947,-5.0953,-5.0941,0.0,0.0,-5.0968,-5.0944,-5.0941,-5.0882,-5.0158,-4.9887,-4.979,-4.8976,-4.8668,-4.8573,0.0,0.0,0.0,0.0,0.0,0.0,0.0,-1.9666,-2.0146,-2.0578,-2.0434,-2.0155,-1.9806,-1.9456,-1.9389,0.0,0.0,0.0,0.0,0.0,0.0,0.0,0.0,0.0,0.0,0.0,0.0,0.0,0.0,0.0,0.0,0.0,0.0,0.0,0.0,0.0,-2.5718,-2.5718,-2.5537,-2.5223,-2.5291,-2.5118,0.0,0.0,0.0,0.0,0.0,0.0,0.0,0.0,-3.1457,-3.4508,-3.5414,-3.6535,-3.7613,-3.8077,-3.9108,-4.0228,-4.0713,-4.0846,-4.0867,-4.0881,-4.087,-4.0182,-3.7665,0.0,0.0,0.0,-3.2296,-3.2452,-3.2067,0.0,0.0,0.0,0.0,0.0,0.0,0.0,0.0,0.0,0.0,0.0,0.0,0.0,0.0,0.0,0.0,0.0,-4.6143,-4.7434,-4.8768,-5.0057,-5.0542,-5.0986,-5.1408,-5.1408,-5.1403,-5.1394,-5.1394,-5.1394,-5.1394,-5.1394,-5.1396,-5.1402,-5.1402,0.0,-5.1407,-5.1403,-5.1402,-5.1363,-5.0933,-5.078,-5.0668,-4.9831,-4.9523,-4.941,0.0,0.0,0.0,0.0,0.0,0.0,-1.9489,-1.9962,-2.0501,-2.1251,-2.1437,-2.1288,-2.0662,-1.9889,-1.9385,0.0,0.0,0.0,0.0,0.0,0.0,0.0,0.0,0.0,0.0,0.0,0.0,0.0,0.0,0.0,0.0,0.0,0.0,0.0,0.0,0.0,0.0,-2.419,-2.4247,0.0,0.0,0.0,0.0,0.0,0.0,0.0,0.0,0.0,0.0,0.0,-3.0427,-3.3437,-3.4721,-3.5834,-3.6806,-3.7671,-3.8547,-3.9443,-4.0507,-4.0797,-4.0821,-4.0872,-4.0839,-3.9917,-3.6547,-3.5774,0.0,0.0,-3.0687,-3.0745,-3.0939,0.0,0.0,0.0,0.0,0.0,0.0,0.0,0.0,0.0,0.0,0.0,0.0,0.0,0.0,0.0,0.0,0.0,-4.6566,-4.7903,-4.9196,-5.0307,-5.0971,-5.1305,-5.1308,-5.1347,-5.1364,-5.1357,-5.139,-5.1407,-5.1407,-5.1407,-5.1407,-5.1407,-5.1407,0.0,0.0,-5.1398,-5.1396,-5.14,-5.14,-5.1403,-5.1328,-5.0626,-5.0376,-5.0264,0.0,0.0,0.0,0.0,0.0,0.0,-1.9478,-2.0398,-2.1286,-2.21,-2.22,-2.1956,-2.1277,-2.0544,-1.9864,0.0,0.0,0.0,0.0,0.0,0.0,0.0,0.0,0.0,0.0,0.0,0.0,0.0,0.0,0.0,0.0,0.0,0.0,0.0,0.0,0.0,0.0,0.0,0.0,0.0,0.0,0.0,0.0,0.0,0.0,0.0,0.0,0.0,0.0,0.0,0.0,-3.0109,-3.2549,-3.4489,-3.5974,-3.6787,0.0,0.0,-4.0352,-4.0797,-4.0797,-4.0809,-4.079,-3.9904,-3.6496,0.0,0.0,-3.1385,-3.065,-3.0866,-3.172,-3.2143,-3.3378,0.0,0.0,-3.8961,0.0,0.0,0.0,0.0,0.0,0.0,0.0,0.0,0.0,0.0,0.0,0.0,0.0,-4.8551,-4.9376,-5.105,-5.1066,-5.105,-5.1034,-5.1167,-5.1228,-5.1229,-5.1346,-5.1406,-5.1406,-5.1406,-5.1406,-5.1406,0.0,0.0,0.0,-5.1408,-5.1405,-5.1396,-5.1396,-5.1409,-5.1396,-5.1318,-5.1285,-5.1156,0.0,0.0,0.0,0.0,0.0,0.0,-1.9921,-2.0589,-2.1426,-2.2834,-2.3017,-2.2743,-2.1982,-2.1199,-2.0299,-1.9238,0.0,0.0,0.0,0.0,0.0,0.0,0.0,0.0,0.0,0.0,0.0,0.0,0.0,0.0,0.0,0.0,0.0,0.0,0.0,0.0,0.0,0.0,0.0,0.0,0.0,0.0,0.0,0.0,0.0,0.0,0.0,0.0,0.0,0.0,0.0,0.0,-2.9795,-3.1172,0.0,0.0,-3.6767,-3.7793,-3.9539,-4.041,-4.0797,-4.0797,-4.0017,-3.8617,-3.6241,0.0,-3.3446,-3.1115,-3.0622,-3.0715,-3.1086,-3.1598,-3.2564,-3.4444,0.0,0.0,0.0,0.0,0.0,0.0,0.0,0.0,0.0,0.0,0.0,0.0,0.0,0.0,0.0,-4.8213,-4.9314,-5.1141,-5.1074,-5.0992,-5.1005,-5.1039,-5.1089,-5.107,-5.1135,-5.1164,-5.1164,-5.1164,-5.1164,-5.1164,0.0,0.0,0.0,-5.1164,-5.1217,-5.1284,-5.1284,-5.1328,-5.1401,-5.1401,-5.1402,-5.1345,0.0,0.0,0.0,0.0,0.0,-1.8203,-2.0188,-2.066,-2.1445,-2.3268,-2.3291,-2.2928,-2.2368,-2.1393,-2.0399,-1.9443,-1.9214,0.0,0.0,0.0,0.0,0.0,0.0,0.0,0.0,0.0,-2.245,-2.2694,-2.3464,0.0,0.0,0.0,0.0,0.0,0.0,0.0,0.0,0.0,0.0,0.0,0.0,0.0,0.0,0.0,0.0,0.0,0.0,0.0,0.0,0.0,0.0,0.0,0.0,0.0,0.0,0.0,-3.551,-3.6535,-3.8263,-3.9559,-4.0429,-4.0429,-3.9301,-3.7748,0.0,0.0,-3.2623,-3.0946,-3.0385,-3.0293,-3.0543,-3.1087,-3.1868,-3.2986,0.0,-3.6653,0.0,0.0,0.0,0.0,0.0,0.0,0.0,0.0,0.0,0.0,0.0,0.0,0.0,-4.7659,-4.8819,-5.0641,-5.0849,-5.0907,-5.0901,-5.0957,-5.0959,-5.0962,-5.0991,-5.1005,-5.1005,-5.1005,-5.1005,-5.1005,0.0,0.0,0.0,-5.1005,-5.1051,-5.1144,-5.1144,-5.1193,-5.1278,-5.1278,-5.1302,-5.1344,0.0,0.0,0.0,0.0,0.0,0.0,-2.0177,-2.066,-2.1445,-2.3268,-2.2803,-2.2314,-2.2296,-2.0929,-2.0002,-1.9984,-1.9309,0.0,0.0,0.0,0.0,0.0,0.0,0.0,0.0,0.0,-2.1896,-2.2699,-2.3503,-2.3876,-2.3806,0.0,0.0,0.0,0.0,0.0,0.0,0.0,0.0,0.0,0.0,0.0,0.0,0.0,0.0,0.0,0.0,0.0,0.0,0.0,0.0,0.0,0.0,-2.8555,-2.9801,0.0,-3.375,-3.48,-3.6477,-3.8179,-3.9501,-3.9501,-3.8856,-3.7748,0.0,0.0,-3.2623,-3.0946,-2.9901,-2.9573,-3.0443,-3.0554,-3.1075,-3.2814,-3.3782,0.0,0.0,0.0,0.0,0.0,0.0,0.0,0.0,0.0,0.0,0.0,0.0,0.0,0.0,-4.7012,-4.7783,-4.9451,-5.0287,-5.0693,-5.0702,-5.0833,-5.0894,-5.0902,-5.0966,-5.1008,-5.1008,-5.1008,-5.1008,0.0,0.0,0.0,0.0,-5.1008,-5.1003,-5.0996,-5.0996,-5.1005,-5.1008,-5.1008,-5.1096,-5.1199,0.0,0.0,0.0,0.0,0.0,0.0,-1.9096,-1.9423,-2.0027,-2.1465,-2.1432,-2.1327,-2.1454,-2.059,-2.0002,-2.0002,-1.9327,0.0,0.0,0.0,0.0,0.0,0.0,0.0,0.0,-2.1134,-2.1916,-2.2761,-2.4029,-2.465,-2.461,-2.461,-2.461,0.0,0.0,0.0,0.0,0.0,0.0,0.0,0.0,0.0,0.0,0.0,0.0,0.0,0.0,0.0,0.0,0.0,0.0,0.0,0.0,0.0,0.0,-2.9911,-3.1932,-3.377,-3.4891,-3.6038,-3.6909,-3.6909,-3.58,-3.4577,-3.4035,-3.2604,-3.1236,-3.0714,-3.0385,-3.0269,-3.0559,-3.0569,-3.1125,-3.2821,-3.3318,0.0,0.0,0.0,0.0,0.0,0.0,0.0,0.0,0.0,0.0,0.0,0.0,0.0,0.0,0.0,-4.7465,-4.864,-4.9412,-4.9798,-4.9798,-5.0441,-5.0767,-5.0767,-5.0782,-5.0789,-5.0789,-5.0789,0.0,0.0,0.0,0.0,0.0,-5.0789,-5.084,-5.0926,-5.0926,-5.0952,-5.1,-5.1,-5.1026,-5.1054,0.0,0.0,0.0,0.0,0.0,0.0,-1.8612,-1.8887,-1.9354,-2.0522,-2.0427,-2.0433,-2.093,-2.0053,-1.9585,-1.9966,-1.9308,0.0,0.0,0.0,0.0,0.0,0.0,0.0,-2.0443,-2.1161,-2.1953,-2.2811,-2.4325,-2.5063,-2.5041,-2.5328,-2.5298,-2.4972,-2.4483,0.0,0.0,0.0,0.0,0.0,0.0,0.0,-2.4456,0.0,0.0,0.0,0.0,0.0,0.0,0.0,0.0,0.0,0.0,0.0,0.0,0.0,-2.9921,-3.1927,-3.3093,-3.4292,-3.5206,-3.5206,-3.4156,0.0,-3.3107,-3.1792,-3.0598,-3.0598,-3.0346,-3.0211,-3.054,-3.0598,-3.1043,-3.2391,-3.3165,0.0,0.0,0.0,0.0,0.0,0.0,0.0,0.0,0.0,0.0,0.0,0.0,0.0,0.0,0.0,-4.6714,-4.7304,-4.8344,-4.8913,-4.8913,-4.9452,-4.9875,-5.0212,-5.0212,-5.0385,-5.0712,-5.0712,0.0,0.0,0.0,0.0,0.0,-5.0712,-5.0749,-5.0816,-5.0816,-5.0855,-5.0889,-5.0889,-5.0925,-5.0953,0.0,0.0,0.0,0.0,0.0,0.0,0.0,-1.8783,-1.9216,-2.0171,-1.9653,-1.9553,-2.0504,-1.9328,-1.8863,-1.9802,-1.9206,0.0,0.0,0.0,0.0,0.0,0.0,0.0,-2.0476,-2.1224,-2.2027,-2.2884,-2.4478,-2.5248,-2.5194,-2.5937,-2.586,-2.5081,-2.5027,-2.4556,-2.3806,0.0,0.0,0.0,-2.4191,-2.4266,0.0,0.0,0.0,0.0,0.0,0.0,0.0,0.0,0.0,0.0,0.0,0.0,0.0,0.0,0.0,0.0,0.0,-3.2803,-3.4123,-3.4123,-3.3518,-3.2914,-3.2914,-3.1715,0.0,-3.0598,-2.9959,-2.965,-3.052,-3.0636,-3.0907,-3.1831,-3.3286,0.0,0.0,0.0,0.0,0.0,0.0,0.0,0.0,0.0,0.0,0.0,0.0,0.0,0.0,0.0,-4.5711,-4.5709,-4.716,-4.7961,-4.8009,-4.8086,-4.8509,-4.9317,-4.9317,-4.9721,-5.0519,-5.0577,0.0,0.0,0.0,0.0,0.0,-5.0712,-5.0712,-5.0712,-5.0712,-5.0712,-5.0712,-5.0712,-5.0785,-5.0898,0.0,0.0,0.0,0.0,0.0,0.0,0.0,0.0,0.0,0.0,-1.8212,-1.8306,-1.8693,-1.8409,-1.837,0.0,0.0,0.0,0.0,0.0,0.0,0.0,0.0,0.0,-2.1429,-2.1498,-2.2262,-2.3791,-2.5252,-2.5978,-2.603,-2.6771,-2.6693,-2.5896,-2.5262,-2.4556,-2.3806,-2.3827,0.0,0.0,-2.4123,-2.4191,0.0,0.0,0.0,0.0,-2.4548,-2.5098,0.0,0.0,0.0,0.0,0.0,0.0,0.0,0.0,-2.6996,-2.7538,-2.8606,0.0,-3.1487,-3.1487,-3.1333,-3.1197,0.0,-3.0888,-3.0598,-3.0598,-3.0443,-3.0559,-3.1366,-3.1004,-3.1294,-3.3441,0.0,0.0,0.0,0.0,0.0,0.0,0.0,0.0,0.0,0.0,0.0,0.0,0.0,0.0,0.0,0.0,-4.57,-4.5692,-4.6061,-4.6557,-4.7169,-4.7843,-4.8257,-4.8413,-4.8413,-4.8509,-4.874,-4.9394,0.0,0.0,0.0,0.0,-5.0712,-5.0712,-5.0712,-5.0712,-5.0712,-5.0712,-5.0712,-5.0712,-5.0721,-5.074,0.0,0.0,0.0,0.0,0.0,0.0,0.0,0.0,0.0,0.0,-1.7617,-1.7749,-1.7969,-1.8001,-1.8103,0.0,0.0,0.0,0.0,0.0,0.0,0.0,0.0,-2.0026,-2.1757,-2.1598,-2.2535,-2.4661,-2.5725,-2.6449,-2.6872,-2.761,-2.7314,-2.6149,-2.4972,-2.4212,-2.3806,-2.3876,-2.3976,-2.4103,-2.4123,0.0,0.0,0.0,0.0,0.0,-2.4469,-2.4841,0.0,-2.5841,-2.6439,-2.6931,0.0,0.0,0.0,0.0,-2.638,-2.6803,-2.729,-2.8683,-2.9998,-2.9998,-3.0308,-3.0598,-3.0598,-3.0598,-3.0598,0.0,0.0,0.0,0.0,0.0,0.0,0.0,0.0,0.0,0.0,0.0,0.0,0.0,0.0,0.0,0.0,0.0,0.0,0.0,0.0,0.0,0.0,0.0,-4.5754,-4.5758,-4.5754,-4.5943,-4.6362,-4.6824,-4.7232,-4.761,-4.761,-4.7803,-4.8207,-4.8642,0.0,0.0,0.0,0.0,-5.0087,-5.0087,-5.0346,-5.0712,-5.0712,-5.0702,-5.0702,-5.0693,-5.0702,-5.0702,0.0,0.0,0.0,0.0,0.0,0.0,0.0,0.0,0.0,0.0,0.0,0.0,0.0,0.0,0.0,0.0,0.0,0.0,0.0,0.0,0.0,0.0,-1.9153,-1.9991,-2.1749,-2.1598,-2.2744,-2.527,-2.6092,-2.6817,-2.7525,-2.8371,-2.7857,-2.6149,-2.4646,-2.3933,-2.3827,-2.3927,-2.4026,-2.4132,-2.4123,0.0,0.0,0.0,0.0,0.0,0.0,0.0,0.0,-2.6284,-2.6711,-2.6682,-2.7019,0.0,0.0,0.0,0.0,0.0,-2.6646,-2.7969,-2.9297,-2.9302,-2.9959,-3.0598,-3.0598,0.0,0.0,0.0,0.0,0.0,0.0,0.0,0.0,0.0,0.0,0.0,0.0,0.0,0.0,0.0,0.0,0.0,0.0,0.0,0.0,0.0,0.0,0.0,0.0,0.0,0.0,-4.5795,-4.5805,-4.5771,-4.5723,-4.5715,-4.6074,-4.6791,-4.6791,-4.7196,-4.791,-4.7992,0.0,0.0,0.0,0.0,-4.9211,-4.9211,-4.9731,-5.0529,-5.0529,-5.0596,-5.073,-5.0731,-5.0721,-5.073,0.0,0.0,0.0,0.0,0.0,0.0,0.0,0.0,0.0,0.0,0.0,0.0,0.0,0.0,0.0,0.0,0.0,0.0,0.0,0.0,0.0,-1.9019,-1.9078,-1.9924,-2.1678,-2.1561,-2.2714,-2.5218,-2.657,-2.7314,-2.7525,-2.8946,-2.8395,-2.6168,-2.5226,-2.4501,-2.3947,-2.3876,-2.3976,-2.417,-2.3937,0.0,0.0,0.0,0.0,0.0,0.0,0.0,0.0,-2.4999,-2.6365,-2.7835,-2.5964,0.0,0.0,0.0,0.0,0.0,-2.6439,-2.7894,-2.9231,-2.9293,-2.9959,-3.0598,-3.0598,-3.0598,0.0,0.0,0.0,0.0,0.0,0.0,0.0,0.0,0.0,0.0,0.0,0.0,0.0,0.0,0.0,0.0,0.0,0.0,0.0,0.0,0.0,0.0,0.0,0.0,0.0,-4.58,-4.58,-4.58,-4.5786,-4.5776,-4.5816,-4.5893,-4.5893,-4.597,-4.6124,-4.6849,-4.7188,0.0,0.0,-4.8311,-4.8372,-4.8372,-4.8892,-4.969,-4.969,-5.0141,-5.0784,-5.0784,-5.0784,-5.0784,0.0,0.0,0.0,0.0,0.0,0.0,0.0,0.0,0.0,0.0,0.0,0.0,0.0,0.0,0.0,0.0,0.0,0.0,0.0,0.0,-1.8994,-1.9676,-1.965,-2.0273,-2.1616,-2.2378,-2.3964,-2.6445,-2.7526,-2.8504,-2.9393,-2.9241,-2.813,-2.6266,-2.5393,-2.4638,-2.3996,-2.3976,-2.3996,-2.4036,0.0,0.0,0.0,0.0,0.0,0.0,0.0,0.0,0.0,0.0,-2.6242,-2.753,-2.5977,0.0,0.0,0.0,0.0,0.0,-2.6376,-2.7527,-2.885,-3.0245,-3.1622,-3.2653,-3.2653,-3.3015,0.0,0.0,0.0,0.0,0.0,0.0,0.0,0.0,0.0,0.0,0.0,0.0,0.0,0.0,0.0,0.0,0.0,0.0,0.0,0.0,0.0,0.0,0.0,0.0,0.0,0.0,-4.5807,-4.5807,-4.5807,-4.5805,-4.5791,-4.5749,-4.5749,-4.5749,-4.5769,-4.6171,-4.6349,-4.6368,0.0,-4.713,-4.7548,-4.7548,-4.8077,-4.8848,-4.8848,-4.9376,-5.016,-5.016,-4.9854,-4.9442,0.0,0.0,0.0,0.0,0.0,0.0,0.0,0.0,0.0,0.0,0.0,0.0,0.0,0.0,0.0,0.0,0.0,0.0,0.0,-1.8505,-1.9033,-2.0183,-2.0363,-2.0979,-2.2145,-2.3412,-2.5284,-2.7755,-2.8697,-2.9789,-3.0962,-2.9186,-2.764,-2.6362,-2.5448,-2.4691,-2.4075,-2.4094,-2.4056,-2.3998,0.0,0.0,0.0,0.0,0.0,0.0,0.0,0.0,0.0,0.0,0.0,0.0,0.0,0.0,0.0,-2.6109,-2.5627,-2.5735,-2.6784,-2.7583,-2.8681,-3.1072,-3.259,-3.3717,-3.4529,-3.4891,-3.4833,0.0,0.0,0.0,0.0,0.0,0.0,0.0,0.0,0.0,0.0,0.0,0.0,0.0,0.0,0.0,0.0,0.0,0.0,0.0,0.0,0.0,0.0,0.0,0.0,0.0,-4.5807,-4.5807,-4.5807,-4.6,-4.6,-4.5807,-4.5807,-4.5807,-4.5807,-4.5798,-4.5803,-4.5795,-4.5746,-4.6225,-4.702,-4.702,-4.7656,-4.8582,-4.837,-4.8712,-4.9312,-4.9312,-4.8902,-4.8329,0.0,0.0,0.0,0.0,0.0,0.0,0.0,0.0,0.0,0.0,0.0,0.0,0.0,0.0,0.0,0.0,0.0,0.0,0.0,-1.8489,-1.9033,-1.9988,-2.0906,-2.2152,-2.3783,-2.4526,-2.6095,-2.8509,-3.0061,-3.0889,-3.0962,-2.8644,-2.7161,-2.6362,-2.5543,-2.4854,-2.4266,-2.4152,-2.4171,-2.4257,-2.4085,0.0,0.0,0.0,0.0,0.0,0.0,0.0,0.0,0.0,0.0,0.0,0.0,0.0,-2.7221,-2.7015,-2.6457,-2.6234,-2.7975,-2.8596,-2.9211,-3.1136,-3.1237,-3.17,-3.4872,-3.4408,0.0,-3.5201,0.0,0.0,0.0,0.0,0.0,0.0,0.0,0.0,0.0,0.0,0.0,0.0,0.0,0.0,0.0,0.0,0.0,0.0,0.0,0.0,0.0,0.0,0.0,0.0,0.0,-4.5807,-4.5807,-4.66,-4.66,-4.5807,-4.5807,-4.5807,-4.5807,-4.58,-4.58,-4.58,-4.58,-4.63,-4.7094,-4.7094,-4.806,-4.9431,-4.862,-4.8373,-4.8481,-4.8481,-4.8442,-4.8384,0.0,0.0,0.0,0.0,0.0,0.0,0.0,0.0,0.0,0.0,0.0,-1.7721,-1.7789,0.0,0.0,0.0,0.0,0.0,0.0,-1.8381,-1.9131,-2.0746,-2.1128,-2.2401,-2.4756,-2.6005,-2.7531,-2.9406,-3.1056,-3.1334,-3.0219,-2.8961,-2.7702,-2.6436,-2.5614,-2.5167,-2.4946,-2.4392,-2.4426,-2.4819,-2.4315,-2.4103,0.0,0.0,0.0,0.0,0.0,0.0,0.0,0.0,-2.5457,-2.6321,-2.5596,-2.6558,-2.7746,-2.6668,-2.6151,-2.6156,-2.7344,-2.8105,-2.9007,-3.0935,-3.1607,0.0,0.0,-3.6339,-3.6607,-3.7818,-3.8998,0.0,0.0,0.0,0.0,0.0,0.0,0.0,0.0,0.0,0.0,0.0,0.0,0.0,0.0,0.0,0.0,0.0,0.0,0.0,0.0,0.0,0.0,0.0,0.0,-4.6058,-4.6593,-4.6941,-4.7212,-4.7424,-4.7424,-4.7424,-4.7424,-4.7424,-4.7424,-4.7424,-4.7424,-4.7301,-4.7093,-4.7093,-4.7151,-4.7248,-4.746,-4.7243,-4.6844,-4.7386,-4.725,-4.6786,0.0,0.0,0.0,0.0,0.0,0.0,0.0,0.0,-1.7709,0.0,0.0,0.0,0.0,-1.7715,0.0,0.0,0.0,0.0,-1.8201,-1.8338,-1.9121,-2.079,-2.1202,-2.2623,-2.5244,-2.6852,-2.8274,-2.9555,-3.0959,-3.1037,-2.9831,-2.8967,-2.7988,-2.6907,-2.6114,-2.5809,-2.5815,-2.4993,-2.4917,-2.525,-2.454,-2.4209,0.0,0.0,0.0,0.0,0.0,0.0,0.0,0.0,-2.5253,-2.5987,-2.5662,-2.6609,-2.7653,-2.6766,-2.6496,-2.6626,-2.725,-2.7846,-2.8816,-3.0985,0.0,0.0,-3.6193,-3.7514,-3.8478,-3.9842,-4.0694,0.0,0.0,0.0,0.0,0.0,0.0,0.0,0.0,0.0,0.0,0.0,0.0,0.0,0.0,0.0,0.0,0.0,0.0,0.0,0.0,0.0,0.0,0.0,0.0,0.0,-4.6689,-4.7231,-4.7676,-4.7985,-4.8275,-4.8392,-4.8392,-4.8121,-4.7985,-4.7966,-4.7695,-4.7405,-4.7096,-4.7096,-4.6748,-4.6271,-4.6864,-4.6581,-4.5865,-4.6464,-4.631,-4.5807,0.0,0.0,0.0,0.0,0.0,0.0,0.0,0.0,-1.78,-1.78,-1.78,0.0,0.0,0.0,0.0,0.0,0.0,0.0,-1.78,-1.83,-1.8996,-1.9875,-2.1116,-2.2878,-2.5236,-2.691,-2.8116,-2.8816,-2.9612,-3.0007,-2.9971,-2.8482,-2.7838,-2.7874,-2.7126,-2.6847,-2.6851,-2.5987,-2.5625,-2.5551,-2.4755,-2.4376,-2.4312,0.0,0.0,0.0,0.0,0.0,0.0,0.0,-2.4918,-2.463,-2.7016,-2.7236,-2.6778,-2.7548,-2.7787,-2.7842,-2.8036,-2.8114,-2.8749,-3.1347,0.0,0.0,-3.6349,-3.7471,-3.8514,-4.101,0.0,-4.2299,0.0,0.0,0.0,0.0,0.0,0.0,0.0,0.0,0.0,0.0,0.0,0.0,0.0,0.0,0.0,0.0,0.0,0.0,0.0,0.0,0.0,0.0,0.0,0.0,-4.5826,-4.7521,-4.7966,-4.7115,-4.7985,-4.8392,-4.8372,-4.7502,-4.7115,-4.7057,-4.6194,-4.631,-4.7096,-4.7096,-4.7096,-4.7096,-4.7096,-4.6561,-4.5807,-4.5807,-4.5807,-4.5807,0.0,0.0,0.0,0.0,0.0,0.0,0.0,0.0,-1.7658,-1.7658,-1.7658,0.0,0.0,0.0,0.0,0.0,0.0,0.0,-1.8211,-1.8467,-1.9321,-2.095,-2.1379,-2.2501,-2.4472,-2.5566,-2.7295,-2.9704,-3.0009,-2.9832,-2.921,-2.8338,-2.7943,-2.7874,-2.7138,-2.7123,-2.7614,-2.6791,-2.6772,-2.7214,-2.6419,-2.5716,-2.5143,0.0,0.0,0.0,0.0,0.0,0.0,0.0,0.0,0.0,-2.5888,-2.6715,-2.7394,-2.7114,-2.7397,-2.771,-2.7235,-2.8728,0.0,-3.0846,0.0,0.0,0.0,-3.7924,0.0,0.0,0.0,0.0,0.0,0.0,0.0,0.0,0.0,0.0,0.0,0.0,0.0,0.0,0.0,0.0,0.0,0.0,0.0,0.0,0.0,0.0,0.0,0.0,0.0,0.0,0.0,0.0,-4.6728,-4.7831,-4.8275,-4.8024,-4.8275,-4.8392,-4.8392,-4.8121,-4.8005,-4.8005,-4.7734,-4.7424,-4.7038,-4.6445,-4.6194,-4.6194,-4.6194,-4.6039,-4.5807,-4.5807,-4.5807,-4.5807,0.0,0.0,0.0,0.0,0.0,0.0,-1.7738,-1.7704,-1.767,-1.767,-1.767,-1.7692,0.0,0.0,0.0,-1.7839,-1.7975,0.0,0.0,-1.8778,-1.9643,-2.0804,-2.1642,-2.2884,-2.463,-2.5786,-2.7134,-2.8737,-2.8789,-2.8727,-2.8532,-2.8178,-2.8165,-2.8447,-2.8013,-2.81,-2.8505,-2.7673,-2.7599,-2.7958,-2.7162,-2.6329,-2.5588,0.0,0.0,0.0,0.0,0.0,0.0,0.0,0.0,0.0,-2.5342,-2.6115,-2.687,-2.6743,-2.7267,-2.7845,-2.773,-2.952,0.0,-3.2182,-3.4437,-3.6971,-3.8755,0.0,0.0,0.0,0.0,0.0,0.0,0.0,0.0,0.0,0.0,0.0,0.0,0.0,0.0,0.0,0.0,0.0,0.0,0.0,0.0,0.0,0.0,0.0,0.0,0.0,0.0,0.0,0.0,0.0,-4.7115,-4.7966,-4.8043,-4.7366,-4.7366,-4.7366,-4.7386,-4.7734,-4.7869,-4.785,-4.7521,-4.7076,-4.6542,-4.602,-4.5807,-4.5807,-4.5807,-4.5807,-4.5807,-4.5807,-4.5807,-4.5807,0.0,0.0,-1.78,-1.7789,0.0,0.0,-1.7789,-1.7789,-1.7789,-1.7789,-1.7789,-1.7789,0.0,0.0,0.0,-1.7822,-1.795,-1.8033,0.0,-1.9243,-1.9992,-2.0175,-2.207,-2.3885,-2.5466,-2.6859,-2.7247,-2.6593,-2.6649,-2.7159,-2.8004,-2.8011,-2.8468,-2.9312,-2.9376,-2.9396,-2.9341,-2.8467,-2.8152,-2.8152,-2.7334,-2.6535,-2.5819,-2.5819,0.0,0.0,0.0,0.0,0.0,0.0,0.0,0.0,-2.5254,-2.5493,-2.5641,-2.6371,-2.7331,-2.8263,-2.9015,-3.048,0.0,-3.4654,-3.6049,0.0,-4.0556,0.0,0.0,0.0,0.0,0.0,0.0,0.0,0.0,0.0,0.0,0.0,0.0,0.0,0.0,0.0,0.0,0.0,0.0,0.0,0.0,0.0,0.0,0.0,0.0,0.0,0.0,0.0,0.0,0.0,-4.7231,-4.8082,-4.7676,0.0,-4.5962,-4.5923,-4.5942,-4.6651,-4.698,-4.6941,-4.6136,-4.5807,-4.5807,-4.5807,-4.5807,-4.5807,-4.5807,-4.5807,-4.5807,-4.5807,-4.5807,-4.5807,0.0,0.0,-1.7777,-1.7658,0.0,0.0,-1.7647,-1.7635,-1.7635,-1.7635,-1.7692,-1.7738,-1.7789,-1.78,0.0,-1.795,-1.8085,-1.853,-1.9404,-1.9851,-2.0733,-2.2273,-2.3958,-2.5328,-2.6319,-2.6012,-2.5815,-2.5751,-2.6386,-2.7155,-2.7993,-2.8003,-2.8489,-2.9386,-2.9396,-2.9396,-2.9341,-2.8467,-2.8486,-2.9043,-2.8189,-2.7352,-2.6646,-2.6646,-2.5727,0.0,0.0,0.0,0.0,0.0,0.0,0.0,-2.5254,-2.5493,-2.554,-2.5763,-2.7307,-2.8997,-2.9225,-3.1758,0.0,0.0,-3.8191,-4.0388,-4.1231,0.0,0.0,0.0,0.0,0.0,0.0,0.0,0.0,0.0,0.0,0.0,0.0,0.0,0.0,0.0,0.0,0.0,0.0,0.0,0.0,0.0,0.0,0.0,0.0,0.0,0.0,0.0,0.0,-5.0008,-4.814,-4.8972,-4.8894,0.0,-4.7154,-4.6825,-4.6806,-4.631,-4.6078,-4.6078,-4.5884,-4.5807,-4.5807,-4.5807,-4.5807,-4.5807,-4.5807,-4.5807,-4.5807,-4.5807,-4.5807,-4.5807,0.0,0.0,0.0,0.0,0.0,0.0,0.0,0.0,-1.7709,-1.7709,-1.7749,-1.7816,-1.7889,-1.7867,0.0,0.0,-1.8826,-1.9328,-2.04,-2.096,-2.192,-2.3407,-2.4702,-2.5429,-2.5456,-2.5381,-2.5211,-2.4921,-2.5355,-2.6216,-2.7471,-2.7471,-2.8159,-2.9396,-2.9396,-2.9174,-2.8746,-2.8282,-2.8356,-2.8746,-2.8282,-2.7613,-2.6907,-2.6907,-2.5885,-2.4447,-2.4447,0.0,0.0,0.0,0.0,0.0,0.0,0.0,-2.5106,-2.5514,-2.6802,-2.8441,-3.0068,0.0,0.0,-3.7095,0.0,-4.122,-4.1332,0.0,0.0,0.0,0.0,0.0,0.0,0.0,0.0,0.0,0.0,0.0,0.0,0.0,0.0,0.0,0.0,0.0,0.0,0.0,0.0,0.0,0.0,0.0,0.0,0.0,0.0,0.0,-5.0113,-4.9919,-4.903,-4.9475,-4.9262,-4.8392,-4.7947,-4.7748,-4.7724,-4.6394,-4.5807,-4.5807,-4.5807,-4.5807,-4.5807,-4.5807,-4.5807,-4.5807,-4.5807,-4.5807,-4.5807,-4.5807,-4.5807,-4.5807,0.0,0.0,0.0,0.0,0.0,0.0,0.0,0.0,0.0,-1.798,-1.8053,-1.816,-1.833,-1.8364,-1.8747,0.0,0.0,0.0,-2.1292,-2.2262,-2.322,-2.418,-2.4966,-2.5154,-2.464,-2.5136,-2.5102,-2.4524,-2.4367,-2.519,-2.6907,-2.6907,-2.778,-2.9396,-2.9396,-2.8913,-2.8096,-2.7947,-2.7891,-2.7873,-2.7743,-2.7297,-2.6684,-2.6684,-2.5782,-2.45,-2.45,-2.45,-2.45,-2.45,0.0,0.0,0.0,0.0,-2.463,-2.5299,-2.6163,-2.752,-3.0381,0.0,-3.4995,-3.8044,-3.9927,0.0,0.0,0.0,0.0,0.0,0.0,0.0,0.0,0.0,0.0,0.0,0.0,0.0,0.0,0.0,0.0,0.0,0.0,0.0,0.0,0.0,0.0,0.0,0.0,0.0,0.0,0.0,-4.8745,-4.9443,-4.9482,-4.956,-4.9707,-4.9656,-4.9331,-4.8771,-4.8644,-4.8546,-4.8449,-4.6957,-4.6188,-4.6027,-4.5865,-4.5807,-4.5807,-4.5807,-4.5807,-4.5807,-4.5807,-4.5786,-4.5745,-4.5745,-4.573,-4.5708,0.0,0.0,0.0,0.0,0.0,0.0,0.0,0.0,0.0,0.0,-1.8846,-1.9095,-1.9753,-2.0062,-2.0291,-2.0441,-2.0682,-2.1261,-2.2321,0.0,0.0,-2.5092,-2.5248,-2.5638,-2.6344,-2.5666,-2.5349,-2.543,-2.4663,-2.519,-2.6907,-2.6907,-2.778,-2.9396,-2.9396,-2.8913,-2.8059,-2.7352,-2.7055,-2.6999,-2.6293,-2.5968,-2.5856,-2.5856,-2.5299,-2.45,-2.45,-2.45,-2.45,-2.45,-2.45,0.0,0.0,0.0,0.0,-2.463,-2.5726,-2.7148,0.0,0.0,-3.5892,0.0,-3.9623,-4.0537,0.0,0.0,0.0,0.0,0.0,0.0,0.0,0.0,0.0,0.0,0.0,0.0,0.0,0.0,0.0,0.0,0.0,0.0,0.0,0.0,0.0,0.0,0.0,0.0,0.0,-4.8083,-4.8515,-4.8578,-4.857,-4.8943,-4.9687,-4.9474,-4.9663,-5.0298,-4.9612,-4.9001,-4.8488,-4.8251,-4.7721,-4.6971,-4.615,-4.5807,-4.5807,-4.5807,-4.5807,-4.5807,-4.5807,-4.5681,-4.5533,-4.5533,-4.5427,-4.5274,0.0,0.0,0.0,0.0,0.0,0.0,0.0,0.0,0.0,0.0,0.0,-1.9741,-2.0064,-2.0208,-2.0508,-2.1097,-2.1272,-2.1868,-2.3091,-2.3775,-2.4298,-2.4674,-2.4674,-2.4888,-2.5344,-2.4918,-2.4984,-2.5606,-2.4728,-2.543,-2.7557,-2.7111,-2.778,-2.9396,-2.9396,-2.8672,-2.7408,-2.7055,-2.6628,-2.62,-2.5838,-2.6238,-2.6944,-2.6033,-2.5764,-2.5726,-2.4816,-2.45,-2.45,-2.45,-2.45,-2.45,-2.45,0.0,0.0,0.0,-2.5317,-2.6897,-2.9964,-3.3413,-3.6557,0.0,-3.956,0.0,0.0,0.0,0.0,0.0,0.0,0.0,0.0,0.0,0.0,0.0,0.0,0.0,0.0,0.0,0.0,0.0,0.0,0.0,0.0,0.0,0.0,0.0,0.0,0.0,-4.6305,-4.6665,-4.7008,-4.7326,-4.7345,-4.7749,-4.8624,-4.896,-4.955,-5.0363,-4.9522,-4.9268,-4.947,-4.7998,-4.7529,-4.7902,-4.7482,-4.7301,-4.7301,-4.7301,-4.7301,-4.7255,-4.6599,-4.6312,-4.6151,-4.5553,-4.5283,-4.5201,0.0,0.0,0.0,0.0,0.0,0.0,0.0,0.0,0.0,0.0,0.0,-2.0446,-2.0649,0.0,0.0,0.0,-2.2166,-2.2678,-2.3667,-2.3966,-2.4103,-2.4151,-2.4123,-2.4162,-2.4257,-2.4219,-2.4552,-2.5273,-2.4857,-2.5736,-2.7798,-2.739,-2.7984,-2.9396,-2.9396,-2.8579,-2.7204,-2.7204,-2.6739,-2.6015,-2.6219,-2.7037,-2.7966,-2.6758,-2.6684,-2.6981,-2.5392,0.0,0.0,0.0,0.0,0.0,0.0,0.0,0.0,0.0,0.0,0.0,0.0,0.0,-3.5586,-3.7742,-3.8964,0.0,0.0,0.0,0.0,0.0,0.0,0.0,0.0,0.0,0.0,0.0,0.0,0.0,0.0,0.0,0.0,0.0,0.0,0.0,0.0,0.0,0.0,0.0,0.0,0.0,-4.5535,-4.5526,-4.5715,-4.616,-4.6169,-4.6592,-4.7465,-4.8227,-4.8998,-4.9787,-4.912,-4.9324,-5.0179,-4.8264,-4.7818,-4.857,-4.7951,-4.7654,-4.7654,-4.7654,-4.7654,-4.7546,-4.6707,-4.632,-4.6148,-4.5339,-4.5007,-4.4962,0.0,0.0,0.0,0.0,0.0,0.0,0.0,0.0,0.0,0.0,0.0,-2.141,-2.2107,-2.269,-2.3065,-2.3106,-2.3691,-2.4067,-2.4074,-2.4094,-2.4074,-2.4006,-2.3937,0.0,-2.4103,-2.417,-2.4265,-2.4367,-2.5217,-2.6089,-2.6981,-2.7706,-2.8523,-2.9396,-2.9396,-2.8895,-2.804,-2.804,-2.7575,-2.6907,-2.7668,-2.8021,-2.8096,-2.8003,-2.8003,-2.7836,-2.6219,0.0,0.0,0.0,0.0,0.0,0.0,0.0,0.0,0.0,0.0,0.0,0.0,-3.0233,0.0,-3.5668,0.0,0.0,0.0,0.0,0.0,0.0,0.0,0.0,0.0,0.0,0.0,0.0,0.0,0.0,0.0,0.0,0.0,0.0,0.0,0.0,0.0,0.0,0.0,0.0,0.0,0.0,-4.5314,-4.5314,-4.5304,-4.5264,-4.5283,-4.5684,-4.656,-4.7191,-4.789,-4.8674,-4.8637,-4.9143,-5.0111,-5.009,-4.9654,-4.8752,-4.6383,-4.5367,-4.5367,-4.5367,-4.5337,-4.5265,-4.5205,-4.4988,-4.4707,-4.4643,-4.4508,-4.4358,0.0,0.0,0.0,0.0,0.0,0.0,0.0,0.0,0.0,0.0,0.0,0.0,0.0,-2.2849,-2.295,-2.3117,-2.3522,-2.3785,-2.3837,-2.4006,-2.4142,-2.4257,-2.4191,-2.4219,-2.4348,-2.4385,-2.4671,-2.5199,-2.5021,-2.5875,-2.7668,-2.7445,-2.8059,-2.9396,-2.9396,-2.8913,-2.8096,-2.8096,-2.7631,-2.7018,-2.8393,-2.9545,-3.0418,-2.9898,0.0,0.0,0.0,0.0,0.0,0.0,0.0,0.0,0.0,0.0,0.0,0.0,0.0,0.0,0.0,0.0,0.0,0.0,0.0,0.0,0.0,0.0,0.0,0.0,0.0,0.0,0.0,0.0,0.0,0.0,0.0,0.0,0.0,0.0,0.0,0.0,0.0,0.0,0.0,0.0,0.0,0.0,0.0,0.0,-4.4981,-4.4981,-4.4919,-4.4764,-4.4752,-4.5123,-4.5908,-4.6175,-4.6671,-4.7379,-4.7997,-4.8451,-4.8758,-4.8843,-4.8399,-4.7478,-4.6112,-4.6033,-4.6866,-4.6866,-4.6835,-4.6704,-4.602,-4.5614,-4.5362,-4.4655,-4.4368,-4.43,0.0,0.0,0.0,-2.0762,0.0,-2.1563,-2.1559,-2.2209,-2.2708,-2.2699,0.0,0.0,0.0,0.0,-2.3098,-2.3444,-2.3653,-2.3808,-2.386,-2.4027,-2.42,-2.4331,-2.4284,-2.4303,-2.4403,-2.443,-2.4688,-2.5226,-2.5021,-2.5726,-2.7297,-2.7297,-2.7891,-2.8969,-2.9266,-2.9229,-2.8951,-2.9229,-2.8876,-2.83,-3.0233,-3.1496,-3.2165,0.0,0.0,0.0,0.0,0.0,0.0,0.0,0.0,0.0,0.0,0.0,0.0,0.0,0.0,0.0,-2.817,0.0,0.0,0.0,0.0,0.0,0.0,0.0,0.0,0.0,0.0,0.0,0.0,0.0,0.0,0.0,0.0,0.0,0.0,0.0,0.0,0.0,0.0,0.0,0.0,0.0,0.0,0.0,0.0,0.0,-4.4675,-4.4688,-4.4616,-4.4468,-4.4444,-4.4678,-4.5159,-4.5203,-4.56,-4.6299,-4.6943,-4.7473,-4.7932,-4.8031,-4.7729,-4.7081,-4.6368,-4.6286,-4.6679,-4.6679,-4.6633,-4.6494,-4.5767,-4.5402,-4.5166,-4.4464,-4.4192,-4.4192,-2.2405,-2.2408,-2.238,-2.231,-2.231,-2.231,-2.231,-2.2324,-2.2419,-2.2706,0.0,0.0,0.0,0.0,0.0,-2.4169,-2.4293,-2.4303,-2.421,-2.4201,-2.4201,-2.4199,-2.4199,-2.4199,-2.4199,-2.4275,-2.4321,-2.4321,-2.5226,-2.5689,-2.5782,-2.7334,-2.8096,-2.8189,-2.9043,-2.9861,-3.066,-3.1403,-3.1292,-3.0809,0.0,-3.3733,-3.3157,0.0,0.0,0.0,-3.2555,-3.2481,0.0,-3.3101,0.0,0.0,0.0,0.0,0.0,0.0,0.0,0.0,0.0,0.0,0.0,0.0,0.0,0.0,0.0,0.0,0.0,0.0,0.0,0.0,0.0,0.0,0.0,0.0,0.0,0.0,0.0,0.0,0.0,0.0,0.0,0.0,0.0,0.0,0.0,0.0,0.0,-4.4397,-4.4397,-4.4473,-4.4454,-4.4397,-4.4329,-4.43,-4.43,-4.43,-4.4677,-4.5462,-4.548,-4.6274,-4.7725,-4.7914,-4.7914,-4.7742,-4.7039,-4.5911,-4.4557,-4.4519,-4.4416,-4.43,-4.43,-4.4177,-4.4005,-4.4005,-4.4005,-4.4005,-2.2338,-2.2338,-2.2324,-2.231,-2.246,-2.2579,-2.2579,-2.2751,-2.3092,0.0,0.0,0.0,-2.3965,-2.429,-2.4585,-2.4772,-2.4966,-2.4864,-2.4303,-2.4275,-2.4321,-2.4412,-2.4421,-2.4421,-2.4421,-2.4438,-2.4437,-2.4437,-2.4705,-2.5429,-2.6572,-2.7018,-2.7873,-2.9062,-2.9856,-3.0316,-3.0502,-3.0149,0.0,-3.0664,-3.3068,-3.4327,0.0,0.0,0.0,0.0,0.0,-3.598,-3.5677,0.0,-3.4637,-3.2908,0.0,0.0,0.0,0.0,0.0,0.0,-2.7873,0.0,0.0,0.0,0.0,0.0,0.0,0.0,0.0,0.0,0.0,0.0,0.0,0.0,0.0,0.0,0.0,0.0,0.0,0.0,0.0,0.0,0.0,0.0,0.0,0.0,0.0,0.0,-4.4329,-4.4329,-4.4329,-4.4344,-4.4344,-4.4329,-4.4255,-4.4229,-4.4229,-4.4229,-4.4292,-4.4436,-4.5112,-4.5637,-4.6041,-4.7295,-4.7516,-4.6959,-4.7431,-4.7046,-4.6008,-4.483,-4.43,-4.4229,-4.4229,-4.4116,-4.4005,-4.4005,-4.4005,-4.4005,-2.2296,-2.2296,-2.2398,-2.2716,-2.2892,-2.3106,-2.3397,-2.3649,-2.4029,0.0,0.0,0.0,-2.5237,-2.5411,-2.5597,-2.5737,-2.5598,-2.5346,-2.4921,-2.457,-2.4411,-2.45,-2.45,-2.4667,-2.4983,-2.4667,-2.4667,-2.5001,-2.5001,-2.5485,-2.6405,-2.7092,-2.7919,-2.8854,-2.9657,-2.9965,-2.9902,-2.9422,0.0,0.0,-3.3924,0.0,0.0,-3.7165,-3.8317,0.0,0.0,0.0,-3.8204,-3.7819,-3.6073,0.0,0.0,0.0,0.0,0.0,0.0,0.0,0.0,0.0,0.0,0.0,0.0,0.0,-3.3506,-3.4074,0.0,0.0,0.0,0.0,0.0,0.0,0.0,0.0,0.0,0.0,0.0,0.0,0.0,0.0,0.0,0.0,0.0,0.0,0.0,0.0,-4.4259,-4.4255,-4.43,-4.427,-4.4259,-4.4259,-4.4165,-4.4119,-4.4119,-4.4119,-4.407,-4.4005,-4.4553,-4.4981,-4.5324,-4.6301,-4.6873,-4.7078,-4.7276,-4.7274,-4.7013,-4.5727,-4.5,-4.4687,-4.4687,-4.4417,-4.4005,-4.4005,-4.4005,-4.4005,0.0,-2.2429,-2.2677,-2.3422,-2.3585,-2.385,-2.4496,-2.4752,-2.5077,0.0,-2.5941,-2.6303,-2.69,-2.6871,-2.6904,-2.7194,-2.6543,-2.608,-2.5968,-2.5206,-2.4778,-2.4778,-2.4778,-2.5094,-2.5819,-2.5132,-2.5113,-2.5838,-2.5838,-2.5875,-2.6005,-2.7417,-2.8111,-2.818,-2.8939,-2.9207,-2.9108,-2.928,0.0,-3.2109,-3.5135,-3.6021,0.0,0.0,-3.8627,0.0,-3.8535,-3.9268,-4.0416,-3.9528,-3.7689,0.0,0.0,0.0,0.0,0.0,-2.9136,0.0,0.0,0.0,0.0,0.0,0.0,0.0,-3.4111,-3.4241,-3.4643,0.0,0.0,0.0,0.0,0.0,0.0,0.0,0.0,0.0,0.0,0.0,0.0,0.0,0.0,0.0,0.0,0.0,-4.3813,-4.402,-4.4128,-4.4195,-4.427,-4.4195,-4.4184,-4.4184,-4.407,-4.4005,-4.4005,-4.4005,-4.4005,-4.4005,-4.4005,-4.4413,-4.5157,-4.5249,-4.6085,-4.7404,-4.6865,-4.7033,-4.7646,-4.7014,-4.6264,-4.5509,-4.5509,-4.4997,-4.4283,-4.4283,-4.4283,-4.4283,-2.319,-2.3272,-2.3594,-2.4381,-2.479,-2.5063,-2.5188,-2.5251,-2.5612,-2.653,-2.7281,-2.8116,-2.9144,-2.9284,-2.945,-2.9826,-2.9126,-2.8374,-2.7687,-2.6869,-2.6423,-2.6423,-2.6423,-2.6498,-2.6665,-2.6498,-2.6498,-2.6665,-2.6665,-2.6999,-2.765,-2.7887,-2.8386,-2.9061,-2.9112,-2.9112,-2.9181,0.0,0.0,-3.3479,-3.477,0.0,-3.7403,-3.9741,-4.0781,-4.0989,-4.0911,-4.1089,-4.1237,0.0,-3.8934,-3.7151,0.0,0.0,0.0,0.0,0.0,0.0,0.0,0.0,0.0,0.0,0.0,0.0,-3.0624,-3.0876,-3.1591,0.0,0.0,0.0,0.0,0.0,0.0,0.0,0.0,0.0,0.0,0.0,0.0,0.0,0.0,0.0,0.0,0.0,-4.2348,-4.3032,-4.3683,-4.4036,-4.4051,-4.4036,-4.4036,-4.4036,-4.402,-4.4005,-4.4005,-4.4005,-4.4005,-4.4005,-4.4005,-4.4098,-4.4283,-4.4971,-4.5472,-4.5825,-4.6977,-4.7553,-4.7738,-4.824,-4.7588,-4.6285,-4.6285,-4.6176,-4.6011,-4.6011,-4.6011,-4.6011,-2.3393,-2.3738,-2.432,-2.5212,-2.5527,-2.5834,-2.6412,-2.6926,-2.7483,-2.8116,-2.8968,-2.9883,-3.0741,-3.076,-3.0661,-3.0601,-2.9861,-2.9025,-2.8152,-2.7352,-2.6907,-2.6907,-2.6907,-2.7092,-2.7483,-2.7111,-2.7092,-2.7501,-2.7472,-2.7656,-2.8064,-2.8439,-2.9047,-2.9832,-2.9318,-2.931,-2.9715,0.0,-3.1604,-3.3935,-3.5587,0.0,-3.8973,-4.0668,-4.1632,-4.2042,-4.1724,-4.159,-4.159,-4.159,-3.9937,0.0,0.0,-3.6426,-3.512,0.0,-3.416,-3.5008,0.0,0.0,0.0,-3.208,0.0,0.0,0.0,-3.1714,0.0,0.0,0.0,0.0,0.0,0.0,0.0,0.0,0.0,0.0,0.0,0.0,0.0,0.0,0.0,0.0,0.0,0.0,-4.1757,-4.2166,-4.2946,-4.3392,-4.3392,-4.3782,-4.4005,-4.4005,-4.4005,-4.4005,-4.4005,-4.3958,-4.3961,-4.3961,-4.3961,-4.3961,-4.3979,-4.4435,-4.4878,-4.5342,-4.6141,-4.6958,-4.7738,-4.8147,-4.8054,-4.7664,-4.7256,-4.6847,-4.6494,-4.6494,-4.6494,-4.6494,-2.3517,-2.4088,-2.4861,-2.5632,-2.6157,-2.6742,-2.7502,-2.8614,-2.9469,-2.9723,-3.0618,-3.1402,-3.189,-3.2115,-3.2052,-3.1698,-3.1221,-3.0487,-2.9487,-2.8557,-2.8003,-2.7854,-2.7538,-2.7761,-2.856,-2.778,-2.7706,-2.8356,-2.8266,-2.8254,-2.8254,-2.8886,-2.9529,-3.0138,-2.9892,-2.9961,0.0,0.0,0.0,-3.4688,0.0,-3.8603,-4.032,-4.1356,-4.2229,-4.2841,-4.2266,-4.2054,-4.211,-4.2445,0.0,-3.8395,-3.8581,-3.7949,0.0,0.0,0.0,0.0,0.0,0.0,0.0,0.0,0.0,-3.3246,0.0,0.0,0.0,0.0,0.0,0.0,0.0,0.0,0.0,0.0,0.0,0.0,0.0,0.0,0.0,0.0,0.0,0.0,0.0,0.0,-4.1,-4.1301,-4.1798,-4.2281,-4.2733,-4.3398,-4.3806,-4.3974,-4.3958,-4.3958,-4.3974,-4.3913,-4.3883,-4.3883,-4.3883,-4.3899,-4.3897,-4.3961,-4.4361,-4.5064,-4.5231,-4.603,-4.7256,-4.7404,-4.7943,-4.863,-4.8129,-4.7534,-4.6958,-4.6958,-4.6958,-4.6958,-2.3964,-2.4493,-2.516,-2.5267,-2.7103,-2.836,-2.7789,-2.9198,-3.0449,-3.0717,-3.1709,-3.2441,-3.2493,0.0,0.0,0.0,0.0,0.0,-3.4225,0.0,-3.1998,-3.1273,-2.988,-2.9489,-3.0307,-2.9527,-2.9155,-2.9248,-2.9185,-2.9153,-2.9153,-2.9119,-2.9156,-2.9321,-3.133,0.0,0.0,0.0,-3.4743,0.0,-3.7382,-3.8906,0.0,-4.2735,-4.348,-4.367,-4.3701,-4.3726,-4.3522,0.0,-4.1014,-3.9765,0.0,-3.7819,0.0,0.0,0.0,0.0,0.0,0.0,0.0,0.0,-3.3528,0.0,0.0,0.0,0.0,0.0,0.0,0.0,0.0,0.0,0.0,0.0,0.0,0.0,0.0,0.0,0.0,0.0,0.0,0.0,0.0,0.0,0.0,-4.0174,-3.981,-4.0436,-4.2504,-4.277,-4.3172,-4.3894,-4.3851,-4.3851,-4.3913,-4.3835,-4.382,-4.382,-4.382,-4.3835,-4.3897,-4.3897,-4.4,-4.4191,-4.4952,-4.5398,-4.5621,-4.6345,-4.7107,-4.7906,-4.8519,-4.8723,-4.863,-4.863,-4.863,-4.863,-2.5077,-2.5674,-2.6327,-2.656,-2.7555,-2.8431,-2.8808,-3.0718,-3.2235,-3.2529,-3.341,-3.4076,0.0,0.0,0.0,0.0,0.0,-3.5904,0.0,0.0,-3.2878,-3.1857,-3.1143,-3.0734,-3.0604,-3.0238,-2.9808,-2.9344,-2.9229,-2.9186,-2.9186,-2.9096,-2.9552,-3.0544,-3.1978,0.0,-3.3125,0.0,-3.4963,0.0,0.0,0.0,0.0,-4.2774,-4.3684,-4.382,-4.3897,-4.3945,-4.3849,0.0,-4.1497,0.0,0.0,0.0,0.0,0.0,0.0,0.0,0.0,0.0,0.0,0.0,0.0,0.0,0.0,0.0,-3.247,0.0,0.0,0.0,0.0,0.0,0.0,0.0,0.0,0.0,0.0,0.0,0.0,0.0,0.0,0.0,0.0,0.0,0.0,0.0,0.0,-3.9174,-4.1049,-4.2097,-4.2797,-4.313,-4.3562,-4.382,-4.3835,-4.3736,-4.3684,-4.3684,-4.3684,-4.3753,-4.3835,-4.3883,-4.3945,-4.4023,-4.4395,-4.4822,-4.5324,-4.5658,-4.6271,-4.707,-4.7887,-4.85,-4.8909,-4.8909,-4.8909,-4.8909,-2.6285,-2.6635,-2.6914,-2.6979,-2.7648,-2.8667,-3.0161,-3.2109,-3.3522,-3.378,0.0,0.0,-3.5629,-3.6204,0.0,0.0,-3.7857,-3.7201,0.0,0.0,-3.4146,0.0,0.0,0.0,-3.1434,-3.082,-3.012,-2.9302,-2.9186,-2.9222,-2.9421,-2.937,-3.0105,-3.1526,0.0,-3.3949,-3.5142,0.0,0.0,-3.7643,-3.8025,-3.9126,-4.0779,-4.2811,-4.3667,-4.3753,-4.3849,-4.3897,-4.3841,-4.3344,-4.1585,0.0,-4.1773,0.0,0.0,0.0,0.0,0.0,-3.5416,0.0,0.0,0.0,0.0,0.0,0.0,0.0,0.0,0.0,0.0,0.0,0.0,0.0,0.0,0.0,0.0,0.0,0.0,0.0,0.0,0.0,0.0,0.0,0.0,0.0,0.0,0.0,0.0,0.0,-3.9921,-4.1224,-4.2089,-4.2532,-4.309,-4.3498,-4.3736,-4.3634,-4.3565,-4.3565,-4.3565,-4.3634,-4.3736,-4.3802,-4.3862,-4.3974,-4.3974,-4.4342,-4.4934,-4.4934,-4.5435,-4.6252,-4.7051,-4.7868,-4.8612,-4.8816,-4.8909,-4.8909,-2.7398,-2.7008,-2.6374,-2.5598,-2.735,-2.9597,-3.1779,-3.3063,-3.3793,-3.3807,0.0,0.0,0.0,0.0,0.0,0.0,0.0,-4.1792,-3.8554,0.0,-3.6872,0.0,0.0,-3.1994,0.0,-3.1584,-3.0163,-2.9302,-2.9229,-2.9562,-3.0261,-3.019,-3.0613,-3.1507,-3.3867,-3.4949,-3.5114,-3.6707,-3.8762,-4.0875,-4.012,-4.0781,-4.2304,0.0,-4.3599,-4.3632,-4.3832,0.0,0.0,-4.1726,-4.1038,0.0,0.0,0.0,0.0,0.0,0.0,0.0,0.0,0.0,0.0,-3.4494,0.0,0.0,0.0,0.0,-3.4934,0.0,0.0,0.0,0.0,0.0,0.0,0.0,0.0,0.0,0.0,0.0,0.0,0.0,0.0,0.0,0.0,0.0,0.0,0.0,0.0,0.0,-3.9711,-4.0016,-4.0799,-4.2361,-4.2373,-4.2759,-4.3599,-4.3549,-4.3496,-4.3496,-4.3496,-4.3531,-4.3599,-4.3599,-4.3718,-4.3897,-4.3897,-4.3963,-4.4042,-4.4042,-4.4544,-4.5417,-4.6215,-4.7033,-4.7831,-4.8612,-4.8909,-4.8909,-2.8522,-2.8691,-2.8521,-2.7282,-2.8216,-2.984,-3.1837,-3.3524,-3.4678,0.0,0.0,0.0,0.0,-3.8807,-3.9716,0.0,0.0,-4.1102,-3.9463,-3.8636,0.0,0.0,0.0,-3.3922,0.0,0.0,0.0,-3.0558,-3.0308,-3.0415,-3.0899,-3.0874,-3.1383,-3.2422,0.0,-3.6011,0.0,0.0,0.0,0.0,0.0,-4.061,-4.3162,0.0,0.0,-4.2341,-4.2814,-4.2977,0.0,-4.3337,-4.2359,-4.1154,-4.2115,-4.0979,-3.9401,-3.9684,-3.9363,0.0,0.0,0.0,-3.8585,-3.5441,0.0,0.0,0.0,0.0,0.0,0.0,0.0,0.0,0.0,0.0,0.0,0.0,0.0,0.0,0.0,0.0,0.0,0.0,0.0,0.0,0.0,0.0,0.0,0.0,0.0,0.0,0.0,-3.9638,-4.0444,-4.1511,-4.2027,-4.2707,-4.3531,-4.3515,-4.3515,-4.3515,-4.3531,-4.3634,-4.3736,-4.3767,-4.3865,-4.3976,-4.3976,-4.3974,-4.4005,-4.4005,-4.4172,-4.4525,-4.5361,-4.6197,-4.707,-4.8407,-4.8909,-4.8909,-2.9439,-2.9737,-2.9804,-2.8855,-2.9491,-3.0729,-3.2442,0.0,0.0,0.0,-3.7465,0.0,-3.9914,0.0,-4.1302,0.0,-4.2452,-4.181,-4.0291,-3.9742,0.0,-3.8399,-3.6727,0.0,0.0,0.0,0.0,0.0,0.0,-3.1139,-3.1636,-3.1722,-3.2239,-3.3086,0.0,-3.6241,-3.8735,0.0,-3.9433,0.0,0.0,-4.0542,0.0,0.0,-4.1428,-4.1741,0.0,-4.256,-4.2709,-4.352,-4.2741,-4.1669,-4.3137,-4.1869,-3.9965,-4.0816,-4.0291,-3.9337,-3.8922,-3.9659,0.0,-3.6752,-3.6948,0.0,-3.4312,0.0,0.0,0.0,0.0,0.0,0.0,0.0,0.0,0.0,0.0,0.0,0.0,-2.8802,0.0,0.0,0.0,0.0,0.0,0.0,0.0,0.0,0.0,0.0,0.0,0.0,-3.9974,-4.1058,-4.159,-4.2396,-4.3496,-4.3513,-4.3549,-4.3549,-4.3634,-4.3719,-4.3804,-4.3835,-4.3897,-4.3958,-4.3958,-4.3974,-4.4005,-4.4005,-4.4005,-4.4116,-4.5268,-4.603,-4.6661,-4.7999,-4.8649,-4.8909,-3.0176,-3.0213,-3.0264,0.0,-3.1078,0.0,0.0,0.0,-3.6032,0.0,-3.9113,-4.0653,-4.1519,-4.2963,-4.4191,-4.4951,-4.5023,0.0,-4.1206,-4.112,0.0,0.0,-3.8258,-3.7965,-3.8709,0.0,0.0,0.0,0.0,0.0,-3.2425,-3.2689,-3.306,-3.3491,-3.3748,0.0,-3.8572,-3.8114,-3.9858,-4.2776,-4.0959,-4.0739,-4.1419,-4.0978,-4.1243,-4.1941,-4.2531,-4.2742,-4.2703,-4.2405,-4.2287,-4.2187,-4.1815,-4.1913,-4.2216,-4.2195,-4.2157,-4.1917,-4.076,-4.0177,-3.9609,-3.833,0.0,0.0,0.0,0.0,-3.6359,0.0,0.0,0.0,0.0,0.0,0.0,0.0,0.0,0.0,0.0,0.0,0.0,0.0,0.0,0.0,0.0,0.0,0.0,0.0,0.0,0.0,0.0,0.0,0.0,-4.104,-4.1095,-4.1882,-4.3496,-4.3565,-4.3599,-4.3599,-4.3736,-4.3804,-4.3804,-4.3804,-4.3835,-4.3897,-4.3897,-4.3945,-4.4005,-4.4005,-4.4005,-4.4153,-4.5807,-4.6494,-4.6661,-4.746,-4.824,-4.8909,-3.1036,-3.1844,-3.2703,0.0,-3.2268,-3.2289,0.0,0.0,0.0,0.0,-3.9946,-4.12,-4.2813,-4.3353,-4.3692,-4.3886,-4.3903,0.0,0.0,0.0,0.0,-4.2665,-4.0463,-3.9548,-4.0293,-3.6756,0.0,-3.4709,0.0,0.0,-3.2696,-3.2769,-3.3,-3.3353,0.0,0.0,-3.7281,-3.7099,-3.894,-4.1885,-4.1051,-4.1375,0.0,0.0,-4.2497,-4.2909,-4.3306,-4.3432,-4.35,-4.3857,-4.359,-4.3066,-4.2985,-4.2596,-4.2154,-4.1852,-4.1744,-4.1696,-4.1396,-4.1422,-4.1214,-3.9683,-3.9552,-3.9299,0.0,0.0,0.0,0.0,0.0,0.0,0.0,0.0,0.0,0.0,0.0,0.0,0.0,0.0,0.0,0.0,0.0,0.0,0.0,0.0,0.0,0.0,0.0,0.0,0.0,0.0,0.0,-4.1003,-4.1142,-4.1963,-4.3546,-4.3582,-4.3651,-4.3736,-4.3835,-4.3883,-4.3883,-4.3929,-4.3961,-4.3974,-4.3974,-4.3989,-4.4005,-4.4005,-4.4005,-4.4116,-4.5194,-4.6345,-4.7497,-4.8296,-4.8723,-4.8909,-3.223,-3.3459,0.0,-3.4477,0.0,0.0,-3.6342,0.0,0.0,-3.9862,-4.1025,0.0,-4.2992,-4.4045,-4.4614,-4.4533,-4.4614,0.0,-4.3991,0.0,0.0,-4.365,-4.2334,-4.1785,-4.2188,-3.9418,0.0,-3.6631,0.0,0.0,-3.2795,-3.2937,-3.3032,-3.3032,0.0,-3.4506,0.0,-3.8402,-3.981,-4.1067,-4.1552,0.0,0.0,-4.3278,-4.3786,-4.4535,-4.474,-4.4347,-4.384,-4.4168,-4.3997,-4.3603,-4.3629,-4.3075,-4.2408,-4.218,-4.1885,-4.1604,-4.1604,-4.1784,-4.1708,-4.0816,-4.077,-4.0544,-3.9065,-3.8991,-3.9042,0.0,0.0,0.0,0.0,0.0,0.0,0.0,0.0,0.0,0.0,0.0,0.0,0.0,0.0,0.0,0.0,0.0,0.0,0.0,0.0,0.0,0.0,0.0,0.0,-4.0599,-4.0701,-4.1675,-4.3666,-4.3367,-4.3416,-4.3835,-4.3913,-4.3945,-4.3926,-4.3974,-4.4005,-4.4005,-4.4005,-4.4005,-4.4005,-4.4005,-4.4228,-4.4692,-4.5881,-4.7125,-4.8277,-4.8723,-4.8909,-4.8909,-3.3529,0.0,0.0,0.0,0.0,0.0,0.0,-3.8422,0.0,-4.1014,0.0,-4.3092,-4.3185,-4.504,-4.624,-4.6116,0.0,-4.5989,-4.4898,-4.5182,-4.4906,-4.3877,-4.3989,-4.4062,-4.4062,-4.2447,0.0,0.0,0.0,0.0,-3.2749,-3.305,-3.3003,0.0,0.0,0.0,0.0,-4.0208,-4.1153,0.0,-4.2279,-4.3325,-4.3921,-4.4115,-4.5045,-4.6196,-4.6196,-4.5337,-4.4185,-4.4097,-4.4062,-4.4044,-4.3921,-4.3465,-4.2956,-4.2956,-4.2394,-4.1762,-4.1762,-4.1692,-4.1604,-4.1604,-4.1604,-4.1341,-4.0261,-3.9814,-3.9493,-3.9075,-3.8478,-3.8045,0.0,0.0,0.0,0.0,0.0,0.0,0.0,0.0,0.0,0.0,0.0,0.0,0.0,0.0,0.0,0.0,0.0,0.0,0.0,0.0,0.0,0.0,-4.0273,0.0,-4.3636,0.0,-4.3156,-4.3765,-4.3918,-4.4005,-4.4005,-4.4005,-4.4005,-4.4005,-4.4005,-4.4005,-4.4005,-4.4005,-4.4581,-4.5602,-4.7107,-4.8184,-4.8909,-4.8909,-4.8909,-4.8909,0.0,0.0,0.0,0.0,0.0,-3.9431,-4.0951,-4.0867,-4.1261,-4.2992,-4.3884,-4.4844,-4.6098,-4.6611,-4.7074,-4.7648,-4.7753,0.0,0.0,0.0,0.0,-4.6671,-4.5532,-4.4887,-4.4887,-4.2728,-4.0467,0.0,0.0,0.0,-3.2473,-3.2524,-3.2524,0.0,0.0,0.0,-3.7022,-3.8285,0.0,-4.1507,-4.3079,-4.3781,-4.4044,-4.5302,-4.5968,-4.6196,-4.6196,-4.6021,-4.5688,-4.5098,-4.4887,-4.4764,-4.4097,-4.3799,-4.3711,-4.3711,-4.3184,-4.2605,-4.2605,-4.2113,-4.1604,-4.1604,-4.1604,-4.1556,-4.1341,-4.1244,-4.1187,-4.1094,-4.0971,-4.0299,-3.8444,0.0,0.0,0.0,0.0,0.0,0.0,0.0,0.0,0.0,0.0,0.0,0.0,0.0,0.0,0.0,0.0,0.0,0.0,0.0,0.0,0.0,0.0,0.0,0.0,0.0,0.0,-4.3005,-4.3674,-4.4005,-4.4005,-4.4005,-4.4005,-4.4005,-4.4005,-4.4005,-4.4005,-4.4005,-4.4896,-4.6382,-4.733,-4.8184,-4.8909,-4.8909,-4.8909,-4.8909,0.0,0.0,0.0,0.0,0.0,0.0,0.0,-4.3979,0.0,-4.4423,-4.4708,-4.5316,-4.6358,-4.7273,-4.7858,-4.8092,-4.8233,-4.8312,-4.8312,-4.8076,-4.7935,-4.7977,-4.6888,0.0,-4.6291,-4.4782,-4.2271,-3.8725,0.0,0.0,-3.2406,-3.2406,0.0,0.0,0.0,-3.562,0.0,0.0,0.0,-4.2938,-4.4483,-4.5098,-4.5185,-4.5916,-4.6196,-4.6196,-4.6196,-4.6196,-4.6144,-4.5775,-4.5653,-4.5582,-4.5238,-4.4834,-4.4518,-4.4518,-4.3974,-4.3377,-4.3377,-4.2816,-4.2219,-4.2219,-4.192,-4.1604,-4.1604,-4.1604,-4.1604,-4.1604,-4.1604,-4.0884,-3.8532,-3.672,0.0,0.0,0.0,0.0,0.0,0.0,0.0,0.0,0.0,0.0,0.0,0.0,0.0,0.0,0.0,0.0,0.0,0.0,0.0,0.0,0.0,0.0,0.0,0.0,0.0,-4.3429,-4.3608,-4.3677,-4.3677,-4.3474,-4.3388,-4.3388,-4.361,-4.3952,-4.4449,-4.55,-4.6382,-4.72,-4.8017,-4.8556,-4.8909,-4.8909,-4.8767,-4.8587,0.0,-3.9252,0.0,0.0,-4.2249,0.0,-4.5133,-4.6518,-4.7052,-4.5951,-4.581,-4.6042,-4.6695,-4.7952,-4.8732,-4.8695,-4.8899,-4.8978,-4.8855,-4.8855,-4.8819,-4.8766,-4.8029,-4.7555,-4.7397,-4.6783,-4.4337,0.0,0.0,0.0,0.0,0.0,0.0,0.0,0.0,0.0,0.0,0.0,-4.3939,-4.4501,-4.5705,-4.6196,-4.6196,-4.6196,-4.6196,-4.6196,-4.6196,-4.6196,-4.6196,-4.6196,-4.6196,-4.6196,-4.6196,-4.5793,-4.5343,-4.5343,-4.4764,-4.415,-4.415,-4.3605,-4.3044,-4.3044,-4.2447,-4.1868,-4.1868,-4.1727,-4.1604,-4.1604,-4.1604,-4.0937,-3.876,-3.7825,0.0,0.0,0.0,0.0,0.0,0.0,0.0,0.0,0.0,0.0,0.0,0.0,0.0,0.0,0.0,0.0,0.0,0.0,0.0,0.0,0.0,-4.1189,-4.3079,0.0,-4.3024,0.0,-4.3331,-4.3265,-4.3248,-4.2941,-4.281,-4.2829,-4.3306,-4.4016,-4.4931,-4.6706,-4.7422,-4.7496,-4.8309,-4.8605,-4.8605,-4.8605,-4.8421,-4.8132,0.0,0.0,0.0,0.0,0.0,0.0,0.0,-4.7288,-4.8207,-4.8179,-4.8076,-4.8347,-4.9249,-4.9486,-4.9872,-5.0583,-5.0662,-5.0662,-5.0662,-4.9978,-4.96,-4.96,-4.8819,-4.8082,-4.7397,-4.7327,-4.5712,0.0,0.0,0.0,0.0,0.0,0.0,0.0,0.0,0.0,0.0,-4.2728,-4.4091,-4.6003,-4.6144,-4.6196,-4.6196,-4.6196,-4.6196,-4.6196,-4.6196,-4.6196,-4.6196,-4.6196,-4.6196,-4.6196,-4.6196,-4.6144,-4.6091,-4.6091,-4.5565,-4.4992,-4.4992,-4.4395,-4.3799,-4.3799,-4.3237,-4.2693,-4.2693,-4.2131,-4.1604,-4.1604,-4.1604,-4.1113,-3.9477,-3.8922,-3.8053,0.0,0.0,0.0,0.0,0.0,0.0,0.0,0.0,0.0,0.0,0.0,0.0,0.0,0.0,0.0,0.0,0.0,0.0,-3.871,0.0,-3.9953,-4.0191,-4.1939,0.0,-4.1833,-4.2522,-4.2866,-4.2848,-4.2829,-4.281,-4.2846,-4.3626,-4.4369,-4.5128,-4.6132,-4.6515,-4.6588,-4.7407,-4.7715,-4.7715,-4.7715,-4.7695,-4.7611,0.0,0.0,0.0,0.0,0.0,0.0,0.0,-4.8767,-4.9328,-4.9872,-4.9469,-4.9469,-5.0329,-5.0399,-5.0566,-5.0855,-5.0891,-5.0891,-5.0891,-5.0592,-5.0399,-5.0399,-4.9644,-4.9065,-4.881,-4.8345,-4.659,0.0,0.0,0.0,0.0,0.0,0.0,0.0,0.0,-4.1038,-4.2903,-4.4249,-4.5372,-4.6196,-4.6196,-4.6196,-4.6196,-4.6196,-4.6196,-4.6196,-4.6196,-4.6196,-4.6196,-4.6196,-4.6196,-4.6196,-4.6196,-4.6196,-4.6196,-4.6196,-4.5986,-4.5758,-4.5758,-4.5203,-4.4624,-4.4624,-4.4044,-4.3342,-4.2903,-4.2552,-4.2184,-4.171,-4.1604,-4.1411,-4.0797,-3.9687,-3.8886,0.0,0.0,0.0,0.0,0.0,0.0,0.0,0.0,0.0,0.0,0.0,0.0,0.0,0.0,0.0,0.0,0.0,0.0,-3.6879,0.0,-4.0667,-4.0227,-4.1941,-4.2647,-4.232,-4.2416,-4.2442,-4.2422,-4.2195,-4.2465,-4.323,-4.4522,-4.5099,-4.5214,-4.6069,-4.6144,-4.5784,-4.6092,-4.6219,-4.6219,-4.6219,-4.6055,-4.5781,-4.573,0.0,-4.6256,0.0,-4.7608,-4.7871,-4.975,-5.003,-5.0241,-5.082,-5.0426,-5.0285,-5.0838,-5.0891,-5.0891,-5.0891,-5.0891,-5.0891,-5.0891,-5.0891,-5.0891,-5.0891,-5.0346,0.0,-4.9723,-4.9188,-4.7713,-4.5256,-4.3254,0.0,0.0,0.0,0.0,0.0,-4.2078,-4.3161,-4.3898,-4.5512,-4.6196,-4.6196,-4.6196,-4.6196,-4.6196,-4.6196,-4.6196,-4.6196,-4.6196,-4.6196,-4.6196,-4.6196,-4.6196,-4.6196,-4.6196,-4.6196,-4.6196,-4.6196,-4.6196,-4.6196,-4.6196,-4.581,-4.5431,-4.5431,-4.4834,-4.4115,-4.3605,-4.3131,-4.2565,-4.1673,-4.1475,-4.1453,-4.1403,-4.0356,-3.9638,-4.0118,0.0,0.0,0.0,0.0,0.0,0.0,0.0,-3.3086,0.0,0.0,0.0,0.0,0.0,0.0,0.0,0.0,0.0,0.0,0.0,0.0,0.0,-4.1691,-4.2442,-4.2442,-4.2175,-4.2008,-4.2008,-4.174,-4.2309,-4.3606,-4.4516,-4.4892,-4.4866,-4.5362,-4.5233,-4.4752,-4.4707,-4.4707,-4.477,-4.4749,-4.4553,-4.433,-4.7222,-4.7362,-4.7854,-4.9407,-4.9671,-4.9952,-5.075,-5.0873,-5.0873,-5.0891,-5.0873,-5.0873,-5.0891,-5.0891,-5.0891,-5.0891,-5.0891,-5.0891,-5.0891,-5.0891,-5.0891,0.0,0.0,-5.0504,-4.9723,-4.9706,-4.9276,-4.8425,0.0,0.0,-4.3746,0.0,-4.0533,-4.2763,-4.2798,-4.4038,-4.6161,-4.6196,-4.6196,-4.6196,-4.6196,-4.6196,-4.6196,-4.6196,-4.6196,-4.6196,-4.6196,-4.6196,-4.6196,-4.6196,-4.6196,-4.6196,-4.6196,-4.6196,-4.6196,-4.6196,-4.6196,-4.6196,-4.6196,-4.6196,-4.6196,-4.6196,-4.5617,-4.508,-4.508,-4.3904,-4.2502,-4.1429,-4.1192,-4.114,-4.0942,-4.0894,-4.0353,-3.8773,0.0,0.0,0.0,0.0,0.0,0.0,-3.4747,-3.4582,-3.6121,0.0,0.0,0.0,0.0,0.0,0.0,0.0,0.0,-3.7831,-3.9135,0.0,-3.9426,-4.0883,-4.1626,-4.1626,-4.1604,-4.1604,-4.1604,-4.1604,-4.2429,-4.3834,-4.3131,-4.3237,-4.3904,-4.3633,-4.3537,-4.3495,-4.3304,-4.3353,-4.3495,-4.3444,-4.3541,-4.3698,-4.8907,-4.9398,-4.9925,-5.0417,-5.0504,-5.0592,-5.0855,-5.0891,-5.0891,-5.0891,-5.0891,-5.0891,-5.0891,-5.0891,-5.0891,0.0,-5.0891,-5.0891,0.0,-5.0891,-5.0891,-5.0891,-5.0891,-5.0768,-5.0504,-5.0504,-5.0118,-4.9311,0.0,0.0,0.0,-4.3711,-4.3939,-4.5109,-4.5109,-4.5512,-4.6196,-4.6196,-4.6196,-4.6196,-4.6196,-4.6196,-4.6196,-4.6196,-4.6196,-4.6196,-4.6196,-4.6196,-4.6196,-4.6196,-4.6196,-4.6196,-4.6196,-4.6196,-4.6196,-4.6196,-4.6196,-4.6196,-4.6196,-4.6196,-4.6196,-4.6196,-4.6021,-4.5705,-4.522,-4.3921,-4.2705,-4.2351,-4.1707,-4.1186,-4.1134,-4.083,-4.046,-3.9956,-4.0063,0.0,0.0,0.0,0.0,0.0,0.0,-3.2883,0.0,-3.2957,0.0,0.0,0.0,0.0,0.0,0.0,0.0,0.0,-3.9378,0.0,-3.935,-4.0854,-4.1604,-4.1604,-4.1604,-4.1604,-4.1622,-4.2166,-4.2693,-4.3184,-4.343,-4.3395,-4.3126,-4.2876,-4.2474,-4.205,-4.1851,-4.1834,-4.1922,-4.1911,-4.194,-4.2056,-5.0136,-5.0539,-5.0891,-5.0891,-5.0891,-5.0891,-5.0891,-5.0891,-5.0996,-5.1277,-5.1312,-5.1417,-5.1716,-5.1778,0.0,-5.1347,-5.1312,-5.1312,-5.1312,-5.1049,-5.0891,-5.0891,-5.0891,-5.0891,-5.0891,0.0,0.0,-5.0136,-4.8872,-4.7608,-4.6379,-4.6379,-4.66,-4.7056,-4.6758,-4.6635,-4.6618,-4.6319,-4.6196,-4.6196,-4.6196,-4.6196,-4.6196,-4.6196,-4.6196,-4.6196,-4.6196,-4.6196,-4.6196,-4.6196,-4.6196,-4.6196,-4.6196,-4.6196,-4.6196,-4.6196,-4.6196,-4.6196,-4.6196,-4.6196,-4.6172,-4.6055,-4.6055,-4.5863,-4.5128,-4.4218,-4.3337,-4.2783,-4.2126,-4.1487,-4.1029,-4.0782,-4.0583,-4.037,-4.0296,-4.0009,-3.9368,0.0,0.0,0.0,0.0,0.0,0.0,-3.4704,0.0,0.0,0.0,0.0,0.0,0.0,0.0,-3.7231,-3.9901,0.0,-3.975,-4.0802,-4.1335,-4.1335,-4.1335,-4.1475,-4.1754,-4.198,-4.2242,-4.2504,-4.2678,-4.2527,-4.2062,-4.181,-4.1515,-4.1175,-4.0912,-4.1132,-4.1534,-4.1145,-4.1429,-4.2002,-5.0891,-5.0891,0.0,0.0,-5.0926,0.0,-5.0978,-5.1013,-5.1312,-5.1997,-5.2084,-5.2365,-5.3131,-5.3254,-5.2962,-5.2242,0.0,0.0,0.0,-5.1382,-5.0978,-5.0978,-5.0926,-5.0891,-5.0891,-5.0891,-5.0891,-5.0891,-5.0136,-4.9363,-4.8565,-4.8565,-4.8548,-4.846,-4.7783,-4.7467,-4.7432,-4.667,-4.6354,-4.6354,-4.6354,-4.6337,-4.6284,-4.6284,-4.6249,-4.6196,-4.6196,-4.6196,-4.6196,-4.6172,-4.6172,-4.6172,-4.6147,-4.6147,-4.6147,-4.6196,-4.6196,-4.6196,-4.6196,-4.6196,-4.6147,-4.5887,-4.5811,-4.5612,-4.4908,-4.4717,-4.4265,-4.2821,-4.2467,-4.2046,-4.0788,-4.0765,-4.0748,-4.0188,-4.0211,-3.9756,-3.8115,0.0,0.0,0.0,0.0,0.0,0.0,-3.8178,-3.8653,0.0,0.0,0.0,0.0,0.0,-3.7047,-4.0027,-4.0631,-4.0776,-4.0534,-4.0776,-4.0912,-4.0912,-4.0912,-4.1274,-4.1888,-4.1222,-4.1274,-4.1895,-4.1205,-4.0912,-4.0888,-4.0607,-4.0655,-4.0864,-4.0436,-4.1053,-4.1992,-4.1102,-4.1805,-4.3106,0.0,0.0,-5.0891,-5.0891,-5.1365,-5.1751,-5.1751,-5.226,-5.2727,-5.2874,-5.2909,-5.298,-5.3183,-5.3699,-5.3963,-5.3787,-5.3243,-5.2909,-5.2909,-5.2172,-5.1751,-5.1751,-5.1189,-5.0891,-5.0891,-5.0891,-5.0891,-5.0891,-5.0697,-5.0188,-4.9416,-4.9416,-4.9118,-4.8573,-4.8345,-4.8275,-4.8293,-4.8064,-4.7951,-4.7951,-4.7951,-4.76,-4.7116,-4.7116,-4.6748,-4.6196,-4.6196,-4.6196,-4.6172,-4.5955,-4.5887,-4.5854,-4.5649,-4.5598,-4.5675,-4.6073,-4.6196,-4.6196,-4.6196,-4.6196,-4.6172,-4.6122,-4.5955,-4.57,-4.5321,-4.4759,-4.4198,-4.3836,-4.315,-4.2355,-4.1518,-4.1214,-4.09,-4.0222,-3.9214,-3.8367,-3.7956,-3.6884,0.0,0.0,-3.5672,-3.6282,-3.7824,-3.7977,-3.7905,0.0,0.0,0.0,0.0,-3.7621,-3.843,-4.0343,-4.0728,-4.0871,-4.0799,-4.0864,-4.0912,-4.0912,-4.0912,-4.0998,-4.1153,-4.0981,-4.0998,-4.1153,-4.0981,-4.0912,-4.0888,-4.0607,-4.0607,-4.0721,-4.0429,-4.0605,-4.1078,-4.1425,-4.1859,-4.2368,-5.1954,-5.1954,-5.1954,-5.1954,-5.2277,-5.2558,-5.2558,-5.2796,-5.3096,-5.3428,-5.3317,-5.3445,-5.3987,-5.439,-5.4694,-5.4829,-5.4156,-5.3699,-5.3699,-5.298,-5.2558,-5.2558,-5.1803,-5.1345,-5.1234,-5.0857,-5.0599,-5.0443,-5.0443,-5.0216,-4.9781,-4.9781,-4.9672,-4.9396,-4.8994,-4.8934,-4.9065,-4.8679,-4.8495,-4.8495,-4.8538,-4.8293,-4.7906,-4.7906,-4.7432,-4.6765,-4.6765,-4.6495,-4.6147,-4.5887,-4.5811,-4.576,-4.5477,-4.5415,-4.5468,-4.5752,-4.5829,-4.5854,-4.598,-4.6005,-4.6005,-4.6005,-4.5727,-4.5441,-4.5415,-4.4956,-4.4499,-4.4268,-4.3769,-4.3126,-4.2262,-4.1708,-4.1197,-4.0688,-3.9073,-3.7905,-3.7905,-3.6563,0.0,-3.6563,-3.6648,-3.7263,-3.8751,-3.8903,-3.8766,-3.8445,0.0,0.0,-3.8445,-3.8819,-3.9438,-4.0279,-4.0461,-4.0517,-4.0517,-4.0517,-4.0517,-4.0517,-4.0517,-4.0705,-4.1047,-4.1047,-4.1235,-4.1543,-4.1543,-4.1543,-4.1518,-4.1367,-4.123,-4.1089,-4.0873,-4.0998,-4.1292,-4.1305,-4.1842,-4.2568,-5.3059,-5.3059,-5.3059,-5.3059,-5.3147,-5.3234,-5.3234,-5.3078,-5.3197,-5.3835,-5.3648,-5.3846,-5.483,-5.493,-5.5053,-5.5389,-5.4788,-5.4431,-5.4489,-5.377,-5.3377,-5.3377,-5.2593,-5.2026,-5.1678,-5.0826,-5.0257,-4.9982,-4.9924,-4.9895,-4.9895,-4.9895,-5.0057,-5.0278,-4.9601,-4.9443,-4.9669,-4.9004,-4.8697,-4.8715,-4.8776,-4.8706,-4.854,-4.854,-4.8119,-4.7522,-4.7522,-4.7014,-4.6347,-4.6079,-4.5873,-4.5684,-4.5424,-4.531,-4.5283,-4.5283,-4.5283,-4.5336,-4.5658,-4.5735,-4.5735,-4.5684,-4.5336,-4.5059,-4.523,-4.5096,-4.479,-4.4353,-4.4268,-4.3949,-4.3004,-4.2287,-4.1699,-4.1111,-3.9276,-3.7872,-3.7753,0.0,-3.6315,-3.7736,-3.8108,-3.8717,-3.9977,-4.0096,-4.0096,-4.0096,-4.0096,-4.0096,0.0,-4.0096,-4.0096,-4.0096,-4.0096,-4.0096,-4.0096,-4.0214,-4.0282,-4.0282,-4.0383,-4.0773,-4.1373,-4.1373,-4.1711,-4.2286,-4.2313,-4.2339,-4.2339,-4.2356,-4.2141,-4.1775,-4.1657,-4.1817,-4.2071,-4.1329,-4.1963,-4.3086,-5.2369,-5.2369,-5.2369,-5.2369,-5.2857,-5.3272,-5.3272,-5.3811,-5.4264,-5.4367,-5.4353,-5.4374,-5.4557,-5.4575,-5.4714,-5.5053,-5.4961,-5.4999,-5.5302,-5.4577,-5.4138,-5.4138,-5.3401,-5.2671,-5.1948,-5.091,-5.0369,-5.0313,-5.0057,-4.9895,-4.9895,-4.9895,-4.9924,-4.9982,-4.9861,-4.981,-4.985,-4.9746,-4.9677,-4.9677,-4.9694,-4.9314,-4.8743,-4.8743,-4.8459,-4.7988,-4.7988,-4.7666,-4.7179,-4.6899,-4.6213,-4.5415,-4.5167,-4.4913,-4.472,-4.472,-4.472,-4.4831,-4.5336,-4.5468,-4.5415,-4.5177,-4.5059,-4.4951,-4.4765,-4.4682,-4.4648,-4.4557,-4.4523,-4.4285,-4.344,-4.3203,-4.2509,-4.0587,-3.8937,-3.7686,-3.7066,0.0,-3.6924,-3.7804,-3.8988,-3.9859,-4.0079,-4.0096,-4.0096,-4.0096,-4.0096,-4.0096,-4.0096,-4.0096,-4.0096,-4.0096,-4.0096,-4.0096,-4.0096,-4.0713,-4.1035,-4.1035,-4.166,-4.2016,-4.2117,-4.2117,-4.2185,-4.2313,-4.2402,-4.2454,-4.2481,-4.2653,-4.268,-4.2603,-4.2578,-4.2706,-4.2824,-4.2696,-4.2875,-4.3086,-5.346,-5.346,-5.346,-5.346,-5.3736,-5.396,-5.396,-5.4112,-5.4239,-5.4239,-5.4063,-5.403,-5.4207,-5.4239,-5.4385,-5.4683,-5.4714,-5.4793,-5.4948,-5.4949,-5.4963,-5.4963,-5.4208,-5.3276,-5.2132,-5.106,-5.0427,-5.0232,-4.9706,-4.9411,-4.9411,-4.9411,-4.95,-4.9679,-4.9679,-4.975,-4.9895,-4.9895,-4.9895,-4.9895,-4.9895,-4.9706,-4.9378,-4.9378,-4.9015,-4.847,-4.847,-4.805,-4.7455,-4.7202,-4.6495,-4.5713,-4.5471,-4.5004,-4.4615,-4.4615,-4.4709,-4.4886,-4.5113,-4.5283,-4.5363,-4.523,-4.5113,-4.4951,-4.4831,-4.4709,-4.4615,-4.4615,-4.4615,-4.4496,-4.4113,-4.3707,-4.2946,-4.1534,-4.0062,0.0,0.0,-3.8843,-3.886,-3.9597,-4.0273,-4.0527,-4.0146,-4.0096,-4.0096,-4.0096,-4.0485,-4.0679,-4.0679,-4.1077,-4.1297,-4.1297,-4.0882,-4.0865,-4.1297,-4.161,-4.1779,-4.1796,-4.2134,-4.2506,-4.2895,-4.2895,-4.3132,-4.3548,-4.3668,-4.3749,-4.3749,-4.39,-4.3731,-4.3398,-4.3398,-4.3237,-4.3005,-4.3005,-4.3081,-4.3086,-5.4367,-5.4321,-5.4257,-5.4257,-5.4257,-5.4257,-5.4257,-5.4063,-5.3899,-5.3899,-5.3651,-5.3601,-5.3866,-5.3899,-5.403,-5.4335,-5.4367,-5.4416,-5.4512,-5.4978,-5.5269,-5.5269,-5.45,-5.3577,-5.2494,-5.1384,-5.0714,-5.0464,-4.9658,-4.9255,-4.9255,-4.9086,-4.9155,-4.9398,-4.9398,-4.95,-4.9691,-4.9691,-4.9691,-4.9691,-4.9691,-4.9691,-4.9691,-4.9691,-4.9377,-4.8965,-4.8965,-4.8494,-4.7868,-4.7643,-4.7022,-4.6322,-4.6112,-4.549,-4.4869,-4.4869,-4.4873,-4.4913,-4.4913,-4.5059,-4.5203,-4.5203,-4.5059,-4.4913,-4.4913,-4.4765,-4.4615,-4.4615,-4.4615,-4.4615,-4.4615,-4.4096,-4.3386,-4.2439,0.0,0.0,0.0,-4.0696,-4.0612,-4.1373,-4.1457,-4.1221,-4.0671,-4.062,-4.062,-4.062,-4.1145,-4.151,-4.151,-4.2078,-4.2494,-4.2664,-4.1873,-4.1728,-4.2286,-4.2472,-4.2584,-4.2627,-4.2797,-4.3196,-4.3756,-4.3756,-4.4122,-4.4709,-4.4831,-4.4886,-4.4896,-4.5049,-4.4761,-4.4247,-4.4247,-4.3983,-4.3529,-4.3382,-4.3364,-4.3345,-5.4045,-5.3784,-5.3568,-5.3568,-5.3568,-5.3568,-5.3568,-5.3568,-5.3534,-5.3534,-5.3501,-5.3501,-5.3534,-5.3534,-5.3651,-5.403,-5.4045,-5.4192,-5.448,-5.4543,-5.4575,-5.4575,-5.3798,-5.3335,-5.3205,-5.2172,-5.1609,-5.156,-5.0529,-5.0016,-4.9999,-4.9323,-4.9001,-4.9032,-4.9032,-4.9063,-4.9063,-4.9063,-4.9063,-4.9063,-4.9063,-4.9063,-4.9063,-4.9063,-4.9243,-4.9462,-4.9462,-4.9112,-4.8706,-4.8678,-4.7992,-4.7102,-4.7119,-4.6425,-4.5618,-4.5618,-4.5156,-4.4626,-4.4626,-4.4654,-4.4654,-4.4654,-4.4654,-4.4626,-4.4626,-4.4598,-4.4615,-4.4615,-4.4615,-4.4615,-4.4615,-4.4564,-4.4039,-4.2523,0.0,0.0,-4.1288,-4.1153,-4.139,-4.2117,-4.2219,-4.2185,-4.2134,-4.2134,-4.2134,-4.2134,-4.23,-4.2396,-4.2396,-4.2645,-4.3073,-4.3756,-4.2785,-4.2236,-4.2286,-4.298,-4.3406,-4.362,-4.4283,-4.4722,-4.4865,-4.4865,-4.4899,-4.4978,-4.5113,-4.515,-4.5177,-4.5318,-4.5336,-4.5284,-4.5284,-4.525,-4.5139,-4.4458,-4.4225,-4.4121,-5.4045,-5.3899,-5.38,-5.38,-5.3618,-5.3501,-5.3501,-5.3501,-5.3501,-5.3501,-5.3501,-5.3501,-5.3501,-5.3501,-5.3568,-5.3685,-5.3685,-5.3751,-5.3883,-5.3883,-5.408,-5.448,-5.4218,-5.3969,-5.3729,-5.2882,-5.233,-5.2072,-5.1214,-5.0557,-5.0084,-4.9796,-4.9441,-4.9001,-4.9001,-4.9001,-4.9001,-4.9001,-4.9001,-4.9001,-4.9001,-4.9001,-4.9001,-4.9001,-4.9063,-4.9185,-4.9185,-4.909,-4.8941,-4.8941,-4.8358,-4.7628,-4.7628,-4.706,-4.6295,-4.5838,-4.55,-4.5179,-4.4733,-4.4615,-4.4615,-4.4615,-4.4615,-4.4615,-4.4615,-4.4615,-4.4615,-4.4615,-4.4615,-4.4615,-4.4615,-4.4615,-4.4231,-4.3166,0.0,-4.3436,-4.2675,-4.2997,-4.3288,-4.3182,-4.3165,-4.3032,-4.2652,-4.2488,-4.2428,-4.2428,-4.2913,-4.3255,-4.3255,-4.3831,-4.4304,-4.4578,-4.4197,-4.3936,-4.3854,-4.4225,-4.4405,-4.4395,-4.4749,-4.4951,-4.5005,-4.5005,-4.5005,-4.5005,-4.514,-4.5203,-4.5203,-4.5327,-4.5397,-4.5397,-4.5397,-4.5397,-4.5363,-4.5096,-4.4992,-4.4889,-5.4063,-5.3932,-5.3833,-5.3833,-5.3651,-5.3501,-5.3501,-5.3501,-5.3501,-5.3501,-5.3501,-5.3501,-5.3501,-5.3501,-5.3501,-5.3501,-5.3501,-5.3501,-5.3501,-5.3501,-5.3702,-5.416,-5.4192,-5.4063,-5.3833,-5.3339,-5.2936,-5.2689,-5.1928,-5.1285,-5.0777,-5.0541,-5.005,-4.9357,-4.9357,-4.9221,-4.9001,-4.9001,-4.9001,-4.9001,-4.9001,-4.9001,-4.9001,-4.9001,-4.9001,-4.9001,-4.9001,-4.9001,-4.9001,-4.9001,-4.8663,-4.8257,-4.8257,-4.775,-4.7005,-4.6261,-4.6058,-4.5872,-4.5145,-4.4942,-4.4902,-4.4666,-4.4615,-4.4615,-4.4615,-4.4615,-4.4615,-4.4615,-4.4615,-4.4615,-4.4615,-4.4626,-4.4484,-4.3914,-4.4298,-4.4467,-4.3914,-4.4315,-4.4523,-4.4096,-4.4082,-4.3958,-4.3526,-4.3361,-4.3274,-4.3274,-4.3839,-4.419,-4.4217,-4.4803,-4.513,-4.513,-4.513,-4.5059,-4.494,-4.4995,-4.4978,-4.494,-4.5005,-4.5086,-4.513,-4.513,-4.513,-4.5113,-4.522,-4.5274,-4.5274,-4.5371,-4.5397,-4.5397,-4.5397,-4.5397,-4.5397,-4.5397,-4.5397,-4.5328,-5.4063,-5.3718,-5.3501,-5.3501,-5.3501,-5.3501,-5.3501,-5.3501,-5.3501,-5.3501,-5.3501,-5.3501,-5.3501,-5.3501,-5.3501,-5.3501,-5.3501,-5.3501,-5.3501,-5.3501,-5.3501,-5.3501,-5.3501,-5.3501,-5.3501,-5.3501,-5.3501,-5.3501,-5.2706,-5.2317,-5.2283,-5.1555,-5.0828,-5.0101,-5.0084,-4.9678,-4.9018,-4.9001,-4.9001,-4.9001,-4.9001,-4.9001,-4.9001,-4.9001,-4.9001,-4.9001,-4.9001,-4.9001,-4.9001,-4.9001,-4.9001,-4.9001,-4.9001,-4.8511,-4.7753,-4.7022,-4.6802,-4.6633,-4.5906,-4.572,-4.5534,-4.4801,-4.4615,-4.4615,-4.4615,-4.4615,-4.4615,-4.4615,-4.4615,-4.4615,-4.4615,-4.4709,-4.4803,-4.4803,-4.4803,-4.4803,-4.4803,-4.4803,-4.4803,-4.4803,-4.4913,-4.5005,-4.5005,-4.5005,-4.5005,-4.5005,-4.5123,-4.5274,-4.5397,-4.5397,-4.5397,-4.5397,-4.5397,-4.5344,-4.5203,-4.5059,-4.5059,-4.5203,-4.5203,-4.5274,-4.5397,-4.5397,-4.5397,-4.5397,-4.5397,-4.5397,-4.5397,-4.5397,-4.5397,-4.5397,-4.5397,-4.5397,-4.5397,-4.5397,-4.5397,-4.5397,-5.4063,-5.3932,-5.3833,-5.3833,-5.3734,-5.3601,-5.3501,-5.3584,-5.3601,-5.3501,-5.3501,-5.3501,-5.3501,-5.3501,-5.3501,-5.3501,-5.3501,-5.3501,-5.3501,-5.3501,-5.3501,-5.3501,-5.3501,-5.3501,-5.3501,-5.3501,-5.3501,-5.3501,-5.3264,-5.2858,-5.23,-5.208,-5.1589,-5.0862,-5.0321,-4.9965,-4.9729,-4.9221,-4.9001,-4.9001,-4.9001,-4.9001,-4.9001,-4.9001,-4.9001,-4.9001,-4.9001,-4.9001,-4.9001,-4.9001,-4.9001,-4.9001,-4.9001,-4.8849,-4.8545,-4.78,-4.7653,-4.7526,-4.6697,-4.6552,-4.6304,-4.4948,-4.4682,-4.4737,-4.4737,-4.4737,-4.4737,-4.4737,-4.4654,-4.4615,-4.4615,-4.4709,-4.4803,-4.4803,-4.4886,-4.4923,-4.4923,-4.4923,-4.4995,-4.5059,-4.5113,-4.5194,-4.5264,-4.5194,-4.514,-4.514,-4.5194,-4.5274,-4.5397,-4.5397,-4.5397,-4.5397,-4.5397,-4.5371,-4.5344,-4.5318,-4.5247,-4.5203,-4.53,-4.5371,-4.5397,-4.5397,-4.5397,-4.5397,-4.5397,-4.5397,-4.5397,-4.5397,-4.5397,-4.5397,-4.5397,-4.5397,-4.5397,-4.5397,-4.5397,-4.5397,-5.3866,-5.38,-5.38,-5.38,-5.3701,-5.3568,-5.3501,-5.3584,-5.3568,-5.3501,-5.3501,-5.3501,-5.3501,-5.3501,-5.3501,-5.3501,-5.3501,-5.3501,-5.3501,-5.3501,-5.3501,-5.3501,-5.3501,-5.3501,-5.3501,-5.3501,-5.3501,-5.3501,-5.3501,-5.3247,-5.2773,-5.2773,-5.2384,-5.1623,-5.1166,-5.0642,-5.005,-4.961,-4.9272,-4.9001,-4.9001,-4.9001,-4.9001,-4.9001,-4.9001,-4.9001,-4.9001,-4.9001,-4.9001,-4.9001,-4.9001,-4.9001,-4.9001,-4.9001,-4.8917,-4.8538,-4.8476,-4.8379,-4.7636,-4.7491,-4.726,-4.5966,-4.5456,-4.5177,-4.4926,-4.4886,-4.4886,-4.4886,-4.4803,-4.4748,-4.4748,-4.4886,-4.4951,-4.4951,-4.5032,-4.5086,-4.5086,-4.5086,-4.5113,-4.5177,-4.5247,-4.53,-4.5397,-4.5344,-4.5274,-4.5274,-4.5274,-4.53,-4.5397,-4.5397,-4.5397,-4.5397,-4.5397,-4.5397,-4.5397,-4.5397,-4.5371,-4.5274,-4.5371,-4.5397,-4.5397,-4.5397,-4.5397,-4.5397,-4.5397,-4.5397,-4.5397,-4.5397,-4.5397,-4.5397,-4.5397,-4.5397,-4.5397,-4.5397,-4.5397,-4.5397,-5.3568,-5.3501,-5.3501,-5.3501,-5.3501,-5.3501,-5.3501,-5.3501,-5.3501,-5.3501,-5.3501,-5.3501,-5.3501,-5.3501,-5.3501,-5.3501,-5.3501,-5.3501,-5.3501,-5.3501,-5.3501,-5.3501,-5.3501,-5.3501,-5.3501,-5.3501,-5.3501,-5.3501,-5.3501,-5.3501,-5.3501,-5.3501,-5.3112,-5.2401,-5.2334,-5.1555,-5.0287,-5.0219,-4.9763,-4.9103,-4.9103,-4.9069,-4.9001,-4.9001,-4.9001,-4.9001,-4.9001,-4.9001,-4.9001,-4.9001,-4.9032,-4.9032,-4.9032,-4.9032,-4.9063,-4.9199,-4.9229,-4.9154,-4.8638,-4.8526,-4.8338,-4.7598,-4.6783,-4.5954,-4.5268,-4.5056,-4.5005,-4.5005,-4.5005,-4.5005,-4.5005,-4.5113,-4.5203,-4.5203,-4.5203,-4.522,-4.522,-4.522,-4.522,-4.522,-4.5344,-4.5397,-4.5397,-4.5397,-4.5397,-4.5397,-4.5397,-4.5397,-4.5397,-4.5397,-4.5397,-4.5397,-4.5397,-4.5397,-4.5397,-4.5397,-4.5397,-4.5397,-4.5397,-4.5397,-4.5397,-4.5397,-4.5397,-4.5397,-4.5397,-4.5397,-4.5397,-4.5397,-4.5397,-4.5397,-4.5397,-4.5397,-4.5397,-4.5397,-4.5397,-4.5397,-5.3501,-5.3501,-5.3501,-5.3501,-5.3584,-5.3634,-5.3534,-5.3584,-5.3634,-5.3501,-5.3501,-5.3501,-5.3501,-5.3501,-5.3501,-5.3501,-5.3501,-5.3501,-5.3501,-5.3501,-5.3501,-5.3501,-5.3501,-5.3501,-5.3501,-5.3501,-5.3501,-5.3501,-5.3501,-5.3501,-5.3501,-5.3501,-5.3416,-5.3213,-5.2587,-5.2131,-5.1792,-5.1217,-5.0541,-4.9847,-4.9847,-4.9509,-4.9001,-4.9001,-4.9001,-4.9001,-4.9001,-4.9001,-4.9001,-4.9107,-4.926,-4.9398,-4.9398,-4.9398,-4.9398,-4.9428,-4.95,-4.9555,-4.9312,-4.9338,-4.9238,-4.8483,-4.8175,-4.7666,-4.6306,-4.5579,-4.5167,-4.5167,-4.5086,-4.5005,-4.5005,-4.5113,-4.5203,-4.5203,-4.5274,-4.5371,-4.5371,-4.5371,-4.5371,-4.5371,-4.5371,-4.5397,-4.5397,-4.5397,-4.5397,-4.5397,-4.5397,-4.5397,-4.5397,-4.5397,-4.5397,-4.5397,-4.5397,-4.5397,-4.5397,-4.5397,-4.5397,-4.5397,-4.5397,-4.5397,-4.5397,-4.5397,-4.5397,-4.5397,-4.5397,-4.5397,-4.5397,-4.5397,-4.5397,-4.5397,-4.5397,-4.5397,-4.5397,-4.5397,-4.5397,-4.5397,-5.3501,-5.3501,-5.3501,-5.3501,-5.3551,-5.3584,-5.3501,-5.3551,-5.3584,-5.3501,-5.3501,-5.3501,-5.3501,-5.3501,-5.3501,-5.3501,-5.3501,-5.3501,-5.3501,-5.3501,-5.3501,-5.3501,-5.3501,-5.3501,-5.3501,-5.3501,-5.3501,-5.3501,-5.3501,-5.3501,-5.3501,-5.3501,-5.3501,-5.3484,-5.3061,-5.2655,-5.2283,-5.1894,-5.1302,-5.0591,-5.0236,-4.9864,-4.9492,-4.9137,-4.9032,-4.9094,-4.9032,-4.9032,-4.9124,-4.9168,-4.932,-4.9518,-4.9518,-4.9518,-4.95,-4.9577,-4.9649,-4.9708,-4.9742,-4.9801,-4.9756,-4.9378,-4.8999,-4.8386,-4.7227,-4.6402,-4.5868,-4.5868,-4.5522,-4.5184,-4.5184,-4.5247,-4.53,-4.53,-4.5371,-4.5397,-4.5397,-4.5397,-4.5397,-4.5397,-4.5397,-4.5397,-4.5397,-4.5397,-4.5397,-4.5397,-4.5397,-4.5397,-4.5397,-4.5397,-4.5397,-4.5397,-4.5397,-4.5397,-4.5397,-4.5113,-4.4961,-4.4961,-4.5247,-4.5397,-4.5397,-4.5397,-4.5397,-4.5397,-4.5397,-4.5397,-4.5397,-4.5397,-4.5397,-4.5397,-4.5397,-4.5397,-4.5397,-4.5397,-4.5397,-4.5397,-5.3501,-5.3501,-5.3501,-5.3501,-5.3501,-5.3501,-5.3501,-5.3501,-5.3501,-5.3501,-5.3501,-5.3501,-5.3501,-5.3501,-5.3501,-5.3501,-5.3501,-5.3501,-5.3501,-5.3501,-5.3501,-5.3501,-5.3501,-5.3501,-5.3501,-5.3501,-5.3501,-5.3501,-5.3501,-5.3501,-5.3501,-5.3501,-5.3501,-5.3501,-5.3501,-5.3129,-5.252,-5.252,-5.208,-5.1352,-5.0727,-5.0388,-5.0202,-4.9506,-4.9311,-4.9386,-4.9158,-4.9168,-4.929,-4.929,-4.9411,-4.9577,-4.9577,-4.9577,-4.9607,-4.9725,-4.9679,-4.9602,-4.9755,-4.9742,-4.9666,-4.9801,-4.9215,-4.8506,-4.802,-4.7223,-4.657,-4.645,-4.59,-4.5402,-4.5388,-4.5397,-4.5397,-4.5397,-4.5397,-4.5397,-4.5397,-4.5397,-4.5371,-4.5264,-4.5264,-4.5291,-4.5397,-4.5397,-4.5397,-4.5397,-4.53,-4.5264,-4.5264,-4.5264,-4.5264,-4.5264,-4.5344,-4.5344,-4.5247,-4.4769,-4.4446,-4.4344,-4.4835,-4.514,-4.5247,-4.5344,-4.5397,-4.5397,-4.5397,-4.5397,-4.5397,-4.5397,-4.5397,-4.5397,-4.5291,-4.5264,-4.5264,-4.5264,-4.5318,-4.5397,-5.3501,-5.3501,-5.3501,-5.3501,-5.3501,-5.3501,-5.3501,-5.3501,-5.3501,-5.3501,-5.3501,-5.3501,-5.3501,-5.3501,-5.3501,-5.3501,-5.3501,-5.3501,-5.3501,-5.3501,-5.3501,-5.3501,-5.3501,-5.3501,-5.3501,-5.3501,-5.3501,-5.3501,-5.3501,-5.3501,-5.3501,-5.3501,-5.3501,-5.3501,-5.3501,-5.345,-5.3348,-5.3348,-5.2892,-5.2147,-5.2046,-5.1623,-5.098,-5.0428,-5.0201,-5.0178,-4.9636,-4.95,-4.9649,-4.9649,-4.9772,-4.9935,-4.9935,-4.9935,-4.9935,-4.9964,-4.9513,-4.9023,-4.9053,-4.862,-4.8304,-4.89,-4.8536,-4.8169,-4.8629,-4.7632,-4.6416,-4.5789,-4.554,-4.5456,-4.5394,-4.5397,-4.5397,-4.5397,-4.5397,-4.5397,-4.5397,-4.5397,-4.5194,-4.4669,-4.4614,-4.4824,-4.5344,-4.5397,-4.5397,-4.5397,-4.4906,-4.4614,-4.4614,-4.4614,-4.4614,-4.4614,-4.514,-4.514,-4.4614,-4.453,-4.4202,-4.363,-4.3718,-4.4054,-4.4642,-4.5167,-4.5397,-4.5397,-4.5397,-4.5397,-4.5397,-4.5397,-4.5397,-4.5344,-4.4824,-4.4614,-4.4614,-4.4614,-4.4934,-4.5397,-5.3501,-5.3501,-5.3501,-5.3501,-5.3501,-5.3501,-5.3501,-5.3501,-5.3501,-5.3501,-5.3501,-5.3501,-5.3501,-5.3501,-5.3501,-5.3501,-5.3501,-5.3501,-5.3501,-5.3501,-5.3501,-5.3501,-5.3501,-5.3501,-5.3501,-5.3501,-5.3501,-5.3501,-5.3501,-5.3501,-5.3501,-5.3501,-5.3517,-5.3601,-5.3601,-5.3668,-5.3767,-5.3767,-5.3497,-5.3074,-5.2765,-5.2131,-5.1279,-5.0738,-5.0582,-5.064,-5.0393,-5.0026,-4.9708,-4.9708,-4.9813,-5.0011,-5.0011,-5.0011,-5.0011,-5.0011,-4.9483,-4.8883,-4.8883,-4.8415,-4.7982,-4.8272,-4.8112,-4.7885,-4.7754,-4.7193,-4.6612,-4.6257,-4.5851,-4.5529,-4.5456,-4.5448,-4.5422,-4.5413,-4.5397,-4.5397,-4.5397,-4.5113,-4.4669,-4.4013,-4.4288,-4.4586,-4.4879,-4.5194,-4.5247,-4.4906,-4.4642,-4.4344,-4.3968,-4.3939,-4.3939,-4.3939,-4.4197,-4.4197,-4.3939,-4.3604,-4.3306,-4.2986,-4.2986,-4.332,-4.3939,-4.4226,-4.4356,-4.4356,-4.4356,-4.4541,-4.4906,-4.4906,-4.4906,-4.4879,-4.4586,-4.4288,-4.3939,-4.3939,-4.4112,-4.4356]},{"header":{"parameterUnit":"m.s-1","parameterCategory":1,"la1":30.6,"la2":28.766,"lo1":-90.7593,"lo2":-88.6598,"dy":0.0162,"dx":0.0183,"nx":116,"ny":114,"refTime":"2024-03-24T12:00:00:Z","depth":0,"parameterNumber":3,"parameterNumberName":"V-component_of_WINDS"},"data":[0.0,0.0,0.0,0.0,0.0,0.0,0.0,0.0,0.0,0.0,0.0,0.0,0.0,0.0,0.0,0.0,0.0,0.0,0.0,0.0,0.0,0.0,0.0,0.0,0.0,0.0,0.0,0.0,0.0,0.0,0.0,0.0,0.0,0.0,0.0,0.0,0.0,0.0,0.0,0.0,0.0,0.0,0.0,0.0,0.0,0.0,0.0,0.0,0.0,0.0,0.0,0.0,0.0,0.0,0.0,0.0,0.0,0.0,0.0,0.0,0.0,0.0,0.0,0.0,0.0,0.0,0.0,0.0,0.0,0.0,0.0,0.0,0.0,0.0,0.0,0.0,0.0,0.0,0.0,0.0,0.0,0.0,0.0,0.0,0.0,0.0,0.0,0.0,0.0,0.0,0.0,0.0,0.0,0.0,0.0,0.0,0.0,0.0,0.0,0.0,0.0,0.0,0.0,0.0,0.0,0.0,0.0,0.0,0.0,0.0,0.0,0.0,0.0,0.0,0.0,0.0,0.0,0.0,0.0,0.0,0.0,0.0,0.0,0.0,0.0,0.0,0.0,0.0,0.0,0.0,0.0,0.0,0.0,0.0,0.0,0.0,0.0,0.0,0.0,0.0,0.0,0.0,0.0,0.0,0.0,0.0,0.0,0.0,0.0,0.0,0.0,0.0,0.0,0.0,0.0,0.0,0.0,0.0,0.0,0.0,0.0,0.0,0.0,0.0,0.0,0.0,0.0,0.0,0.0,0.0,0.0,0.0,0.0,0.0,0.0,0.0,0.0,0.0,0.0,0.0,0.0,0.0,0.0,0.0,0.0,0.0,0.0,0.0,0.0,0.0,0.0,0.0,0.0,0.0,0.0,0.0,0.0,0.0,0.0,0.0,0.0,0.0,0.0,0.0,0.0,0.0,0.0,0.0,0.0,0.0,0.0,0.0,0.0,0.0,0.0,0.0,0.0,0.0,0.0,0.0,0.0,0.0,0.0,0.0,0.0,0.0,0.0,0.0,0.0,0.0,0.0,0.0,0.0,0.0,0.0,0.0,0.0,0.0,0.0,0.0,0.0,0.0,0.0,0.0,0.0,0.0,0.0,0.0,0.0,0.0,0.0,0.0,0.0,0.0,0.0,0.0,0.0,0.0,0.0,0.0,0.0,0.0,0.0,0.0,0.0,0.0,0.0,0.0,0.0,0.0,0.0,0.0,0.0,0.0,0.0,0.0,0.0,0.0,0.0,0.0,0.0,0.0,0.0,0.0,0.0,0.0,0.0,0.0,0.0,0.0,0.0,0.0,0.0,0.0,0.0,0.0,0.0,0.0,0.0,0.0,0.0,0.0,0.0,0.0,0.0,0.0,0.0,0.0,0.0,0.0,0.0,0.0,0.0,0.0,0.0,0.0,0.0,0.0,0.0,0.0,0.0,0.0,0.0,0.0,0.0,0.0,0.0,0.0,0.0,0.0,0.0,0.0,0.0,0.0,0.0,0.0,0.0,0.0,0.0,0.0,0.0,0.0,0.0,0.0,0.0,0.0,0.0,0.0,0.0,0.0,0.0,0.0,0.0,0.0,0.0,0.0,0.0,0.0,0.0,0.0,0.0,0.0,0.0,0.0,0.0,0.0,0.0,0.0,0.0,0.0,0.0,0.0,0.0,0.0,0.0,0.0,0.0,0.0,0.0,0.0,0.0,0.0,0.0,0.0,0.0,0.0,0.0,0.0,0.0,0.0,0.0,0.0,0.0,0.0,0.0,0.0,0.0,0.0,0.0,0.0,0.0,0.0,0.0,0.0,0.0,0.0,0.0,0.0,0.0,0.0,0.0,0.0,0.0,0.0,0.0,0.0,0.0,0.0,0.0,0.0,0.0,0.0,0.0,0.0,0.0,0.0,0.0,0.0,0.0,0.0,0.0,0.0,0.0,0.0,0.0,0.0,0.0,0.0,0.0,0.0,0.0,0.0,0.0,0.0,0.0,0.0,0.0,0.0,0.0,0.0,0.0,0.0,0.0,0.0,0.0,0.0,0.0,0.0,0.0,0.0,0.0,0.0,0.0,0.0,0.0,0.0,0.0,0.0,0.0,0.0,0.0,0.0,0.0,0.0,0.0,0.0,0.0,0.0,0.0,0.0,0.0,0.0,0.0,0.0,0.0,0.0,0.0,0.0,0.0,0.0,0.0,0.0,0.0,0.0,0.0,0.0,0.0,0.0,0.0,0.0,0.0,0.0,0.0,0.0,0.0,0.0,0.0,0.0,0.0,0.0,0.0,0.0,0.0,0.0,0.0,0.0,0.0,0.0,0.0,0.0,0.0,0.0,0.0,0.0,0.0,0.0,0.0,0.0,0.0,0.0,0.0,0.0,0.0,0.0,0.0,0.0,0.0,0.0,0.0,0.0,0.0,0.0,0.0,0.0,0.0,0.0,0.0,0.0,0.0,0.0,0.0,0.0,0.0,0.0,0.0,0.0,0.0,0.0,0.0,0.0,0.0,0.0,0.0,0.0,0.0,0.0,0.0,0.0,0.0,0.0,0.0,0.0,0.0,0.0,0.0,0.0,0.0,0.0,0.0,0.0,0.0,0.0,0.0,0.0,0.0,0.0,0.0,0.0,0.0,0.0,0.0,0.0,0.0,0.0,0.0,0.0,0.0,0.0,0.0,0.0,0.0,0.0,0.0,0.0,0.0,0.0,0.0,0.0,0.0,0.0,0.0,0.0,0.0,0.0,0.0,0.0,0.0,0.0,0.0,0.0,0.0,0.0,0.0,0.0,0.0,0.0,0.0,0.0,0.0,0.0,0.0,0.0,0.0,0.0,0.0,0.0,0.0,0.0,0.0,0.0,0.0,0.0,0.0,0.0,0.0,0.0,0.0,0.0,0.0,0.0,0.0,0.0,0.0,0.0,0.0,0.0,0.0,0.0,0.0,0.0,0.0,0.0,0.0,0.0,0.0,0.0,0.0,0.0,0.0,0.0,0.0,0.0,0.0,0.0,0.0,0.0,0.0,0.0,0.0,0.0,0.0,0.0,0.0,0.0,0.0,0.0,0.0,0.0,0.0,0.0,0.0,0.0,0.0,0.0,0.0,0.0,0.0,0.0,0.0,0.0,0.0,0.0,0.0,0.0,0.0,0.0,0.0,0.0,0.0,0.0,0.0,0.0,0.0,0.0,0.0,0.0,0.0,0.0,0.0,0.0,0.0,0.0,0.0,0.0,0.0,0.0,0.0,0.0,0.0,0.0,0.0,0.0,0.0,0.0,0.0,0.0,0.0,0.0,0.0,0.0,0.0,0.0,0.0,0.0,0.0,0.0,0.0,0.0,0.0,0.0,0.0,0.0,0.0,0.0,0.0,0.0,0.0,0.0,0.0,0.0,0.0,0.0,0.0,0.0,0.0,0.0,0.0,0.0,0.0,0.0,0.0,0.0,0.0,0.0,0.0,0.0,0.0,0.0,0.0,0.0,0.0,0.0,0.0,0.0,0.0,0.0,0.0,0.0,0.0,0.0,0.0,0.0,0.0,0.0,0.0,0.0,0.0,0.0,0.0,0.0,0.0,0.0,0.0,0.0,0.0,0.0,0.0,0.0,0.0,0.0,0.0,0.0,0.0,0.0,0.0,0.0,0.0,0.0,0.0,0.0,0.0,0.0,0.0,0.0,0.0,0.0,0.0,0.0,0.0,0.0,0.0,0.0,0.0,0.0,0.0,0.0,0.0,0.0,0.0,0.0,0.0,0.0,0.0,0.0,0.0,0.0,0.0,0.0,0.0,0.0,0.0,0.0,0.0,0.0,0.0,0.0,0.0,0.0,0.0,0.0,0.0,0.0,0.0,0.0,0.0,0.0,0.0,0.0,0.0,0.0,0.0,0.0,0.0,0.0,0.0,0.0,0.0,0.0,0.0,0.0,0.0,0.0,0.0,0.0,0.0,0.0,0.0,0.0,0.0,0.0,0.0,0.0,0.0,0.0,0.0,0.0,0.0,0.0,0.0,0.0,0.0,0.0,0.0,0.0,0.0,0.0,0.0,0.0,0.0,0.0,0.0,0.0,0.0,0.0,0.0,0.0,0.0,0.0,0.0,0.0,0.0,0.0,0.0,0.0,0.0,0.0,0.0,0.0,0.0,0.0,0.0,0.0,0.0,0.0,0.0,0.0,0.0,0.0,0.0,0.0,0.0,0.0,0.0,0.0,0.0,0.0,0.0,0.0,0.0,0.0,0.0,0.0,0.0,0.0,0.0,0.0,0.0,0.0,0.0,0.0,0.0,0.0,0.0,0.0,0.0,0.0,0.0,0.0,0.0,0.0,0.0,0.0,0.0,0.0,0.0,0.0,0.0,0.0,0.0,0.0,0.0,0.0,0.0,0.0,0.0,0.0,0.0,0.0,0.0,0.0,0.0,0.0,0.0,0.0,0.0,0.0,0.0,0.0,0.0,0.0,0.0,0.0,0.0,0.0,0.0,0.0,0.0,0.0,0.0,0.0,0.0,0.0,0.0,0.0,0.0,0.0,0.0,0.0,0.0,0.0,0.0,0.0,0.0,0.0,0.0,0.0,0.0,0.0,0.0,0.0,0.0,0.0,0.0,0.0,0.0,0.0,0.0,0.0,0.0,0.0,0.0,0.0,0.0,0.0,0.0,0.0,0.0,0.0,0.0,0.0,0.0,0.0,0.0,0.0,0.0,0.0,0.0,0.0,0.0,0.0,0.0,0.0,0.0,0.0,0.0,0.0,0.0,0.0,0.0,0.0,0.0,0.0,0.0,0.0,0.0,0.0,0.0,0.0,0.0,0.0,0.0,0.0,0.0,0.0,0.0,0.0,0.0,0.0,0.0,0.0,0.0,0.0,0.0,0.0,0.0,0.0,0.0,0.0,0.0,0.0,0.0,0.0,0.0,0.0,0.0,0.0,0.0,0.0,0.0,0.0,0.0,0.0,0.0,0.0,0.0,0.0,0.0,0.0,0.0,0.0,0.0,0.0,0.0,0.0,0.0,0.0,0.0,0.0,0.0,0.0,0.0,0.0,0.0,0.0,0.0,0.0,0.0,0.0,0.0,0.0,0.0,0.0,0.0,0.0,0.0,0.0,0.0,0.0,0.0,0.0,0.0,0.0,0.0,0.0,0.0,0.0,0.0,0.0,0.0,0.0,0.0,0.0,0.0,0.0,0.0,0.0,0.0,0.0,0.0,0.0,0.0,0.0,0.0,0.0,0.0,0.0,0.0,0.0,0.0,0.0,0.0,0.0,0.0,0.0,0.0,0.0,0.0,0.0,0.0,0.0,0.0,0.0,0.0,0.0,0.0,0.0,0.0,0.0,0.0,0.0,0.0,0.0,0.0,0.0,0.0,0.0,0.0,0.0,0.0,0.0,0.0,0.0,0.0,0.0,0.0,0.0,0.0,0.0,0.0,0.0,0.0,0.0,0.0,0.0,0.0,0.0,0.0,0.0,0.0,0.0,0.0,0.0,0.0,0.0,0.0,0.0,0.0,0.0,0.0,0.0,0.0,0.0,0.0,0.0,0.0,0.0,0.0,0.0,0.0,0.0,0.0,0.0,0.0,0.0,0.0,0.0,0.0,0.0,0.0,0.0,0.0,0.0,0.0,0.0,0.0,0.0,0.0,0.0,0.0,0.0,0.0,0.0,0.0,0.0,0.0,0.0,0.0,0.0,0.0,0.0,0.0,0.0,0.0,0.0,0.0,0.0,0.0,0.0,0.0,0.0,0.0,0.0,0.0,0.0,0.0,0.0,0.0,0.0,0.0,0.0,0.0,0.0,0.0,0.0,0.0,0.0,0.0,0.0,0.0,0.0,0.0,0.0,0.0,0.0,0.0,0.0,0.0,0.0,0.0,0.0,0.0,0.0,0.0,0.0,0.0,0.0,0.0,0.0,0.0,0.0,0.0,0.0,0.0,0.0,0.0,0.0,0.0,0.0,0.0,0.0,0.0,0.0,0.0,0.0,0.0,0.0,0.0,0.0,0.0,0.0,0.0,0.0,0.0,0.0,0.0,0.0,0.0,0.0,0.0,0.0,0.0,0.0,0.0,0.0,0.0,0.0,0.0,0.0,0.0,0.0,0.0,0.0,0.0,0.0,0.0,0.0,0.0,0.0,0.0,0.0,-0.3538,0.0,0.0,0.0,0.0,0.0,0.0,0.0,0.0,0.0,0.0,0.0,0.0,0.0,0.0,0.0,0.0,0.0,0.0,0.0,0.0,0.0,0.0,0.0,0.0,0.0,0.1746,0.1055,0.092,0.0606,-0.0045,-0.0225,0.0,0.0,0.0,0.0,-0.0202,-0.036,-0.0366,-0.019,-0.0461,-0.02,0.0567,0.0582,0.1057,0.1895,0.0,0.0,0.0,0.0,0.0,0.0,0.0,0.0,0.0,0.0,0.0,0.0,0.0,0.0,0.0,0.0,0.0,0.0,0.0,0.0,0.0,0.0,0.0,0.0,0.0,0.0,0.0,0.0,0.0,0.0,0.0,0.0,0.0,0.0,0.0,0.0,0.0,0.0,0.0,0.0,0.0,0.0,0.0,0.0,0.0,0.0,0.0,0.0,0.0,0.0,0.0,0.0,0.0,0.0,0.0,0.0,0.0,0.0,0.0,0.0,0.0,0.0,0.0,0.0,0.0,0.0,0.0,0.0,0.0,0.0,0.0,-0.3471,0.0,0.0,0.0,0.0,0.0,0.0,0.0,0.0,0.0,0.0,0.0,0.0,0.0,0.0,0.0,0.0,0.0,0.0,0.0,0.0,0.0,0.3284,0.2593,0.26,0.2314,0.1418,0.1204,0.0771,-0.0068,-0.0248,-0.027,-0.0135,-0.0292,-0.0315,-0.0202,-0.034,-0.0282,0.0,-0.0078,0.0244,0.0867,0.1563,0.2473,0.3485,0.262,0.0,0.0,0.0,0.0,0.0,0.0,0.0,0.0,0.0,0.0,0.0,0.0,0.0,0.0,0.0,0.0,0.0,0.0,0.0,0.0,0.0,0.0,0.0,0.0,0.0,0.0,0.0,0.0,0.0,0.0,0.0,0.0,0.0,0.0,0.0,0.0,0.0,0.0,0.0,0.0,0.0,0.0,0.0,0.0,0.0,0.0,0.0,0.0,0.0,0.0,0.0,0.0,0.0,0.0,0.0,0.0,0.0,0.0,0.0,0.0,0.0,0.0,0.0,-0.2442,-0.2329,-0.2551,-0.2373,-0.206,-0.174,-0.2466,-0.2826,-0.2941,0.0,0.0,0.0,0.0,0.0,0.0,0.0,0.0,0.0,0.0,0.0,0.0,0.0,0.0,0.0,0.0,0.0,0.0,0.0,0.0,0.3302,0.3416,0.2897,0.2247,0.1531,0.1347,0.0946,0.019,0.0023,0.0,0.0135,-0.009,-0.0225,-0.0202,-0.0326,-0.0024,0.0756,0.1535,0.2168,0.2661,0.2363,0.2875,0.3944,0.2615,0.201,0.2024,0.0,0.0,0.0,0.0,0.0,0.0,0.0,0.0,0.0,0.0,0.0,0.0,0.0,0.0,0.0,0.0,0.0,0.0,0.0,0.0,0.0,0.0,0.0,0.0,0.0,0.0,0.0,0.0,0.0,0.0,0.0,0.0,0.0,0.0,0.0,0.0,0.0,0.0,0.0,0.0,0.0,-0.1803,-0.1747,0.0,0.0,0.0,0.0,0.0,0.0,0.0,0.0,0.0,0.0,0.0,0.0,0.0,0.0,-0.309,-0.2543,-0.226,-0.2236,-0.1751,-0.1551,-0.1587,-0.1731,-0.1753,-0.1722,-0.181,0.0,-0.3028,-0.3532,0.0,0.0,0.0,0.0,0.0,0.0,0.0,0.0,0.0,0.0,0.0,0.0,0.0,0.0,0.0,0.0,0.0,0.0,0.0,0.0,0.0,0.3822,0.3487,0.2838,0.221,0.1579,0.0915,0.0196,-0.0166,-0.0023,-0.0137,-0.0205,-0.0209,0.0222,0.0805,0.1584,0.2541,0.3088,0.3163,0.3513,0.3932,0.4418,0.3808,0.3305,0.2991,0.3163,0.0,0.0,0.0,0.0,0.0,0.0,0.0,0.0,0.0,0.0,0.0,0.0,0.0,0.0,0.0,0.0,0.0,0.0,0.0,0.0,0.0,0.0,0.0,0.0,0.0,0.0,0.0,0.0,0.0,0.0,0.0,0.0,0.0,0.0,0.0,0.0,0.0,0.0,0.0,-0.1275,-0.1343,-0.1165,-0.1161,-0.1076,0.0,0.0,0.0,0.0,0.0,0.0,0.0,0.0,0.0,-0.1793,-0.1631,-0.1648,-0.1864,-0.1611,-0.1535,-0.1663,-0.1444,-0.1347,-0.1348,-0.1439,-0.1484,-0.1484,-0.1484,-0.194,-0.2732,-0.2739,-0.3402,-0.4434,0.0,0.0,0.0,0.0,0.0,-0.51,0.0,0.0,0.0,0.0,0.0,0.0,0.0,0.0,0.0,0.0,0.0,0.0,0.4308,0.4543,0.4449,0.3848,0.3074,0.2404,0.1828,0.0675,0.0075,0.017,0.0117,0.0046,-0.0024,0.1027,0.1907,0.2536,0.3448,0.3832,0.3743,0.4449,0.4783,0.4783,0.4783,0.4526,0.4106,0.4026,0.3778,0.3469,0.0,0.0,0.0,0.0,0.0,0.0,0.0,0.0,0.0,0.0,0.0,0.0,0.0,0.0,0.0,0.0,0.0,0.0,0.0,0.0,0.0,0.0,0.0,0.0,0.0,0.0,0.0,0.0,0.0,0.0,0.0,0.0,0.0,0.0,0.0,0.0,0.0,-0.1056,-0.1067,-0.0841,-0.0876,-0.0797,0.0,0.0,0.0,0.0,0.0,0.0,-0.0862,-0.0454,-0.047,-0.0952,-0.069,-0.064,-0.0834,-0.0904,-0.104,-0.1241,-0.1281,-0.1281,-0.1281,-0.1281,-0.1281,-0.1281,-0.1281,-0.164,-0.2183,-0.2061,-0.2761,-0.3934,-0.3697,-0.4236,-0.5161,-0.5339,-0.541,-0.5416,0.0,0.0,0.0,0.0,0.0,0.0,0.0,0.0,0.0,0.0,0.0,0.4524,0.4566,0.4657,0.4461,0.3865,0.3626,0.3331,0.2861,0.1811,0.123,0.1228,0.0992,0.0736,0.0475,0.206,0.3178,0.3731,0.439,0.4809,0.4919,0.496,0.4999,0.4999,0.4999,0.486,0.4654,0.4523,0.4368,0.4199,0.3895,0.0,0.0,0.0,0.0,0.0,0.0,0.0,0.0,0.0,0.0,0.0,0.0,0.0,0.0,0.0,0.0,0.0,0.0,0.0,0.0,0.0,0.0,0.0,0.0,0.0,0.0,0.0,0.0,0.0,0.0,0.0,0.0,0.0,0.0,0.0,0.0,0.0,0.0,-0.0833,-0.0928,0.0,0.0,0.0,0.0,-0.0351,-0.0428,-0.044,-0.0347,-0.0321,-0.0408,-0.0622,-0.0599,-0.0614,-0.0627,-0.088,-0.1007,-0.1007,-0.1218,-0.1302,-0.1302,-0.1302,-0.1302,-0.1302,-0.1302,-0.1343,-0.1419,-0.2017,-0.2776,-0.3532,-0.3369,-0.3857,-0.4626,-0.4439,-0.4861,-0.5462,0.0,0.0,0.0,0.0,0.0,0.0,0.4236,0.4194,0.4195,0.4116,0.4372,0.459,0.4649,0.4952,0.5092,0.4981,0.4391,0.3969,0.3799,0.2582,0.192,0.2003,0.1741,0.1888,0.2488,0.2925,0.3597,0.4584,0.4816,0.4936,0.5018,0.5018,0.5018,0.5018,0.5018,0.4969,0.4874,0.4709,0.4599,0.4531,0.4134,0.3841,0.0,0.0,0.0,0.0,0.0,0.0,0.0,0.0,0.0,0.0,0.0,0.0,0.0,0.0,0.0,0.0,0.0,0.0,0.0,0.0,0.0,0.0,0.0,0.0,0.0,0.0,0.0,0.0,0.0,0.0,0.0,0.0,0.0,0.0,0.0,0.0,0.0,-0.0896,-0.1011,0.0,0.0,-0.0565,-0.0475,-0.0314,-0.0218,-0.0151,-0.0116,-0.0119,-0.0121,-0.0205,-0.0207,-0.0292,-0.0421,-0.0505,-0.0716,-0.1011,-0.1053,-0.1179,-0.1305,-0.1305,-0.1305,-0.1305,-0.1305,-0.1305,-0.1304,-0.1558,-0.2158,-0.2921,-0.2816,-0.333,-0.4151,-0.4599,-0.4847,-0.5024,0.0,0.0,0.0,0.0,0.0,0.0,0.4236,0.4244,0.4274,0.42,0.4511,0.4794,0.4983,0.5344,0.5567,0.5588,0.5032,0.465,0.4564,0.3357,0.2649,0.2708,0.2461,0.2851,0.3954,0.3783,0.4152,0.5072,0.5072,0.5097,0.5135,0.5135,0.5135,0.5135,0.5135,0.5113,0.5064,0.4939,0.4849,0.4786,0.4428,0.4153,0.395,0.0,0.0,0.0,0.0,0.0,0.0,0.0,0.0,0.0,0.0,0.0,0.0,0.0,0.0,0.0,0.0,0.0,0.0,0.0,0.0,0.0,0.0,0.0,0.0,0.0,0.0,0.0,0.0,0.0,0.0,0.0,0.0,0.0,0.0,0.0,-0.122,-0.0933,-0.1107,-0.1051,-0.0642,-0.0546,-0.0448,-0.0306,-0.0158,-0.0081,0.0,0.0,0.0,0.0,0.0,-0.0044,-0.0176,-0.0308,-0.0528,-0.0924,-0.1012,-0.1144,-0.1364,-0.1364,-0.1364,-0.1364,-0.1354,-0.1349,-0.1348,-0.1328,-0.1686,-0.2195,-0.2108,-0.2608,-0.3441,-0.4007,-0.4272,-0.4491,0.0,0.0,0.0,0.0,0.0,0.4692,0.436,0.4317,0.4373,0.4566,0.4819,0.5157,0.556,0.5782,0.5822,0.5617,0.5462,0.5299,0.5087,0.4132,0.348,0.3355,0.3153,0.3563,0.4684,0.4701,0.4876,0.5186,0.5189,0.5292,0.541,0.541,0.541,0.541,0.541,0.5344,0.5192,0.5192,0.5127,0.5002,0.4797,0.4558,0.4284,0.0,0.0,0.0,0.0,0.0,0.0,0.0,0.0,0.0,0.0,0.0,0.0,0.0,0.0,0.0,0.0,0.0,0.0,0.0,0.0,0.0,0.0,0.0,0.0,0.0,0.0,0.0,0.0,0.0,0.0,0.0,0.0,0.0,-0.1112,-0.1272,-0.1279,-0.0951,-0.1147,-0.1102,-0.0669,-0.0804,-0.074,-0.0337,-0.0295,-0.0211,0.0,0.0,0.0,0.0,0.0,0.0,0.0,-0.0238,-0.0524,-0.0811,-0.1001,-0.124,-0.1478,-0.1478,-0.1478,-0.1477,-0.1495,-0.1482,-0.1478,-0.1418,-0.1394,-0.1391,-0.1317,-0.1808,-0.2552,-0.2578,-0.3123,-0.3879,0.0,0.0,0.0,0.0,0.0,0.4806,0.4364,0.4373,0.4414,0.433,0.4683,0.5064,0.5428,0.5585,0.562,0.5458,0.546,0.5308,0.49,0.4593,0.4389,0.4257,0.4131,0.4321,0.4744,0.4801,0.4973,0.5186,0.5317,0.5377,0.541,0.541,0.541,0.541,0.541,0.5394,0.5361,0.5361,0.5249,0.5127,0.4977,0.477,0.4583,0.0,0.0,0.0,0.0,0.0,0.0,0.0,0.0,0.0,0.0,0.0,0.0,0.0,0.0,0.0,0.0,0.0,0.0,0.0,0.0,0.0,0.0,0.0,0.0,0.0,0.0,0.0,0.0,0.0,0.0,0.0,0.0,-0.1167,-0.118,-0.1269,-0.1279,-0.1184,-0.1259,-0.124,-0.1116,-0.0873,-0.072,-0.0616,-0.0265,-0.0045,0.0,0.0,0.0,0.0,0.0,0.0,0.0,-0.0095,-0.0238,-0.0524,-0.0572,-0.0715,-0.0906,-0.1144,-0.1192,-0.124,-0.1423,-0.1513,-0.1513,-0.1495,-0.1489,-0.1479,-0.1341,-0.1432,-0.1723,-0.2376,-0.3116,-0.4022,0.0,0.0,0.0,0.0,0.0,0.4854,0.4456,0.451,0.4575,0.4508,0.4718,0.5116,0.5625,0.5708,0.5719,0.5723,0.5575,0.5292,0.4855,0.4701,0.467,0.4789,0.468,0.4728,0.498,0.4999,0.5119,0.5339,0.5412,0.5472,0.5521,0.5521,0.5521,0.5521,0.5521,0.5494,0.5445,0.5445,0.5374,0.5252,0.5135,0.4944,0.4764,0.4837,0.4604,0.4265,0.4367,0.4257,0.4077,0.4038,0.0,0.0,0.0,0.0,0.0,0.0,0.0,0.0,0.0,0.0,0.0,0.0,0.0,0.0,0.0,0.0,0.0,0.0,0.0,0.0,0.0,0.0,0.0,0.0,-0.118,-0.1234,-0.1241,-0.1273,-0.1302,-0.1319,-0.1316,-0.1298,-0.1211,-0.1012,-0.0808,-0.0597,-0.0322,-0.014,0.0,0.0,0.0,0.0,0.0,0.0,0.0,0.0,-0.0147,-0.0391,-0.0391,-0.0537,-0.0733,-0.088,-0.0977,0.0,-0.1163,-0.1207,-0.1206,-0.1292,-0.1335,0.0,0.0,0.0,0.0,0.0,-0.2621,-0.3521,0.0,0.0,0.0,0.0,0.0,0.4898,0.4565,0.4647,0.4786,0.4898,0.4935,0.5241,0.5992,0.5978,0.5954,0.6115,0.5704,0.5305,0.5029,0.4661,0.4641,0.5147,0.4957,0.4958,0.5181,0.52,0.532,0.5508,0.5521,0.5583,0.5688,0.5733,0.5733,0.5688,0.5777,0.5714,0.557,0.5613,0.5544,0.5505,0.5352,0.5125,0.4871,0.5043,0.4862,0.4566,0.4748,0.4642,0.4379,0.4332,0.0,0.0,0.0,0.0,0.0,0.0,0.0,0.0,0.0,0.0,0.0,0.0,0.0,0.0,0.0,0.0,0.0,0.0,0.0,0.0,0.0,0.0,0.0,0.0,-0.1269,-0.1292,-0.1307,-0.1318,-0.1319,-0.1315,-0.1366,-0.1355,-0.1174,-0.1167,-0.1002,-0.0526,-0.0478,-0.0335,-0.0048,0.0,0.0,0.0,0.0,0.0,0.0,0.0,-0.0101,-0.0354,-0.0354,-0.0455,-0.0707,-0.0758,-0.0758,-0.0757,-0.0794,-0.0788,-0.0836,-0.1015,-0.115,-0.1193,-0.1404,-0.1486,-0.1525,-0.1558,-0.1947,0.0,0.0,0.0,0.0,0.0,0.0,0.4893,0.4622,0.4886,0.5085,0.5073,0.5217,0.5479,0.5899,0.5911,0.5855,0.5716,0.5734,0.5679,0.5632,0.5384,0.535,0.5569,0.5343,0.5199,0.5184,0.5325,0.5407,0.5508,0.5605,0.5664,0.5688,0.5908,0.5908,0.5733,0.6083,0.6154,0.6001,0.6175,0.6188,0.6114,0.5868,0.5496,0.5108,0.5054,0.4991,0.4912,0.495,0.4936,0.4825,0.4538,0.4323,0.4003,0.3275,0.2829,0.0,0.0,0.0,0.0,0.0,0.0,0.0,0.0,0.0,0.0,0.0,0.0,0.0,0.0,0.0,0.0,0.0,0.0,0.0,-0.1268,-0.135,-0.1377,-0.1369,-0.144,-0.1446,-0.1377,-0.1426,-0.1461,-0.1414,-0.1281,-0.1152,-0.1073,-0.083,-0.059,-0.0349,-0.0301,0.0,0.0,0.0,0.0,0.0,0.0,-0.0051,-0.0101,0.0,0.0,-0.0152,-0.0354,-0.0455,-0.0505,-0.0704,-0.0804,-0.0804,-0.1051,-0.1287,-0.1511,-0.1481,-0.1517,-0.1611,-0.2396,-0.2265,-0.1952,0.0,0.0,0.0,0.0,0.0,0.521,0.4775,0.4984,0.5144,0.4969,0.5129,0.534,0.5522,0.5614,0.5646,0.5639,0.5629,0.5589,0.5534,0.5472,0.5464,0.5638,0.544,0.5292,0.5314,0.538,0.5458,0.5599,0.5659,0.5777,0.5908,0.6041,0.6083,0.6083,0.6299,0.6343,0.6257,0.6343,0.6395,0.6331,0.626,0.5981,0.5513,0.5331,0.5145,0.5018,0.5129,0.5012,0.481,0.4673,0.4503,0.425,0.3743,0.3542,0.3358,0.0,0.0,0.0,0.0,0.0,0.0,0.0,0.0,0.0,0.0,0.0,0.0,0.0,0.0,-0.1125,-0.1136,0.0,-0.1254,-0.1355,-0.1373,-0.1429,-0.1428,-0.1507,-0.1515,-0.1438,-0.1521,-0.1549,-0.1549,-0.1465,-0.1331,-0.1195,-0.1105,-0.0913,-0.0666,-0.0672,-0.0517,-0.0205,-0.0205,-0.0153,0.0,0.0,0.0,0.0,-0.0152,-0.0152,0.0,-0.0404,-0.0505,-0.0404,-0.0707,-0.0808,-0.0808,-0.1111,-0.1356,-0.1593,-0.1577,-0.1553,-0.1574,-0.205,-0.1942,-0.1691,0.0,0.0,0.0,0.0,0.0,0.5545,0.5058,0.5116,0.5142,0.4956,0.5057,0.5205,0.5227,0.5339,0.5461,0.5578,0.5577,0.5493,0.5428,0.5454,0.5557,0.5744,0.5518,0.5399,0.5363,0.5413,0.5531,0.5644,0.5733,0.5908,0.6083,0.6171,0.6302,0.6384,0.6476,0.652,0.6476,0.652,0.6564,0.6599,0.662,0.6387,0.5995,0.5705,0.5333,0.5048,0.5135,0.4996,0.4709,0.4652,0.4528,0.438,0.4282,0.4266,0.421,0.3511,0.337,0.0,0.0,0.0,0.0,0.0,0.0,0.0,0.0,0.0,-0.0202,-0.0568,-0.0948,-0.1231,-0.1224,-0.1279,-0.1337,-0.1391,-0.1429,-0.1426,-0.1527,-0.1556,-0.1564,-0.1546,-0.1566,-0.1583,-0.1639,-0.1611,-0.1526,-0.1327,-0.1346,-0.1253,-0.0991,-0.0953,-0.0793,-0.0416,-0.0467,-0.036,0.0,-0.0051,-0.0051,0.0,-0.0253,-0.0303,-0.0101,-0.0556,-0.0707,-0.0505,-0.0707,-0.0808,-0.0909,-0.1111,-0.1364,-0.1617,-0.1617,-0.1587,-0.1496,-0.1496,-0.154,-0.1582,0.0,0.0,0.0,0.0,0.0,0.0,0.561,0.5418,0.5295,0.5341,0.5412,0.5446,0.5397,0.5404,0.5373,0.5275,0.5719,0.596,0.5855,0.605,0.6188,0.6219,0.5983,0.5677,0.5321,0.5538,0.5576,0.5416,0.5861,0.6083,0.6127,0.6526,0.6615,0.6432,0.683,0.6922,0.6748,0.6966,0.7143,0.7326,0.6953,0.6692,0.6487,0.6028,0.5574,0.5154,0.4852,0.4791,0.4755,0.4508,0.4476,0.4485,0.4419,0.4411,0.4429,0.4139,0.0,0.3313,0.2908,0.2806,0.2666,0.1864,0.1705,0.1566,0.0,0.0,-0.0475,-0.0499,-0.0933,-0.1295,-0.1287,-0.1341,-0.1391,-0.138,-0.1432,-0.1528,-0.1562,-0.1618,-0.158,-0.1604,-0.161,-0.1622,-0.1701,-0.1707,-0.1667,-0.164,-0.1644,-0.154,-0.1275,-0.1277,-0.1004,-0.0416,-0.0675,-0.0566,0.0,-0.0253,-0.0253,0.0,-0.0253,-0.0404,-0.0354,-0.0657,-0.0808,-0.0758,-0.0808,-0.096,-0.1162,-0.1212,-0.1364,-0.1617,-0.1617,-0.1613,-0.1607,-0.1607,-0.159,-0.1615,0.0,0.0,0.0,0.0,0.0,0.0,0.0,0.6085,0.595,0.5514,0.5588,0.5514,0.5104,0.5078,0.5052,0.4912,0.5467,0.5761,0.5622,0.6033,0.6219,0.606,0.5941,0.5798,0.5583,0.5711,0.5799,0.5886,0.606,0.6274,0.6526,0.6704,0.6792,0.683,0.7007,0.7054,0.6966,0.7051,0.7234,0.7462,0.7282,0.7024,0.6686,0.6345,0.5835,0.5268,0.4962,0.4706,0.0,0.447,0.4417,0.4324,0.439,0.4464,0.446,0.4308,0.4225,0.0,0.363,0.278,0.0,0.0,0.166,0.112,0.043,0.0039,-0.0355,-0.0909,-0.1209,-0.1349,-0.1397,-0.1426,-0.1458,0.0,-0.1536,-0.1563,-0.1594,-0.1598,-0.1609,-0.1639,-0.1628,-0.1622,-0.1635,-0.1667,-0.1684,-0.168,-0.1712,-0.1669,-0.1545,-0.1559,-0.1389,-0.0936,-0.1039,-0.0824,-0.0253,-0.0354,-0.0253,0.0,-0.0253,-0.0404,-0.0404,-0.0859,-0.1111,-0.1263,-0.1263,-0.1314,-0.1415,-0.1263,-0.1263,-0.1364,-0.1364,-0.1364,-0.1364,-0.1566,-0.1609,-0.1598,0.0,0.0,0.0,0.0,0.0,0.0,0.0,0.0,0.6388,0.5815,0.5778,0.557,0.4914,0.5096,0.512,0.4743,0.5256,0.5548,0.5425,0.5924,0.6136,0.6018,0.6018,0.593,0.5783,0.587,0.5946,0.6014,0.6184,0.6423,0.6734,0.6825,0.6929,0.7095,0.7095,0.7095,0.7095,0.7095,0.7234,0.7507,0.7415,0.717,0.6799,0.6544,0.5978,0.5246,0.4961,0.4622,0.4336,0.4412,0.4365,0.4309,0.4382,0.4485,0.4535,0.439,0.4476,0.4481,0.3967,0.0,0.0,0.2152,0.1751,0.1208,0.0536,0.0166,-0.0209,-0.087,-0.1233,-0.1428,-0.1472,-0.1494,0.0,-0.1613,-0.1579,-0.1592,-0.1613,-0.1624,-0.1637,-0.1712,-0.1657,-0.165,-0.1641,-0.168,-0.1703,-0.1752,-0.1785,-0.1794,-0.1718,-0.173,-0.1607,-0.13,-0.135,-0.1132,-0.0505,-0.0606,-0.0455,-0.0101,-0.0404,-0.0455,-0.0404,-0.096,-0.1314,-0.1516,-0.1566,-0.1617,-0.1566,-0.1314,-0.1212,-0.1212,-0.1212,-0.1212,-0.1213,-0.1525,-0.1624,-0.1617,0.0,0.0,0.0,0.0,0.0,0.0,0.0,0.0,0.0,0.6378,0.6031,0.5605,0.5061,0.5686,0.5773,0.477,0.5239,0.5553,0.5418,0.5786,0.6105,0.6293,0.63,0.613,0.5824,0.5993,0.5944,0.563,0.6088,0.6408,0.6625,0.6804,0.6964,0.7095,0.7095,0.7095,0.7095,0.7095,0.7234,0.7462,0.7231,0.7014,0.6889,0.6662,0.5947,0.4971,0.4652,0.4572,0.464,0.4315,0.4346,0.4482,0.4485,0.4599,0.0,0.4547,0.4398,0.0,0.0,0.0,0.3699,0.2405,0.2308,0.2358,0.1552,0.065,0.0,-0.0045,-0.0819,-0.1478,-0.148,-0.1577,-0.1618,-0.162,-0.1596,-0.1615,-0.1617,-0.1642,-0.1713,-0.1714,-0.1765,-0.1788,0.0,-0.1703,-0.1728,-0.1787,-0.1821,-0.1804,-0.1803,-0.1721,-0.1586,-0.1299,-0.1558,-0.139,-0.0808,-0.1061,-0.0909,-0.0404,-0.0657,-0.0657,-0.0404,-0.096,-0.1212,-0.1212,-0.1465,-0.1617,-0.1566,-0.1314,-0.1212,-0.1212,-0.1212,-0.1212,-0.1215,-0.1599,-0.1642,-0.1617,0.0,0.0,0.0,0.0,0.0,0.0,0.0,0.0,0.0,0.0,0.0,0.0,0.0,0.0,0.0,0.0,0.5776,0.5786,0.5228,0.5627,0.5949,0.6101,0.6245,0.6246,0.6133,0.6214,0.6205,0.6184,0.6346,0.6504,0.6651,0.6734,0.6803,0.6848,0.6848,0.6848,0.6848,0.6848,0.6978,0.7232,0.6932,0.682,0.6724,0.6458,0.5894,0.5208,0.0,0.441,0.4238,0.4272,0.0,0.0,0.4577,0.0,0.0,0.4393,0.0,0.3461,0.0,0.0,0.2325,0.1556,0.1582,0.1641,0.1059,0.0444,-0.0089,-0.0403,-0.0981,-0.1427,-0.1446,-0.1484,-0.1518,-0.1538,-0.1583,-0.1617,-0.1617,-0.1643,-0.1714,-0.1714,-0.1696,0.0,0.0,0.0,0.0,-0.1736,-0.1799,-0.1787,-0.1747,-0.1734,-0.1662,-0.148,-0.1581,-0.1475,-0.1061,-0.1162,-0.101,-0.0657,-0.0758,-0.0758,-0.0657,-0.0859,-0.101,-0.1212,-0.1313,-0.1415,-0.1566,-0.1314,-0.1111,-0.096,-0.096,-0.0808,-0.0708,-0.117,-0.1219,-0.1115,0.0,0.0,0.0,0.0,0.0,0.0,0.0,0.0,0.0,0.0,0.0,0.0,0.0,0.0,0.0,0.0,0.0,0.6318,0.5534,0.583,0.5965,0.5864,0.5951,0.6003,0.6057,0.6006,0.6047,0.6194,0.6207,0.6339,0.6542,0.6597,0.6647,0.6702,0.6702,0.6702,0.6702,0.6702,0.6781,0.694,0.6723,0.6556,0.6404,0.6139,0.5722,0.0,0.472,0.4333,0.4009,0.4012,0.0,0.0,0.0,0.0,0.0,0.0,0.3576,0.3052,0.2286,0.1849,0.1497,0.1001,0.1099,0.1235,0.0894,0.0538,0.0135,-0.0362,-0.0803,-0.1194,-0.1401,-0.1459,-0.1474,-0.1505,-0.1543,-0.1576,-0.1598,-0.1636,-0.1714,-0.1714,-0.1706,0.0,0.0,0.0,0.0,-0.1723,-0.1773,-0.1755,-0.1717,-0.1652,-0.1637,-0.1618,-0.1617,-0.1516,-0.1364,-0.1364,-0.1212,-0.096,-0.0859,-0.0808,-0.0808,-0.0808,-0.0909,-0.1061,-0.1061,-0.1162,-0.1313,-0.1111,-0.096,-0.0808,-0.0808,-0.0707,-0.0607,-0.0967,-0.0969,-0.0921,0.0,0.0,0.0,0.0,0.0,0.0,0.0,0.0,0.0,0.0,0.0,0.0,0.0,0.0,0.0,0.0,0.0,0.0,0.6314,0.6388,0.6218,0.5655,0.55,0.5497,0.5576,0.547,0.5467,0.5579,0.5747,0.5969,0.6269,0.6441,0.6549,0.6654,0.6654,0.6654,0.6654,0.6654,0.6651,0.663,0.6485,0.6254,0.5942,0.5833,0.5406,0.4858,0.4593,0.427,0.0,0.0,0.0,0.0,0.0,0.0,0.0,0.0,0.0,0.2993,0.1764,0.1431,0.132,0.0799,0.0897,0.1121,0.1121,0.0897,0.0586,0.0092,-0.0363,-0.0854,0.0,0.0,-0.1399,-0.1474,-0.1483,-0.1508,-0.1615,-0.1676,-0.1716,0.0,0.0,0.0,0.0,0.0,0.0,-0.18,0.0,-0.1714,-0.1712,-0.1633,-0.1617,-0.1617,-0.1618,-0.162,-0.162,-0.1621,-0.1469,-0.1216,-0.0963,-0.0811,-0.0811,-0.0811,-0.0811,-0.0811,-0.0811,-0.0811,-0.0811,-0.0811,-0.0811,-0.0811,-0.081,-0.0809,-0.0811,-0.0876,-0.0882,-0.0934,0.0,0.0,0.0,0.0,0.0,0.0,0.0,0.0,0.0,0.0,0.0,0.0,0.0,0.0,0.0,0.0,0.0,0.0,0.6926,0.6983,0.6766,0.6065,0.6094,0.5933,0.5453,0.5416,0.5416,0.5453,0.5892,0.5982,0.5798,0.6286,0.6317,0.603,0.603,0.603,0.603,0.603,0.5969,0.5871,0.583,0.5701,0.5562,0.5521,0.5267,0.4876,0.4589,0.4271,0.0,0.0,0.0,0.0,0.0,0.0,0.4638,0.0,0.0,0.3502,0.2501,0.1977,0.1546,0.085,0.0897,0.1121,0.13,0.0987,0.0579,0.0174,-0.0301,-0.0764,-0.128,0.0,0.0,-0.1401,-0.1523,0.0,-0.1603,-0.1656,0.0,0.0,0.0,-0.1771,-0.171,-0.1711,0.0,0.0,-0.1723,-0.1652,-0.163,-0.1621,-0.1617,-0.1617,-0.1639,-0.1651,-0.1651,-0.1671,-0.1629,-0.1577,-0.1314,-0.1156,-0.1156,-0.0947,-0.0895,-0.0895,-0.0895,-0.0842,-0.0842,-0.1052,-0.1052,-0.0893,-0.0881,-0.0722,-0.0515,-0.051,-0.0407,-0.0306,0.0,0.0,0.0,0.0,0.0,0.0,0.0,0.0,0.0,0.0,0.0,0.0,0.0,0.0,0.0,0.0,0.0,0.0,0.0,0.7494,0.7275,0.6623,0.6306,0.6,0.5677,0.5283,0.5283,0.565,0.6085,0.6306,0.637,0.6743,0.6738,0.6364,0.6364,0.6364,0.6364,0.6364,0.631,0.0,0.0,0.5687,0.5534,0.5217,0.4952,0.4688,0.4452,0.0,0.0,0.0,0.0,0.4525,0.4651,0.4735,0.4742,0.4455,0.0,0.3705,0.2879,0.2462,0.206,0.121,0.1255,0.1427,0.1052,0.096,0.0778,0.0084,-0.0204,0.0,-0.1182,0.0,0.0,0.0,0.0,0.0,-0.1593,-0.1637,-0.1504,0.0,-0.1014,0.0,0.0,-0.0314,-0.0522,0.0,-0.1128,-0.1635,-0.1618,-0.1617,-0.1623,-0.1637,-0.1705,-0.172,-0.168,-0.1696,-0.1704,-0.1704,-0.1544,-0.1491,-0.1491,-0.1172,-0.1066,-0.1066,0.0,-0.0854,-0.0854,-0.1173,-0.1226,-0.1065,-0.1055,-0.0893,-0.0577,-0.0463,-0.0256,-0.0051,0.0,0.0,0.0,0.0,0.0,0.0,0.0,0.0,0.0,0.0,0.7461,0.0,0.0,0.0,0.0,0.0,0.0,0.0,0.0,0.0,0.7771,0.7206,0.6499,0.6064,0.5978,0.5253,0.5224,0.5982,0.6293,0.6745,0.7317,0.7509,0.7397,0.7113,0.7113,0.7085,0.7048,0.7048,0.7035,0.6966,0.632,0.5988,0.5778,0.0,0.4717,0.0,0.0,0.0,0.0,0.0,0.4529,0.4575,0.4698,0.4795,0.4752,0.4183,0.4064,0.3968,0.328,0.3092,0.2867,0.1882,0.1926,0.1949,0.0893,0.1137,0.1251,0.0,0.0,-0.0152,-0.1086,-0.1277,-0.1315,-0.1311,0.0,-0.1508,-0.1569,-0.1403,-0.0963,-0.0102,0.0157,0.0788,0.2183,0.1437,0.1079,0.1562,-0.0101,-0.1263,-0.1465,-0.1418,-0.1433,-0.1568,-0.1674,-0.1688,-0.1716,-0.1716,-0.1716,-0.1716,-0.1716,-0.1716,-0.1716,-0.1448,-0.134,-0.1287,0.0,0.0,-0.0913,-0.118,-0.1287,-0.1286,-0.1284,-0.1176,-0.0908,-0.0577,-0.0313,-0.0104,0.0,0.0,0.0,0.0,0.0,0.0,0.0,0.0,0.0,0.0,0.7809,0.7412,0.0,0.0,0.0,0.0,0.0,0.0,0.0,0.0,0.0,0.7627,0.7664,0.7106,0.5876,0.579,0.579,0.5849,0.0,0.6923,0.7307,0.7771,0.7664,0.7088,0.7088,0.6967,0.678,0.678,0.6657,0.651,0.6386,0.625,0.6064,0.5448,0.0,0.0,0.0,0.0,0.0,0.0,0.4717,0.4755,0.4915,0.5102,0.5284,0.5157,0.5238,0.5191,0.4291,0.4074,0.3849,0.3087,0.2952,0.2832,0.208,0.2522,0.0,0.0,0.0,0.0526,-0.0741,-0.117,0.0,-0.1364,0.0,0.0,0.0,0.0,0.0311,0.0,0.0,0.0,0.0,0.0,0.0,0.0,0.0,0.0,-0.0859,-0.0513,-0.0525,-0.1029,-0.1517,-0.1804,-0.1779,-0.1779,-0.1779,-0.1779,-0.1779,-0.1779,-0.1779,-0.1723,-0.1557,-0.1278,0.0,0.0,-0.0945,-0.1167,-0.1278,-0.1277,-0.1313,-0.1252,-0.1195,-0.0908,-0.0584,-0.0318,0.0,0.0,0.0,0.0,0.0,0.0,0.0,0.8937,0.8917,0.9001,0.8595,0.8143,0.7752,0.7468,0.737,0.0,0.0,0.0,0.0,0.0,0.0,0.0,0.0,0.0,0.0,0.0,0.0,0.0,0.0,0.0,0.0,0.0,0.0,0.0,0.0,0.0,0.7801,0.7801,0.7655,0.7411,0.7103,0.6848,0.0,0.0,0.0,0.0,0.0,0.0,0.0,0.0,0.4771,0.4965,0.4977,0.5135,0.5328,0.5394,0.5496,0.552,0.5134,0.5015,0.4837,0.3981,0.389,0.3692,0.2592,0.0,0.0,0.0,0.134,0.1346,0.042,0.0,0.0,0.0,0.0,0.0,0.0,0.0,0.0,0.0,0.0,0.0,0.0,0.0,0.0,0.0,0.0,0.0,0.0906,0.0828,0.0426,-0.0382,-0.0717,-0.1001,-0.1346,-0.1346,-0.1514,-0.1795,-0.1795,-0.1795,-0.1795,-0.1795,-0.1739,-0.157,-0.157,0.0,-0.1402,-0.1514,-0.157,-0.1569,-0.1556,-0.1441,-0.1271,-0.1142,-0.0918,-0.0647,0.0,0.0,0.0,0.0,0.0,0.0,0.9453,0.9229,0.9128,0.9461,0.9377,0.8982,0.8243,0.7809,0.749,0.0,0.0,0.0,0.0,0.0,0.0,0.0,0.0,0.0,0.0,0.0,0.0,0.0,0.0,0.0,0.0,0.0,0.0,0.0,0.0,0.0,0.0,0.8804,0.8646,0.0,0.0,0.0,0.0,0.0,0.0,0.0,0.0,0.0,0.0,0.0,0.4785,0.4997,0.4996,0.5076,0.5173,0.5336,0.5417,0.5499,0.5648,0.5688,0.551,0.4792,0.4743,0.4548,0.3117,0.3209,0.0,0.0,0.2146,0.215,0.152,0.0,0.0,0.0,0.0,0.0,0.0,0.0,0.0,0.0,0.0,0.0,0.0,0.0,0.0,0.0,0.0,0.0,0.2644,0.2092,0.1503,0.0768,0.0778,0.056,0.0056,-0.0168,-0.056,-0.1009,-0.129,-0.1402,-0.1402,-0.1402,-0.1402,-0.1402,-0.1402,0.0,0.0,-0.1683,-0.1739,-0.1627,-0.1627,-0.1514,-0.14,-0.1381,-0.1209,-0.0987,0.0,0.0,0.0,0.0,0.0,0.0,0.9474,0.9403,0.9477,0.9811,0.9826,0.9604,0.9059,0.8483,0.7925,0.0,0.0,0.0,0.0,0.0,0.0,0.0,0.0,0.0,0.0,0.0,0.0,0.0,0.0,0.0,0.0,0.0,0.0,0.0,0.0,0.0,0.0,0.0,0.0,0.0,0.0,0.0,0.0,0.0,0.0,0.0,0.0,0.0,0.0,0.0,0.0,0.4668,0.4864,0.4962,0.5056,0.517,0.0,0.0,0.5626,0.5688,0.5688,0.5599,0.5597,0.5298,0.4037,0.0,0.0,0.2504,0.2614,0.2836,0.1905,0.1685,0.164,0.0,0.0,0.2212,0.0,0.0,0.0,0.0,0.0,0.0,0.0,0.0,0.0,0.0,0.0,0.0,0.0,0.281,0.275,0.3234,0.3291,0.3234,0.3177,0.2122,0.1509,0.1453,0.0336,-0.0168,-0.0168,-0.0168,-0.0168,-0.0168,0.0,0.0,0.0,-0.1346,-0.1458,-0.1009,-0.1009,-0.129,-0.1739,-0.1736,-0.1567,-0.1284,0.0,0.0,0.0,0.0,0.0,0.0,1.0205,0.9959,0.9878,1.0226,1.0248,1.0096,0.9643,0.919,0.8564,0.7651,0.0,0.0,0.0,0.0,0.0,0.0,0.0,0.0,0.0,0.0,0.0,0.0,0.0,0.0,0.0,0.0,0.0,0.0,0.0,0.0,0.0,0.0,0.0,0.0,0.0,0.0,0.0,0.0,0.0,0.0,0.0,0.0,0.0,0.0,0.0,0.0,0.4652,0.4693,0.0,0.0,0.5167,0.5311,0.5513,0.5634,0.5688,0.5688,0.5624,0.5341,0.4691,0.0,0.4663,0.3648,0.3658,0.3703,0.3199,0.2764,0.2456,0.2446,0.0,0.0,0.0,0.0,0.0,0.0,0.0,0.0,0.0,0.0,0.0,0.0,0.0,0.0,0.0,0.4855,0.4423,0.4137,0.4468,0.4517,0.4126,0.3681,0.3237,0.29,0.24,0.2178,0.2178,0.2178,0.2178,0.2178,0.0,0.0,0.0,0.1675,0.1173,0.0727,0.0727,0.0112,-0.0729,-0.0729,-0.0617,-0.0504,0.0,0.0,0.0,0.0,0.0,1.0696,1.0706,1.0301,1.0114,1.0451,1.04,1.0208,0.993,0.9525,0.8923,0.8128,0.7763,0.0,0.0,0.0,0.0,0.0,0.0,0.0,0.0,0.0,0.8928,0.9054,0.9391,0.0,0.0,0.0,0.0,0.0,0.0,0.0,0.0,0.0,0.0,0.0,0.0,0.0,0.0,0.0,0.0,0.0,0.0,0.0,0.0,0.0,0.0,0.0,0.0,0.0,0.0,0.0,0.4991,0.5135,0.5335,0.5516,0.5637,0.5637,0.5523,0.5347,0.0,0.0,0.4621,0.4349,0.427,0.4224,0.4123,0.3714,0.342,0.3431,0.0,0.4541,0.0,0.0,0.0,0.0,0.0,0.0,0.0,0.0,0.0,0.0,0.0,0.0,0.0,0.6539,0.6102,0.549,0.6075,0.6251,0.5799,0.5468,0.5075,0.4627,0.4293,0.4126,0.4126,0.4126,0.4126,0.4126,0.0,0.0,0.0,0.4126,0.3514,0.2624,0.2624,0.1955,0.1063,0.1063,0.0839,0.056,0.0,0.0,0.0,0.0,0.0,0.0,1.0728,1.0301,1.0114,1.0451,1.0153,0.9906,0.9898,0.9318,0.8905,0.8897,0.8346,0.0,0.0,0.0,0.0,0.0,0.0,0.0,0.0,0.0,0.8736,0.92,0.9347,0.9465,0.9588,0.0,0.0,0.0,0.0,0.0,0.0,0.0,0.0,0.0,0.0,0.0,0.0,0.0,0.0,0.0,0.0,0.0,0.0,0.0,0.0,0.0,0.0,0.4363,0.4354,0.0,0.4743,0.4852,0.5127,0.5366,0.5508,0.5508,0.5461,0.5347,0.0,0.0,0.4621,0.4349,0.4202,0.4156,0.4278,0.4464,0.4679,0.4941,0.52,0.0,0.0,0.0,0.0,0.0,0.0,0.0,0.0,0.0,0.0,0.0,0.0,0.0,0.0,0.7446,0.7568,0.7777,0.8472,0.8881,0.8826,0.7654,0.7096,0.7041,0.5919,0.5361,0.5361,0.5361,0.5361,0.0,0.0,0.0,0.0,0.5361,0.5023,0.4462,0.4462,0.4126,0.3567,0.3567,0.279,0.1788,0.0,0.0,0.0,0.0,0.0,0.0,1.1025,1.0766,1.0509,1.021,1.0051,0.986,0.958,0.9167,0.8905,0.8905,0.8353,0.0,0.0,0.0,0.0,0.0,0.0,0.0,0.0,0.8219,0.8633,0.8937,0.9556,0.9897,0.9943,0.9943,0.9943,0.0,0.0,0.0,0.0,0.0,0.0,0.0,0.0,0.0,0.0,0.0,0.0,0.0,0.0,0.0,0.0,0.0,0.0,0.0,0.0,0.0,0.0,0.427,0.4488,0.4746,0.4904,0.5025,0.5146,0.5146,0.5031,0.4898,0.4821,0.4618,0.439,0.4317,0.427,0.4254,0.4295,0.4364,0.4478,0.4759,0.4868,0.0,0.0,0.0,0.0,0.0,0.0,0.0,0.0,0.0,0.0,0.0,0.0,0.0,0.0,0.0,0.7943,0.7649,0.838,0.8781,0.8781,0.8498,0.8325,0.8325,0.7986,0.7817,0.7817,0.7817,0.0,0.0,0.0,0.0,0.0,0.7817,0.7202,0.6253,0.6253,0.5693,0.4855,0.4855,0.4576,0.4242,0.0,0.0,0.0,0.0,0.0,0.0,1.1156,1.0959,1.0728,1.0316,1.0157,0.9966,0.9649,0.9218,0.8926,0.8889,0.8445,0.0,0.0,0.0,0.0,0.0,0.0,0.0,0.7618,0.8149,0.8537,0.8756,0.9551,0.9968,1.0022,1.0201,1.0221,1.0089,0.9892,0.0,0.0,0.0,0.0,0.0,0.0,0.0,0.8035,0.0,0.0,0.0,0.0,0.0,0.0,0.0,0.0,0.0,0.0,0.0,0.0,0.0,0.4205,0.4523,0.4651,0.4819,0.4909,0.4909,0.48,0.0,0.469,0.4503,0.43,0.43,0.4265,0.4246,0.4292,0.43,0.4363,0.4588,0.4698,0.0,0.0,0.0,0.0,0.0,0.0,0.0,0.0,0.0,0.0,0.0,0.0,0.0,0.0,0.0,0.7817,0.7598,0.8253,0.8625,0.8625,0.872,0.8794,0.8797,0.8797,0.8828,0.8885,0.8885,0.0,0.0,0.0,0.0,0.0,0.8885,0.8436,0.7765,0.7765,0.7374,0.67,0.67,0.6422,0.6031,0.0,0.0,0.0,0.0,0.0,0.0,0.0,1.0981,1.0816,1.0697,1.0422,1.0152,1.0,0.9427,0.8997,0.892,0.8627,0.0,0.0,0.0,0.0,0.0,0.0,0.0,0.7809,0.8147,0.8455,0.8727,0.9427,0.9818,0.9956,1.0413,1.0448,1.0133,1.0111,0.9921,0.9588,0.0,0.0,0.0,0.8685,0.8474,0.0,0.0,0.0,0.0,0.0,0.0,0.0,0.0,0.0,0.0,0.0,0.0,0.0,0.0,0.0,0.0,0.0,0.461,0.4758,0.4758,0.4711,0.4662,0.4662,0.4492,0.0,0.43,0.4211,0.4167,0.4289,0.4306,0.4344,0.4509,0.4678,0.0,0.0,0.0,0.0,0.0,0.0,0.0,0.0,0.0,0.0,0.0,0.0,0.0,0.0,0.0,0.7291,0.7547,0.8104,0.8403,0.8465,0.8479,0.8554,0.8696,0.8696,0.8767,0.8851,0.8861,0.0,0.0,0.0,0.0,0.0,0.8885,0.8885,0.8885,0.8885,0.8885,0.8885,0.8885,0.8214,0.721,0.0,0.0,0.0,0.0,0.0,0.0,0.0,0.0,0.0,0.0,1.0409,1.0121,0.9731,0.9558,0.9335,0.0,0.0,0.0,0.0,0.0,0.0,0.0,0.0,0.0,0.7879,0.836,0.8713,0.8925,0.9915,1.0364,1.0286,1.0748,1.0785,1.0463,1.0207,0.9921,0.9588,0.9536,0.0,0.0,0.8929,0.8685,0.0,0.0,0.0,0.0,0.7417,0.7138,0.0,0.0,0.0,0.0,0.0,0.0,0.0,0.0,0.3824,0.3901,0.402,0.0,0.4425,0.4425,0.4404,0.4384,0.0,0.4341,0.43,0.43,0.4278,0.4295,0.4443,0.4357,0.4398,0.47,0.0,0.0,0.0,0.0,0.0,0.0,0.0,0.0,0.0,0.0,0.0,0.0,0.0,0.0,0.0,0.0,0.7238,0.7288,0.745,0.7687,0.8052,0.8167,0.8292,0.8537,0.8537,0.8554,0.8594,0.871,0.0,0.0,0.0,0.0,0.8885,0.8885,0.8885,0.8885,0.8885,0.8885,0.8885,0.8885,0.8716,0.8491,0.0,0.0,0.0,0.0,0.0,0.0,0.0,0.0,0.0,0.0,1.0612,1.0351,0.9884,0.9825,0.9677,0.0,0.0,0.0,0.0,0.0,0.0,0.0,0.0,0.7562,0.7892,0.8372,0.882,0.922,1.0101,1.0552,1.0653,1.112,1.107,1.0565,1.0089,0.9782,0.9588,0.9465,0.9263,0.8982,0.8929,0.0,0.0,0.0,0.0,0.0,0.7803,0.7595,0.0,0.6713,0.6165,0.5663,0.0,0.0,0.0,0.0,0.3854,0.3797,0.3835,0.4031,0.4216,0.4216,0.4259,0.43,0.43,0.43,0.43,0.0,0.0,0.0,0.0,0.0,0.0,0.0,0.0,0.0,0.0,0.0,0.0,0.0,0.0,0.0,0.0,0.0,0.0,0.0,0.0,0.0,0.0,0.0,0.6889,0.6992,0.6889,0.7071,0.755,0.7626,0.7798,0.8021,0.8021,0.8053,0.8121,0.8358,0.0,0.0,0.0,0.0,0.8832,0.8832,0.8821,0.8885,0.8885,0.8826,0.8712,0.8881,0.8826,0.8712,0.0,0.0,0.0,0.0,0.0,0.0,0.0,0.0,0.0,0.0,0.0,0.0,0.0,0.0,0.0,0.0,0.0,0.0,0.0,0.0,0.0,0.0,0.7545,0.7599,0.7916,0.8318,0.8873,0.9542,1.018,1.0631,1.0912,1.1427,1.1291,1.0565,0.9958,0.9639,0.9536,0.9335,0.9133,0.8962,0.8929,0.0,0.0,0.0,0.0,0.0,0.0,0.0,0.0,0.7537,0.6784,0.6068,0.6083,0.0,0.0,0.0,0.0,0.0,0.3923,0.4055,0.415,0.4118,0.4211,0.43,0.43,0.0,0.0,0.0,0.0,0.0,0.0,0.0,0.0,0.0,0.0,0.0,0.0,0.0,0.0,0.0,0.0,0.0,0.0,0.0,0.0,0.0,0.0,0.0,0.0,0.0,0.0,0.6742,0.6539,0.6637,0.7089,0.7138,0.7246,0.7463,0.7463,0.7528,0.7642,0.787,0.0,0.0,0.0,0.0,0.8622,0.8622,0.8713,0.8796,0.8796,0.8637,0.8432,0.866,0.8602,0.8432,0.0,0.0,0.0,0.0,0.0,0.0,0.0,0.0,0.0,0.0,0.0,0.0,0.0,0.0,0.0,0.0,0.0,0.0,0.0,0.0,0.0,0.7878,0.7732,0.7773,0.8051,0.8466,0.9004,0.968,1.0567,1.0966,1.0912,1.1621,1.1472,1.0572,1.0192,0.9744,0.9283,0.9465,0.9263,0.8857,0.9309,0.0,0.0,0.0,0.0,0.0,0.0,0.0,0.0,0.7942,0.7467,0.7037,0.5965,0.0,0.0,0.0,0.0,0.0,0.4484,0.4543,0.4466,0.4182,0.4211,0.43,0.43,0.43,0.0,0.0,0.0,0.0,0.0,0.0,0.0,0.0,0.0,0.0,0.0,0.0,0.0,0.0,0.0,0.0,0.0,0.0,0.0,0.0,0.0,0.0,0.0,0.0,0.0,0.6437,0.6437,0.6437,0.6537,0.6739,0.7001,0.7269,0.7269,0.7281,0.7305,0.7473,0.7579,0.0,0.0,0.7976,0.8203,0.8203,0.8291,0.8371,0.8371,0.8278,0.81,0.81,0.81,0.81,0.0,0.0,0.0,0.0,0.0,0.0,0.0,0.0,0.0,0.0,0.0,0.0,0.0,0.0,0.0,0.0,0.0,0.0,0.0,0.0,0.8382,0.8025,0.8089,0.8165,0.8217,0.8843,0.9561,1.035,1.1016,1.1516,1.1764,1.1777,1.1294,1.0379,1.0195,0.9767,0.9211,0.9263,0.9211,0.9106,0.0,0.0,0.0,0.0,0.0,0.0,0.0,0.0,0.0,0.0,0.8023,0.728,0.6658,0.0,0.0,0.0,0.0,0.0,0.4621,0.4606,0.4505,0.4554,0.4585,0.4553,0.4553,0.464,0.0,0.0,0.0,0.0,0.0,0.0,0.0,0.0,0.0,0.0,0.0,0.0,0.0,0.0,0.0,0.0,0.0,0.0,0.0,0.0,0.0,0.0,0.0,0.0,0.0,0.0,0.6387,0.6387,0.6387,0.6539,0.6639,0.6786,0.6786,0.6786,0.6789,0.7003,0.7134,0.7137,0.0,0.757,0.7797,0.7797,0.783,0.7955,0.7955,0.7876,0.7664,0.7664,0.7729,0.7831,0.0,0.0,0.0,0.0,0.0,0.0,0.0,0.0,0.0,0.0,0.0,0.0,0.0,0.0,0.0,0.0,0.0,0.0,0.0,0.8975,0.8724,0.8283,0.8409,0.8503,0.8528,0.9311,1.0151,1.1073,1.1558,1.2036,1.247,1.1755,1.0992,1.0186,1.0056,0.9633,0.9001,0.9008,0.9054,0.9152,0.0,0.0,0.0,0.0,0.0,0.0,0.0,0.0,0.0,0.0,0.0,0.0,0.0,0.0,0.0,0.549,0.5214,0.4973,0.5206,0.5081,0.4928,0.52,0.498,0.4701,0.4814,0.4904,0.4896,0.0,0.0,0.0,0.0,0.0,0.0,0.0,0.0,0.0,0.0,0.0,0.0,0.0,0.0,0.0,0.0,0.0,0.0,0.0,0.0,0.0,0.0,0.0,0.0,0.0,0.6387,0.6387,0.6387,0.6414,0.6414,0.6387,0.6387,0.6387,0.6387,0.6589,0.6692,0.6742,0.6939,0.7166,0.7395,0.7395,0.7495,0.764,0.7607,0.7443,0.726,0.726,0.7363,0.7492,0.0,0.0,0.0,0.0,0.0,0.0,0.0,0.0,0.0,0.0,0.0,0.0,0.0,0.0,0.0,0.0,0.0,0.0,0.0,0.8918,0.8724,0.8743,0.8579,0.8726,0.9219,0.9785,1.0543,1.1555,1.2145,1.2441,1.247,1.1428,1.0665,1.0186,0.9869,0.9262,0.8474,0.885,0.8798,0.8501,0.8975,0.0,0.0,0.0,0.0,0.0,0.0,0.0,0.0,0.0,0.0,0.0,0.0,0.0,0.7453,0.7683,0.743,0.706,0.704,0.6635,0.6209,0.6052,0.5157,0.4455,0.4901,0.4836,0.0,0.4947,0.0,0.0,0.0,0.0,0.0,0.0,0.0,0.0,0.0,0.0,0.0,0.0,0.0,0.0,0.0,0.0,0.0,0.0,0.0,0.0,0.0,0.0,0.0,0.0,0.0,0.6387,0.6387,0.6497,0.6497,0.6387,0.6387,0.6387,0.6387,0.6437,0.6437,0.6437,0.6437,0.6662,0.7038,0.7038,0.7183,0.7388,0.7266,0.7068,0.6867,0.6867,0.6862,0.6854,0.0,0.0,0.0,0.0,0.0,0.0,0.0,0.0,0.0,0.0,0.0,1.0438,1.0322,0.0,0.0,0.0,0.0,0.0,0.0,0.9139,0.9023,0.886,0.886,0.9051,0.941,1.008,1.0845,1.1732,1.2233,1.2382,1.2171,1.1262,1.0565,1.0049,0.9736,0.9316,0.8895,0.8878,0.9011,0.9187,0.903,0.8982,0.0,0.0,0.0,0.0,0.0,0.0,0.0,0.0,0.8735,0.8425,0.8193,0.7993,0.7825,0.7616,0.7437,0.7346,0.7519,0.7399,0.7098,0.6646,0.6287,0.0,0.0,0.5269,0.5186,0.5273,0.5437,0.0,0.0,0.0,0.0,0.0,0.0,0.0,0.0,0.0,0.0,0.0,0.0,0.0,0.0,0.0,0.0,0.0,0.0,0.0,0.0,0.0,0.0,0.0,0.0,0.6422,0.6548,0.6597,0.6635,0.6665,0.6665,0.6665,0.6665,0.6665,0.6665,0.6665,0.6665,0.67,0.6776,0.6776,0.6784,0.6798,0.6829,0.6692,0.6584,0.666,0.6641,0.6575,0.0,0.0,0.0,0.0,0.0,0.0,0.0,0.0,1.0458,0.0,0.0,0.0,0.0,1.0409,0.0,0.0,0.0,0.0,0.9576,0.9268,0.9044,0.8905,0.8782,0.8969,0.9501,1.0107,1.0818,1.1568,1.2,1.2069,1.1826,1.0975,1.036,0.996,0.9569,0.9266,0.9015,0.882,0.8977,0.9315,0.8811,0.8692,0.0,0.0,0.0,0.0,0.0,0.0,0.0,0.0,0.8788,0.8632,0.8493,0.8486,0.8487,0.8247,0.8195,0.8172,0.8201,0.8182,0.8059,0.7725,0.0,0.0,0.7158,0.6573,0.6137,0.6266,0.5991,0.0,0.0,0.0,0.0,0.0,0.0,0.0,0.0,0.0,0.0,0.0,0.0,0.0,0.0,0.0,0.0,0.0,0.0,0.0,0.0,0.0,0.0,0.0,0.0,0.0,0.6562,0.6638,0.67,0.6744,0.6785,0.6801,0.6801,0.6763,0.6744,0.6741,0.6703,0.6662,0.6619,0.6619,0.657,0.6452,0.6586,0.6495,0.6395,0.6478,0.6457,0.6387,0.0,0.0,0.0,0.0,0.0,0.0,0.0,0.0,1.0303,1.0303,1.0303,0.0,0.0,0.0,0.0,0.0,0.0,0.0,1.0303,0.9299,0.8757,0.8901,0.8265,0.8412,0.9467,0.9894,1.0407,1.1097,1.1367,1.1481,1.1467,1.0543,1.0029,0.9871,0.9407,0.9015,0.8692,0.8632,0.8605,0.858,0.8313,0.8275,0.8401,0.0,0.0,0.0,0.0,0.0,0.0,0.0,0.8916,0.8965,0.9833,0.9913,0.9746,1.0027,1.0114,0.9962,0.9279,0.9101,0.9168,0.936,0.0,0.0,0.991,0.8823,0.7705,0.7971,0.0,0.5945,0.0,0.0,0.0,0.0,0.0,0.0,0.0,0.0,0.0,0.0,0.0,0.0,0.0,0.0,0.0,0.0,0.0,0.0,0.0,0.0,0.0,0.0,0.0,0.0,0.6389,0.6679,0.6741,0.6622,0.6744,0.6801,0.6798,0.6676,0.6622,0.6613,0.6441,0.6457,0.6619,0.6619,0.6619,0.6619,0.6619,0.6492,0.6387,0.6387,0.6387,0.6387,0.0,0.0,0.0,0.0,0.0,0.0,0.0,0.0,1.0505,1.0505,1.0505,0.0,0.0,0.0,0.0,0.0,0.0,0.0,0.9556,0.9007,0.8704,0.8678,0.8502,0.8581,0.8998,0.9305,1.0036,1.118,1.1145,1.1117,1.0994,1.014,0.9792,0.9871,0.9311,0.9174,0.9307,0.8997,0.9055,0.9271,0.9,0.8823,0.8688,0.0,0.0,0.0,0.0,0.0,0.0,0.0,0.0,0.0,0.9391,0.969,0.9937,0.9735,0.987,0.9983,0.9511,1.0032,0.0,0.9985,0.0,0.0,0.0,1.0517,0.0,0.0,0.0,0.0,0.0,0.0,0.0,0.0,0.0,0.0,0.0,0.0,0.0,0.0,0.0,0.0,0.0,0.0,0.0,0.0,0.0,0.0,0.0,0.0,0.0,0.0,0.0,0.0,0.6567,0.6722,0.6785,0.6749,0.6785,0.6801,0.6801,0.6763,0.6747,0.6747,0.6709,0.6665,0.6611,0.6476,0.6441,0.6441,0.6441,0.6419,0.6387,0.6387,0.6387,0.6387,0.0,0.0,0.0,0.0,0.0,0.0,1.037,1.0428,1.0486,1.0486,1.0486,1.0448,0.0,0.0,0.0,1.0196,0.9913,0.0,0.0,0.9083,0.8797,0.8724,0.8634,0.8727,0.8965,0.9385,0.9909,1.053,1.0443,1.0385,1.035,0.9771,0.9629,0.983,0.9407,0.9334,0.9538,0.9192,0.9168,0.9388,0.9121,0.8841,0.8593,0.0,0.0,0.0,0.0,0.0,0.0,0.0,0.0,0.0,0.9005,0.928,0.9548,0.9437,0.9656,0.9895,0.9752,1.049,0.0,1.1042,1.169,1.255,1.325,0.0,0.0,0.0,0.0,0.0,0.0,0.0,0.0,0.0,0.0,0.0,0.0,0.0,0.0,0.0,0.0,0.0,0.0,0.0,0.0,0.0,0.0,0.0,0.0,0.0,0.0,0.0,0.0,0.0,0.6622,0.6741,0.6752,0.6657,0.6657,0.6657,0.666,0.6709,0.6728,0.6725,0.6679,0.6616,0.6489,0.6416,0.6387,0.6387,0.6387,0.6387,0.6387,0.6387,0.6387,0.6387,0.0,0.0,1.0303,1.0322,0.0,0.0,1.0322,1.0322,1.0322,1.0322,1.0322,1.0322,0.0,0.0,0.0,1.0264,1.0078,0.997,0.0,0.9333,0.8927,0.8851,0.8721,0.8841,0.9237,0.9809,0.9884,0.945,0.947,0.9551,0.9677,0.9474,0.9525,0.9772,0.958,0.9516,0.9498,0.9215,0.9113,0.9113,0.8848,0.859,0.8327,0.8327,0.0,0.0,0.0,0.0,0.0,0.0,0.0,0.0,0.8726,0.8809,0.886,0.908,0.9411,0.9766,0.992,1.0644,0.0,1.2314,1.2765,0.0,1.4312,0.0,0.0,0.0,0.0,0.0,0.0,0.0,0.0,0.0,0.0,0.0,0.0,0.0,0.0,0.0,0.0,0.0,0.0,0.0,0.0,0.0,0.0,0.0,0.0,0.0,0.0,0.0,0.0,0.0,0.6638,0.6757,0.67,0.0,0.6408,0.6403,0.6406,0.6556,0.6603,0.6597,0.6433,0.6387,0.6387,0.6387,0.6387,0.6387,0.6387,0.6387,0.6387,0.6387,0.6387,0.6387,0.0,0.0,1.0341,1.0505,0.0,0.0,1.0525,1.0544,1.0544,1.0544,1.0448,1.037,1.0322,1.0303,0.0,1.0078,0.9794,0.9493,0.9177,0.8812,0.8588,0.8522,0.8868,0.9218,0.9579,0.9564,0.9364,0.8961,0.9215,0.9383,0.9468,0.9438,0.9463,0.9548,0.9516,0.9516,0.9498,0.9215,0.9221,0.9402,0.9125,0.8854,0.8626,0.8626,0.8421,0.0,0.0,0.0,0.0,0.0,0.0,0.0,0.8726,0.8809,0.8794,0.8745,0.9303,0.9914,0.9849,1.1013,0.0,0.0,1.3384,1.4203,1.4096,0.0,0.0,0.0,0.0,0.0,0.0,0.0,0.0,0.0,0.0,0.0,0.0,0.0,0.0,0.0,0.0,0.0,0.0,0.0,0.0,0.0,0.0,0.0,0.0,0.0,0.0,0.0,0.0,0.7084,0.6766,0.6883,0.6872,0.0,0.6627,0.6581,0.6578,0.6457,0.6425,0.6425,0.6398,0.6387,0.6387,0.6387,0.6387,0.6387,0.6387,0.6387,0.6387,0.6387,0.6387,0.6387,0.0,0.0,0.0,0.0,0.0,0.0,0.0,0.0,1.0458,1.0458,1.0351,1.0235,1.0147,1.0186,0.0,0.0,0.9644,0.9427,0.9163,0.9005,0.8884,0.8781,0.9052,0.9224,0.9265,0.9301,0.9083,0.8611,0.8792,0.8931,0.9058,0.9058,0.9217,0.9516,0.9516,0.9444,0.9306,0.9155,0.9179,0.9306,0.9155,0.8939,0.871,0.871,0.8442,0.8062,0.8062,0.0,0.0,0.0,0.0,0.0,0.0,0.0,0.837,0.8444,0.8903,0.9482,0.9915,0.0,0.0,1.2909,0.0,1.4546,1.4282,0.0,0.0,0.0,0.0,0.0,0.0,0.0,0.0,0.0,0.0,0.0,0.0,0.0,0.0,0.0,0.0,0.0,0.0,0.0,0.0,0.0,0.0,0.0,0.0,0.0,0.0,0.0,0.7043,0.7016,0.6891,0.6953,0.6923,0.6801,0.6738,0.6604,0.6495,0.6417,0.6387,0.6387,0.6387,0.6387,0.6387,0.6387,0.6387,0.6387,0.6387,0.6387,0.6387,0.6387,0.6387,0.6387,0.0,0.0,0.0,0.0,0.0,0.0,0.0,0.0,0.0,1.0381,1.0292,1.0222,1.0239,1.0179,1.0047,0.0,0.0,0.0,0.9369,0.9335,0.9264,0.9221,0.9241,0.9124,0.8938,0.9118,0.8982,0.8444,0.842,0.849,0.871,0.871,0.8993,0.9516,0.9516,0.936,0.9095,0.9047,0.9029,0.9023,0.8981,0.8836,0.8638,0.8638,0.8315,0.7901,0.7901,0.7901,0.7901,0.7901,0.0,0.0,0.0,0.0,0.7943,0.8159,0.8469,0.8909,0.9835,0.0,1.205,1.3332,1.4041,0.0,0.0,0.0,0.0,0.0,0.0,0.0,0.0,0.0,0.0,0.0,0.0,0.0,0.0,0.0,0.0,0.0,0.0,0.0,0.0,0.0,0.0,0.0,0.0,0.0,0.0,0.0,0.6526,0.6894,0.6899,0.691,0.6986,0.72,0.7263,0.718,0.7107,0.6823,0.6378,0.6338,0.6337,0.6366,0.6395,0.6387,0.6387,0.6387,0.6387,0.6387,0.6387,0.6537,0.6684,0.6684,0.6783,0.6933,0.0,0.0,0.0,0.0,0.0,0.0,0.0,0.0,0.0,0.0,1.0717,1.0831,1.1176,1.0695,1.0339,1.0303,0.981,0.9438,0.9246,0.0,0.0,0.935,0.9377,0.9395,0.9394,0.9373,0.9101,0.8571,0.8462,0.849,0.871,0.871,0.8993,0.9516,0.9516,0.936,0.9083,0.8854,0.8758,0.874,0.8512,0.8375,0.8339,0.8339,0.8159,0.7901,0.7901,0.7901,0.7901,0.7901,0.7901,0.0,0.0,0.0,0.0,0.7943,0.8297,0.8788,0.0,0.0,1.1835,0.0,1.3547,1.3711,0.0,0.0,0.0,0.0,0.0,0.0,0.0,0.0,0.0,0.0,0.0,0.0,0.0,0.0,0.0,0.0,0.0,0.0,0.0,0.0,0.0,0.0,0.0,0.0,0.0,0.601,0.6172,0.6449,0.6502,0.6661,0.6983,0.8002,0.8534,0.8643,0.8247,0.7487,0.6384,0.6085,0.6071,0.6236,0.6332,0.6387,0.6387,0.6387,0.6387,0.6387,0.6387,0.698,0.7773,0.7773,0.8368,0.916,0.0,0.0,0.0,0.0,0.0,0.0,0.0,0.0,0.0,0.0,0.0,1.1197,1.138,1.1202,1.1019,1.0866,1.0606,1.0226,0.9683,0.9186,0.8964,0.9072,0.9072,0.8997,0.8882,0.8916,0.8847,0.8599,0.8454,0.8571,0.8921,0.8776,0.8993,0.9516,0.9516,0.9281,0.8872,0.8758,0.862,0.8481,0.8333,0.8493,0.8722,0.8427,0.8309,0.8297,0.8003,0.7901,0.7901,0.7901,0.7901,0.7901,0.7901,0.0,0.0,0.0,0.8165,0.8739,0.9917,1.1058,1.2187,0.0,1.3429,0.0,0.0,0.0,0.0,0.0,0.0,0.0,0.0,0.0,0.0,0.0,0.0,0.0,0.0,0.0,0.0,0.0,0.0,0.0,0.0,0.0,0.0,0.0,0.0,0.0,0.6766,0.687,0.734,0.8292,0.8295,0.8366,0.8464,0.924,0.9688,0.9904,0.9626,0.9187,0.8501,0.8302,0.7422,0.6041,0.6093,0.6122,0.6122,0.6122,0.6122,0.6169,0.6912,0.7491,0.7982,0.8649,0.9213,0.9608,0.0,0.0,0.0,0.0,0.0,0.0,0.0,0.0,0.0,0.0,0.0,1.1656,1.1772,0.0,0.0,0.0,1.0781,1.0335,0.9773,0.929,0.8982,0.891,0.8929,0.8824,0.856,0.8606,0.8604,0.8548,0.8438,0.858,0.8999,0.8866,0.9059,0.9516,0.9516,0.9251,0.8806,0.8806,0.8656,0.8421,0.8487,0.8752,0.9053,0.8662,0.8638,0.8734,0.8189,0.0,0.0,0.0,0.0,0.0,0.0,0.0,0.0,0.0,0.0,0.0,0.0,0.0,1.195,1.295,1.3179,0.0,0.0,0.0,0.0,0.0,0.0,0.0,0.0,0.0,0.0,0.0,0.0,0.0,0.0,0.0,0.0,0.0,0.0,0.0,0.0,0.0,0.0,0.0,0.0,0.0,0.7875,0.7925,0.8421,0.9601,0.9656,0.9638,0.9657,1.0306,1.0807,1.1038,1.089,1.0597,1.0323,1.0039,0.8863,0.6934,0.6846,0.6856,0.6856,0.6856,0.6856,0.7053,0.7973,0.8585,0.897,0.9896,1.0391,1.0587,0.0,0.0,0.0,0.0,0.0,0.0,0.0,0.0,0.0,0.0,0.0,1.233,1.2764,1.1655,1.0847,1.0805,0.9662,0.8968,0.9061,0.9008,0.9061,0.9185,0.9309,0.0,0.8982,0.8857,0.8652,0.842,0.8346,0.8445,0.8734,0.8969,0.9233,0.9516,0.9516,0.9354,0.9077,0.9077,0.8927,0.871,0.8957,0.9071,0.9095,0.9065,0.9065,0.9011,0.8487,0.0,0.0,0.0,0.0,0.0,0.0,0.0,0.0,0.0,0.0,0.0,0.0,0.9787,0.0,1.2195,0.0,0.0,0.0,0.0,0.0,0.0,0.0,0.0,0.0,0.0,0.0,0.0,0.0,0.0,0.0,0.0,0.0,0.0,0.0,0.0,0.0,0.0,0.0,0.0,0.0,0.0,0.8757,0.8757,0.8909,0.9209,0.9213,0.9398,0.979,1.1003,1.1774,1.2023,1.1677,1.1233,1.0651,1.0077,0.9764,0.9697,0.9489,0.9385,0.9385,0.9385,0.9533,0.9776,0.9867,1.0645,1.177,1.1858,1.25,1.3298,0.0,0.0,0.0,0.0,0.0,0.0,0.0,0.0,0.0,0.0,0.0,0.0,0.0,1.1642,1.1443,1.0965,1.0167,0.964,0.951,0.9185,0.8877,0.856,0.8685,0.8606,0.8295,0.8248,0.8255,0.834,0.813,0.8345,0.8957,0.8884,0.9083,0.9516,0.9516,0.936,0.9095,0.9095,0.8945,0.8746,0.9191,0.9564,0.9847,0.9678,0.0,0.0,0.0,0.0,0.0,0.0,0.0,0.0,0.0,0.0,0.0,0.0,0.0,0.0,0.0,0.0,0.0,0.0,0.0,0.0,0.0,0.0,0.0,0.0,0.0,0.0,0.0,0.0,0.0,0.0,0.0,0.0,0.0,0.0,0.0,0.0,0.0,0.0,0.0,0.0,0.0,0.0,0.0,0.0,1.0333,1.0333,1.0681,1.1473,1.1521,1.1722,1.2194,1.2481,1.2888,1.3474,1.3367,1.3266,1.3179,1.2859,1.2629,1.2445,1.2033,1.0892,0.9269,0.9269,0.9422,0.9768,1.0519,1.1214,1.189,1.2699,1.3195,1.3491,0.0,0.0,0.0,1.2047,0.0,1.2418,1.2385,1.2184,1.2042,1.2101,0.0,0.0,0.0,0.0,1.1141,1.0346,0.9858,0.9529,0.9399,0.9073,0.8718,0.8407,0.848,0.8427,0.8195,0.8115,0.8141,0.8318,0.813,0.8297,0.8836,0.8836,0.9029,0.9378,0.9474,0.9462,0.9372,0.9462,0.9348,0.9161,0.9787,1.0196,1.0412,0.0,0.0,0.0,0.0,0.0,0.0,0.0,0.0,0.0,0.0,0.0,0.0,0.0,0.0,0.0,0.9119,0.0,0.0,0.0,0.0,0.0,0.0,0.0,0.0,0.0,0.0,0.0,0.0,0.0,0.0,0.0,0.0,0.0,0.0,0.0,0.0,0.0,0.0,0.0,0.0,0.0,0.0,0.0,0.0,0.0,1.1814,1.1765,1.2111,1.2856,1.3007,1.3181,1.3484,1.3336,1.3507,1.41,1.4128,1.4401,1.4769,1.4513,1.4365,1.4282,1.3735,1.2294,1.0348,1.0348,1.0552,1.0894,1.173,1.2272,1.2685,1.3488,1.3775,1.3775,1.2676,1.271,1.2759,1.2881,1.2881,1.2881,1.2881,1.2856,1.2652,1.2169,0.0,0.0,0.0,0.0,0.0,0.8917,0.8573,0.8487,0.8573,0.86,0.8659,0.8778,0.8778,0.8778,0.8778,0.8507,0.8374,0.8374,0.8318,0.8285,0.8315,0.8848,0.9095,0.9125,0.9402,0.9666,0.9925,1.0166,1.013,0.9973,0.0,1.096,1.0773,0.0,0.0,0.0,1.0539,1.0515,0.0,1.0755,0.0,0.0,0.0,0.0,0.0,0.0,0.0,0.0,0.0,0.0,0.0,0.0,0.0,0.0,0.0,0.0,0.0,0.0,0.0,0.0,0.0,0.0,0.0,0.0,0.0,0.0,0.0,0.0,0.0,0.0,0.0,0.0,0.0,0.0,0.0,0.0,0.0,1.3098,1.3098,1.291,1.2905,1.3098,1.3394,1.3491,1.3491,1.3491,1.3659,1.3899,1.3905,1.4313,1.5105,1.4763,1.4763,1.5053,1.455,1.3763,1.2829,1.2818,1.3104,1.3491,1.3491,1.3823,1.4298,1.4298,1.4298,1.4298,1.2832,1.2832,1.2856,1.2881,1.2578,1.2323,1.2323,1.1875,1.1639,0.0,0.0,0.0,1.1592,1.0751,1.0058,0.9695,0.9241,0.8835,0.8487,0.8448,0.8374,0.8168,0.8141,0.8141,0.8141,0.8088,0.8029,0.8029,0.8027,0.8201,0.8602,0.8746,0.9023,0.9408,0.9809,1.0033,1.0095,0.9978,0.0,1.0409,1.1225,1.1527,0.0,0.0,0.0,0.0,0.0,1.1691,1.1549,0.0,1.1212,1.0653,0.0,0.0,0.0,0.0,0.0,0.0,0.9023,0.0,0.0,0.0,0.0,0.0,0.0,0.0,0.0,0.0,0.0,0.0,0.0,0.0,0.0,0.0,0.0,0.0,0.0,0.0,0.0,0.0,0.0,0.0,0.0,0.0,0.0,0.0,1.3394,1.3394,1.3394,1.3346,1.3346,1.3394,1.3636,1.3786,1.3786,1.3786,1.3912,1.4171,1.417,1.4389,1.4793,1.4912,1.4925,1.4806,1.4671,1.4327,1.3847,1.3492,1.3491,1.3786,1.3786,1.4016,1.4298,1.4298,1.4298,1.4298,1.2905,1.2905,1.2964,1.3115,1.2886,1.2742,1.2902,1.2476,1.2079,0.0,0.0,0.0,1.0875,1.0461,1.0051,0.9687,0.9159,0.8697,0.8369,0.8251,0.8109,0.7901,0.7901,0.7955,0.8057,0.7955,0.7955,0.8063,0.8063,0.8219,0.8548,0.877,0.9071,0.948,0.9851,1.0099,1.0223,1.0059,0.0,0.0,1.1681,0.0,0.0,1.2525,1.2774,0.0,0.0,0.0,1.2367,1.2288,1.1721,0.0,0.0,0.0,0.0,0.0,0.0,0.0,0.0,0.0,0.0,0.0,0.0,0.0,1.1211,1.136,0.0,0.0,0.0,0.0,0.0,0.0,0.0,0.0,0.0,0.0,0.0,0.0,0.0,0.0,0.0,0.0,0.0,0.0,0.0,0.0,1.369,1.3636,1.3491,1.3588,1.369,1.369,1.3925,1.407,1.407,1.407,1.416,1.4298,1.4315,1.4453,1.4727,1.4877,1.4948,1.5013,1.4906,1.4849,1.4767,1.4363,1.4135,1.409,1.409,1.4165,1.4298,1.4298,1.4298,1.4298,0.0,1.2949,1.3027,1.3455,1.3446,1.3494,1.3859,1.372,1.3159,0.0,1.1651,1.1064,0.9924,1.0113,1.0025,0.933,0.8753,0.8411,0.8375,0.8129,0.7991,0.7991,0.7991,0.8093,0.8327,0.8105,0.8099,0.8333,0.8333,0.8345,0.8387,0.8908,0.9236,0.9463,0.9718,1.0021,1.0308,1.0405,0.0,1.1134,1.2184,1.2491,0.0,0.0,1.3018,0.0,1.2614,1.2759,1.3083,1.2843,1.2246,0.0,0.0,0.0,0.0,0.0,0.9432,0.0,0.0,0.0,0.0,0.0,0.0,0.0,1.1372,1.1415,1.1507,0.0,0.0,0.0,0.0,0.0,0.0,0.0,0.0,0.0,0.0,0.0,0.0,0.0,0.0,0.0,0.0,0.0,1.413,1.3932,1.3913,1.3829,1.3588,1.3829,1.3931,1.3931,1.416,1.4298,1.4298,1.4298,1.4298,1.4298,1.4298,1.4431,1.4672,1.4702,1.4974,1.5403,1.5228,1.5282,1.5481,1.5276,1.4865,1.4404,1.4404,1.4404,1.4389,1.4389,1.4389,1.4389,1.3389,1.3167,1.3112,1.3584,1.3077,1.2633,1.273,1.2693,1.2492,1.2055,1.2004,1.179,1.1114,1.1022,1.0683,0.9835,0.9464,0.9185,0.8963,0.8698,0.8554,0.8554,0.8554,0.8578,0.8632,0.8578,0.8578,0.8632,0.8632,0.874,0.8951,0.923,0.9463,0.9724,1.0059,1.0238,1.0334,0.0,0.0,1.2062,1.257,0.0,1.3153,1.3684,1.3843,1.3715,1.3391,1.335,1.3399,0.0,1.265,1.2071,0.0,0.0,0.0,0.0,0.0,0.0,0.0,0.0,0.0,0.0,0.0,0.0,1.0284,1.0331,1.0532,0.0,0.0,0.0,0.0,0.0,0.0,0.0,0.0,0.0,0.0,0.0,0.0,0.0,0.0,0.0,0.0,0.0,1.3709,1.3878,1.4088,1.4202,1.4154,1.4202,1.4202,1.4202,1.425,1.4298,1.4298,1.4298,1.4298,1.4298,1.4298,1.4328,1.4389,1.4612,1.4775,1.489,1.5264,1.5451,1.5511,1.5674,1.5405,1.4927,1.4927,1.4948,1.495,1.495,1.495,1.495,1.3506,1.3533,1.3654,1.3939,1.3645,1.327,1.2989,1.2915,1.2742,1.2335,1.2334,1.196,1.0961,1.1082,1.0895,0.998,0.9666,0.9396,0.9113,0.8854,0.871,0.871,0.871,0.877,0.8896,0.8776,0.877,0.8903,0.8992,0.912,0.9254,0.955,0.9825,1.0127,1.0238,1.0379,1.0523,0.0,1.1503,1.2351,1.2953,0.0,1.3753,1.4053,1.4132,1.4016,1.3607,1.3513,1.3513,1.3513,1.2976,0.0,0.0,1.1836,1.1369,0.0,1.1099,1.1333,0.0,0.0,0.0,1.0423,0.0,0.0,0.0,1.0534,0.0,0.0,0.0,0.0,0.0,0.0,0.0,0.0,0.0,0.0,0.0,0.0,0.0,0.0,0.0,0.0,0.0,0.0,1.3568,1.3701,1.3954,1.4099,1.4099,1.4226,1.4298,1.4298,1.4298,1.4298,1.4298,1.4442,1.4496,1.4496,1.4496,1.4496,1.4502,1.4491,1.4582,1.4733,1.4992,1.5258,1.5511,1.5644,1.5614,1.5487,1.5354,1.5221,1.5107,1.5107,1.5107,1.5107,1.3407,1.3628,1.3887,1.4026,1.4165,1.4107,1.3562,1.3457,1.3236,1.2655,1.2487,1.1936,1.0748,1.1412,1.1587,1.0644,1.0408,1.0201,0.9866,0.9382,0.9065,0.9017,0.8915,0.8987,0.9245,0.8993,0.8969,0.9179,0.9389,0.9488,0.9488,0.9876,1.0168,1.0377,1.0549,1.0647,0.0,0.0,0.0,1.2625,0.0,1.386,1.4278,1.4392,1.4438,1.4334,1.3835,1.3664,1.3682,1.3791,0.0,1.2475,1.2536,1.233,0.0,0.0,0.0,0.0,0.0,0.0,0.0,0.0,0.0,1.1003,0.0,0.0,0.0,0.0,0.0,0.0,0.0,0.0,0.0,0.0,0.0,0.0,0.0,0.0,0.0,0.0,0.0,0.0,0.0,0.0,1.3371,1.3519,1.3631,1.3789,1.404,1.4206,1.4339,1.4394,1.4442,1.4442,1.4394,1.464,1.479,1.479,1.479,1.4742,1.4688,1.4496,1.4467,1.4642,1.4696,1.4956,1.5354,1.5403,1.5578,1.5801,1.5638,1.5445,1.5258,1.5258,1.5258,1.5258,1.3045,1.2886,1.2958,1.3048,1.3661,1.3986,1.3554,1.3499,1.324,1.2606,1.2172,1.1888,1.1746,0.0,0.0,0.0,0.0,0.0,1.2584,0.0,1.0358,1.0124,0.9672,0.9546,0.9811,0.9558,0.9438,0.9468,0.9659,0.9755,0.9755,1.0098,1.0289,1.0347,1.1287,0.0,0.0,0.0,1.2645,0.0,1.356,1.4113,0.0,1.5238,1.5184,1.493,1.441,1.4208,1.4141,0.0,1.3326,1.2873,0.0,1.2288,0.0,0.0,0.0,0.0,0.0,0.0,0.0,0.0,1.0894,0.0,0.0,0.0,0.0,0.0,0.0,0.0,0.0,0.0,0.0,0.0,0.0,0.0,0.0,0.0,0.0,0.0,0.0,0.0,0.0,0.0,0.0,1.3686,1.3175,1.3334,1.448,1.4363,1.4393,1.4634,1.4885,1.4885,1.464,1.4933,1.5035,1.5035,1.5035,1.4933,1.4688,1.4688,1.4562,1.4358,1.4606,1.4751,1.4823,1.5059,1.5306,1.5565,1.5765,1.5831,1.5801,1.5801,1.5801,1.5801,1.3616,1.3867,1.3888,1.3351,1.3365,1.3296,1.2751,1.3158,1.3229,1.2487,1.2367,1.2192,0.0,0.0,0.0,0.0,0.0,1.3335,0.0,0.0,1.1361,1.0351,1.0081,0.9949,0.9907,0.9898,0.9829,0.9676,0.9958,1.0085,1.0085,1.0339,1.0574,1.0816,1.156,0.0,1.1893,0.0,1.2726,0.0,0.0,0.0,0.0,1.5305,1.5309,1.5035,1.4688,1.4544,1.4459,0.0,1.3483,0.0,0.0,0.0,0.0,0.0,0.0,0.0,0.0,0.0,0.0,0.0,0.0,0.0,0.0,0.0,1.055,0.0,0.0,0.0,0.0,0.0,0.0,0.0,0.0,0.0,0.0,0.0,0.0,0.0,0.0,0.0,0.0,0.0,0.0,0.0,0.0,1.3107,1.4084,1.4341,1.4528,1.4641,1.4946,1.5035,1.4933,1.522,1.5309,1.5309,1.5309,1.5172,1.4933,1.479,1.4544,1.4304,1.4425,1.4564,1.4727,1.4835,1.5034,1.5294,1.5559,1.5759,1.5891,1.5891,1.5891,1.5891,1.405,1.4349,1.4198,1.3341,1.3262,1.3064,1.2416,1.281,1.2952,1.2378,0.0,0.0,1.2008,1.2378,0.0,0.0,1.3966,1.377,0.0,0.0,1.2344,0.0,0.0,0.0,1.0632,1.0312,1.0005,0.9804,1.0085,1.0276,1.0418,1.0617,1.0883,1.1203,0.0,1.2314,1.2574,0.0,0.0,1.3701,1.3793,1.4193,1.4792,1.5318,1.5356,1.5172,1.4831,1.4688,1.4669,1.4555,1.3965,0.0,1.4383,0.0,0.0,0.0,0.0,0.0,1.1593,0.0,0.0,0.0,0.0,0.0,0.0,0.0,0.0,0.0,0.0,0.0,0.0,0.0,0.0,0.0,0.0,0.0,0.0,0.0,0.0,0.0,0.0,0.0,0.0,0.0,0.0,0.0,0.0,0.0,1.3941,1.4295,1.4544,1.4697,1.4995,1.519,1.522,1.5452,1.5588,1.5588,1.5588,1.5452,1.522,1.5029,1.4729,1.4394,1.4394,1.4461,1.46,1.46,1.4763,1.5028,1.5288,1.5553,1.5795,1.5861,1.5891,1.5891,1.4073,1.3503,1.2935,1.252,1.3339,1.3801,1.3001,1.2568,1.2342,1.2305,0.0,0.0,0.0,0.0,0.0,0.0,0.0,1.5263,1.4223,0.0,1.342,0.0,0.0,1.1803,0.0,1.0798,0.9873,0.9804,0.9958,1.0251,1.0679,1.0877,1.1142,1.1429,1.2368,1.2764,1.2824,1.336,1.4108,1.4928,1.4603,1.4843,1.5398,0.0,1.5493,1.5397,1.4879,0.0,0.0,1.493,1.4937,0.0,0.0,0.0,0.0,0.0,0.0,0.0,0.0,0.0,0.0,1.1458,0.0,0.0,0.0,0.0,1.1309,0.0,0.0,0.0,0.0,0.0,0.0,0.0,0.0,0.0,0.0,0.0,0.0,0.0,0.0,0.0,0.0,0.0,0.0,0.0,0.0,0.0,1.4356,1.4318,1.4448,1.4949,1.5266,1.5405,1.5493,1.5689,1.5778,1.5778,1.5778,1.5683,1.5493,1.5493,1.5213,1.4688,1.4688,1.455,1.431,1.431,1.4473,1.4757,1.5016,1.5282,1.5541,1.5795,1.5891,1.5891,1.4143,1.411,1.3834,1.294,1.3157,1.3363,1.3066,1.2785,1.2879,0.0,0.0,0.0,0.0,1.563,1.6349,0.0,0.0,1.7288,1.6751,1.63,0.0,0.0,0.0,1.2557,0.0,0.0,0.0,1.1122,1.1786,1.1943,1.1553,1.162,1.1539,1.1362,0.0,1.2929,0.0,0.0,0.0,0.0,0.0,1.5082,1.5497,0.0,0.0,1.6465,1.6757,1.6875,0.0,1.6042,1.5418,1.5132,1.5798,1.5322,1.4634,1.5482,1.5605,0.0,0.0,0.0,1.4139,1.2725,0.0,0.0,0.0,0.0,0.0,0.0,0.0,0.0,0.0,0.0,0.0,0.0,0.0,0.0,0.0,0.0,0.0,0.0,0.0,0.0,0.0,0.0,0.0,0.0,0.0,0.0,0.0,1.4329,1.4571,1.5006,1.5245,1.5491,1.5683,1.5784,1.5784,1.5784,1.5683,1.5452,1.522,1.507,1.4783,1.4448,1.4448,1.4394,1.4298,1.4298,1.4352,1.4467,1.4739,1.501,1.5294,1.5728,1.5891,1.5891,1.4358,1.4504,1.4456,1.3725,1.3518,1.3282,1.282,0.0,0.0,0.0,1.4616,0.0,1.6329,0.0,1.7214,0.0,1.8404,1.8017,1.7051,1.7435,0.0,1.5905,1.4885,0.0,0.0,0.0,0.0,0.0,0.0,1.2502,1.2144,1.1861,1.1814,1.2001,0.0,1.2923,1.3955,0.0,1.494,0.0,0.0,1.597,0.0,0.0,1.7319,1.6865,0.0,1.7902,1.78,1.7308,1.6782,1.6519,1.7374,1.681,1.6046,1.7011,1.7051,1.6698,1.6122,1.6023,0.0,1.4292,1.3722,0.0,1.1815,0.0,0.0,0.0,0.0,0.0,0.0,0.0,0.0,0.0,0.0,0.0,0.0,0.9324,0.0,0.0,0.0,0.0,0.0,0.0,0.0,0.0,0.0,0.0,0.0,0.0,1.4549,1.4995,1.5189,1.5431,1.5778,1.573,1.5689,1.5689,1.5452,1.5267,1.5083,1.4933,1.4688,1.4442,1.4442,1.4394,1.4298,1.4298,1.4298,1.4334,1.4708,1.4956,1.5161,1.5596,1.5807,1.5891,1.4718,1.4777,1.4761,0.0,1.4368,0.0,0.0,0.0,1.4467,0.0,1.5654,1.6943,1.7304,1.7851,1.8304,1.8562,1.8592,0.0,1.5663,1.7296,0.0,0.0,1.6734,1.7152,1.7641,0.0,0.0,0.0,0.0,0.0,1.2487,1.1777,1.2074,1.3193,1.2409,0.0,1.423,1.5206,1.6154,1.7012,1.7123,1.7345,1.7741,1.8783,1.8147,1.6786,1.7617,1.7923,1.8016,1.8658,1.8827,1.9004,1.9945,1.96,1.8796,1.8842,1.888,1.8553,1.7092,1.7365,1.7687,1.6171,0.0,0.0,0.0,0.0,1.4598,0.0,0.0,0.0,0.0,0.0,0.0,0.0,0.0,0.0,0.0,0.0,0.0,0.0,0.0,0.0,0.0,0.0,0.0,0.0,0.0,0.0,0.0,0.0,0.0,1.4988,1.5008,1.5244,1.5778,1.5588,1.5493,1.5493,1.522,1.5083,1.5083,1.5083,1.4933,1.4688,1.4688,1.4544,1.4298,1.4298,1.4298,1.4346,1.4883,1.5107,1.5161,1.5421,1.5674,1.5891,1.5137,1.5531,1.5774,0.0,1.4536,1.3956,0.0,0.0,0.0,0.0,1.789,1.9048,2.0708,2.1028,2.1133,2.1227,2.1236,0.0,0.0,0.0,0.0,2.0065,1.8547,1.7919,1.8309,1.6365,0.0,1.5002,0.0,0.0,1.4047,1.3825,1.3627,1.3433,0.0,0.0,1.4921,1.5367,1.608,1.7082,1.7903,1.799,0.0,0.0,1.9873,1.916,2.0309,2.0774,2.0632,1.9814,1.9407,1.9287,1.942,1.9188,1.8934,1.9683,1.9911,1.9832,1.9414,1.8986,1.8404,1.7616,1.684,1.6078,0.0,0.0,0.0,0.0,0.0,0.0,0.0,0.0,0.0,0.0,0.0,0.0,0.0,0.0,0.0,0.0,0.0,0.0,0.0,0.0,0.0,0.0,0.0,0.0,0.0,0.0,0.0,1.4975,1.4822,1.4963,1.5581,1.554,1.5404,1.522,1.4933,1.479,1.479,1.4592,1.4496,1.4394,1.4394,1.4346,1.4298,1.4298,1.4298,1.4334,1.4684,1.5059,1.5433,1.5692,1.5831,1.5891,1.572,1.6319,0.0,1.5576,0.0,0.0,1.5053,0.0,0.0,1.8219,1.9239,0.0,2.167,2.214,2.2487,2.2691,2.2487,0.0,2.1278,0.0,0.0,2.0587,1.9853,1.9596,1.9841,1.8433,0.0,1.6453,0.0,0.0,1.4601,1.4279,1.4106,1.4106,0.0,1.4381,0.0,1.6598,1.762,1.8446,1.9266,0.0,0.0,2.0643,2.112,2.1183,2.1882,2.193,2.15,2.0772,2.0399,2.0274,2.0171,1.9972,1.9832,2.0402,2.0429,2.0292,2.0292,1.9874,1.9393,1.9087,1.858,1.7892,1.6935,1.7106,1.7281,0.0,0.0,0.0,0.0,0.0,0.0,0.0,0.0,0.0,0.0,0.0,0.0,0.0,0.0,0.0,0.0,0.0,0.0,0.0,0.0,0.0,0.0,0.0,0.0,1.4427,1.4313,1.4605,1.5302,1.5091,1.4949,1.4933,1.464,1.4544,1.4538,1.4394,1.4298,1.4298,1.4298,1.4298,1.4298,1.4298,1.437,1.4521,1.4908,1.5312,1.5686,1.5831,1.5891,1.5891,1.6308,0.0,0.0,0.0,0.0,0.0,0.0,1.7611,0.0,1.8799,0.0,2.1251,2.159,2.2334,2.2991,2.3497,0.0,2.2306,2.1056,2.1732,2.1539,2.0054,2.0923,2.149,2.149,2.0703,0.0,0.0,0.0,0.0,1.4752,1.4114,1.4222,0.0,0.0,0.0,0.0,1.8165,1.9519,0.0,2.0735,2.1131,2.1422,2.1516,2.197,2.2594,2.2594,2.2173,2.155,2.1508,2.149,2.1482,2.1422,2.1199,2.0951,2.0951,2.0677,2.0369,2.0369,2.0335,2.0292,2.0292,2.0292,1.994,1.8614,1.8831,1.9049,1.8014,1.7535,1.7589,0.0,0.0,0.0,0.0,0.0,0.0,0.0,0.0,0.0,0.0,0.0,0.0,0.0,0.0,0.0,0.0,0.0,0.0,0.0,0.0,0.0,0.0,1.3818,0.0,1.4972,0.0,1.444,1.459,1.4376,1.4298,1.4298,1.4298,1.4298,1.4298,1.4298,1.4298,1.4298,1.4298,1.4485,1.4817,1.5306,1.5656,1.5891,1.5891,1.5891,1.5891,0.0,0.0,0.0,0.0,0.0,1.9445,1.9533,1.9932,2.0459,2.1143,2.1939,2.2726,2.3362,2.3558,2.3856,2.4278,2.42,0.0,0.0,0.0,0.0,2.2511,2.2085,2.1893,2.1893,2.084,1.9683,0.0,0.0,0.0,1.5576,1.547,1.547,0.0,0.0,0.0,1.7609,1.8363,0.0,2.0357,2.1011,2.1353,2.1482,2.2156,2.2482,2.2594,2.2594,2.2508,2.2345,2.1996,2.1893,2.1833,2.1508,2.1362,2.1319,2.1319,2.1062,2.078,2.078,2.054,2.0292,2.0292,2.0292,2.0212,1.994,2.0005,2.0033,1.9822,1.9762,1.9492,1.8751,0.0,0.0,0.0,0.0,0.0,0.0,0.0,0.0,0.0,0.0,0.0,0.0,0.0,0.0,0.0,0.0,0.0,0.0,0.0,0.0,0.0,0.0,0.0,0.0,0.0,0.0,1.4025,1.4243,1.4298,1.4298,1.4298,1.4298,1.4298,1.4298,1.4298,1.4298,1.4298,1.4588,1.5071,1.5378,1.5656,1.5891,1.5891,1.5891,1.5891,0.0,0.0,0.0,0.0,0.0,0.0,0.0,2.1748,0.0,2.1907,2.2169,2.2656,2.3366,2.3634,2.3992,2.4438,2.4246,2.4088,2.4088,2.3774,2.3574,2.34,2.2869,0.0,2.2578,2.1841,2.0617,1.8888,0.0,0.0,1.5805,1.5805,0.0,0.0,0.0,1.7325,0.0,0.0,0.0,2.0942,2.1696,2.1996,2.2038,2.2457,2.2594,2.2594,2.2594,2.2594,2.2568,2.2388,2.2328,2.2294,2.2064,2.1867,2.1713,2.1713,2.1448,2.1156,2.1156,2.0883,2.0591,2.0591,2.0446,2.0292,2.0292,2.0292,2.0292,2.0292,2.0292,1.9941,1.8793,1.7515,0.0,0.0,0.0,0.0,0.0,0.0,0.0,0.0,0.0,0.0,0.0,0.0,0.0,0.0,0.0,0.0,0.0,0.0,0.0,0.0,0.0,0.0,0.0,0.0,0.0,1.4111,1.475,1.5092,1.5092,1.5609,1.5846,1.5846,1.5283,1.5134,1.5251,1.5004,1.5071,1.5336,1.5602,1.5777,1.5891,1.5891,1.6258,1.6789,0.0,1.9144,0.0,0.0,2.0663,0.0,2.2013,2.3003,2.3331,2.2474,2.2405,2.2643,2.3218,2.3582,2.4032,2.4544,2.418,2.402,2.4225,2.396,2.3811,2.3785,2.3425,2.3194,2.3117,2.2818,2.1684,0.0,0.0,0.0,0.0,0.0,0.0,0.0,0.0,0.0,0.0,0.0,2.143,2.1704,2.2354,2.2594,2.2594,2.2594,2.2594,2.2594,2.2594,2.2594,2.2594,2.2594,2.2594,2.2594,2.2594,2.2397,2.2115,2.2115,2.1833,2.1533,2.1533,2.1268,2.0994,2.0994,2.0703,2.042,2.042,2.0352,2.0292,2.0292,2.0292,1.9966,1.8905,1.8551,0.0,0.0,0.0,0.0,0.0,0.0,0.0,0.0,0.0,0.0,0.0,0.0,0.0,0.0,0.0,0.0,0.0,0.0,0.0,0.0,0.0,1.3732,1.4362,0.0,1.4709,0.0,1.5718,1.6123,1.617,1.6915,1.7296,1.725,1.6569,1.6402,1.6632,1.6311,1.6213,1.6238,1.6516,1.6617,1.6617,1.6617,1.7147,1.7996,0.0,0.0,0.0,0.0,0.0,0.0,0.0,2.3384,2.3904,2.3564,2.3774,2.3974,2.4087,2.4136,2.4324,2.4739,2.471,2.471,2.471,2.4376,2.4125,2.4125,2.3811,2.3451,2.3117,2.3083,2.2295,0.0,0.0,0.0,0.0,0.0,0.0,0.0,0.0,0.0,0.0,2.084,2.1564,2.25,2.2568,2.2594,2.2594,2.2594,2.2594,2.2594,2.2594,2.2594,2.2594,2.2594,2.2594,2.2594,2.2594,2.2568,2.2542,2.2542,2.2285,2.1944,2.1944,2.1653,2.1362,2.1362,2.1088,2.0823,2.0823,2.0549,2.0292,2.0292,2.0292,2.0052,1.9307,1.9459,1.9232,0.0,0.0,0.0,0.0,0.0,0.0,0.0,0.0,0.0,0.0,0.0,0.0,0.0,0.0,0.0,0.0,0.0,0.0,1.3851,0.0,1.4492,1.4579,1.6151,0.0,1.6637,1.7018,1.7156,1.7149,1.725,1.7296,1.7311,1.7571,1.787,1.8233,1.8405,1.8499,1.8528,1.8794,1.8916,1.8916,1.8916,1.8968,1.9176,0.0,0.0,0.0,0.0,0.0,0.0,0.0,2.3917,2.4192,2.4324,2.4261,2.4261,2.4547,2.4581,2.4595,2.4804,2.4821,2.4821,2.4821,2.4675,2.4581,2.4581,2.4213,2.3931,2.374,2.358,2.2723,0.0,0.0,0.0,0.0,0.0,0.0,0.0,0.0,2.0071,2.0925,2.1641,2.2191,2.2594,2.2594,2.2594,2.2594,2.2594,2.2594,2.2594,2.2594,2.2594,2.2594,2.2594,2.2594,2.2594,2.2594,2.2594,2.2594,2.2594,2.2491,2.2379,2.2379,2.2047,2.1764,2.1764,2.1482,2.1139,2.0925,2.0754,2.0574,2.0343,2.0292,2.0198,1.9898,1.9895,1.992,0.0,0.0,0.0,0.0,0.0,0.0,0.0,0.0,0.0,0.0,0.0,0.0,0.0,0.0,0.0,0.0,0.0,0.0,1.4018,0.0,1.5866,1.5542,1.6733,1.723,1.7152,1.7841,1.818,1.8226,1.8842,1.8907,1.8573,1.9128,1.8969,1.8383,1.8613,1.8585,1.8382,1.8505,1.8556,1.8556,1.8556,1.8959,1.961,2.2304,0.0,2.2561,0.0,2.322,2.3348,2.4264,2.4401,2.4504,2.4787,2.4526,2.4458,2.4795,2.4821,2.4821,2.4821,2.4821,2.4821,2.4821,2.4821,2.4821,2.4821,2.4556,0.0,2.4185,2.399,2.3271,2.2073,2.1097,0.0,0.0,0.0,0.0,0.0,2.0523,2.1109,2.147,2.2259,2.2594,2.2594,2.2594,2.2594,2.2594,2.2594,2.2594,2.2594,2.2594,2.2594,2.2594,2.2594,2.2594,2.2594,2.2594,2.2594,2.2594,2.2594,2.2594,2.2594,2.2594,2.2405,2.2158,2.2158,2.1867,2.1516,2.1268,2.1037,2.0818,2.0551,2.051,2.0555,2.0699,2.0563,2.0634,2.1275,0.0,0.0,0.0,0.0,0.0,0.0,0.0,1.8387,0.0,0.0,0.0,0.0,0.0,0.0,0.0,0.0,0.0,0.0,0.0,0.0,0.0,1.775,1.818,1.818,1.8888,1.9255,1.9255,1.9965,2.018,1.9987,2.0346,1.9987,1.9218,1.9548,1.9551,1.9285,1.9439,1.9439,1.9293,1.9341,1.9836,2.0378,2.3032,2.31,2.334,2.4031,2.4159,2.4296,2.4753,2.4812,2.4812,2.4821,2.4812,2.4812,2.4821,2.4821,2.4821,2.4821,2.4821,2.4821,2.4821,2.4821,2.4821,0.0,0.0,2.4633,2.4185,2.4176,2.4033,2.3684,0.0,0.0,2.1336,0.0,1.9769,2.0857,2.0874,2.1538,2.2577,2.2594,2.2594,2.2594,2.2594,2.2594,2.2594,2.2594,2.2594,2.2594,2.2594,2.2594,2.2594,2.2594,2.2594,2.2594,2.2594,2.2594,2.2594,2.2594,2.2594,2.2594,2.2594,2.2594,2.2594,2.2594,2.2311,2.1987,2.1987,2.1413,2.0902,2.0995,2.0988,2.1132,2.1597,2.1687,2.1456,2.0725,0.0,0.0,0.0,0.0,0.0,0.0,1.9014,1.8581,1.9307,0.0,0.0,0.0,0.0,0.0,0.0,0.0,0.0,1.8759,1.8301,0.0,1.8647,1.972,2.0246,2.0246,2.0292,2.0292,2.0292,2.0292,2.0694,2.1379,2.1037,2.1088,2.1413,2.1873,2.2064,2.2102,2.2603,2.2508,2.2102,2.2375,2.2185,2.1787,2.3853,2.4093,2.435,2.459,2.4633,2.4675,2.4804,2.4821,2.4821,2.4821,2.4821,2.4821,2.4821,2.4821,2.4821,0.0,2.4821,2.4821,0.0,2.4821,2.4821,2.4821,2.4821,2.4761,2.4633,2.4633,2.4444,2.405,0.0,0.0,0.0,2.1319,2.143,2.2062,2.2062,2.2259,2.2594,2.2594,2.2594,2.2594,2.2594,2.2594,2.2594,2.2594,2.2594,2.2594,2.2594,2.2594,2.2594,2.2594,2.2594,2.2594,2.2594,2.2594,2.2594,2.2594,2.2594,2.2594,2.2594,2.2594,2.2594,2.2594,2.2508,2.2354,2.2055,2.1422,2.0886,2.0943,2.0965,2.1042,2.1186,2.1767,2.2082,2.1864,2.2436,0.0,0.0,0.0,0.0,0.0,0.0,1.851,0.0,1.8175,0.0,0.0,0.0,0.0,0.0,0.0,0.0,0.0,1.9153,0.0,1.9033,1.987,2.0292,2.0292,2.0292,2.0292,2.03,2.0566,2.0823,2.1062,2.1182,2.1165,2.1092,2.1553,2.1525,2.1195,2.167,2.1661,2.1361,2.147,2.1369,2.1313,2.4453,2.465,2.4821,2.4821,2.4821,2.4821,2.4821,2.4821,2.4872,2.5009,2.5026,2.5078,2.5223,2.5184,0.0,2.5044,2.5026,2.5026,2.5026,2.4898,2.4821,2.4821,2.4821,2.4821,2.4821,0.0,0.0,2.4453,2.3836,2.322,2.2621,2.2621,2.2791,2.3014,2.2869,2.2808,2.28,2.2654,2.2594,2.2594,2.2594,2.2594,2.2594,2.2594,2.2594,2.2594,2.2594,2.2594,2.2594,2.2594,2.2594,2.2594,2.2594,2.2594,2.2594,2.2594,2.2594,2.2594,2.2594,2.2594,2.2644,2.2837,2.2837,2.2741,2.2377,2.1926,2.1548,2.1214,2.1175,2.131,2.1472,2.1856,2.2264,2.2608,2.274,2.2809,2.2672,0.0,0.0,0.0,0.0,0.0,0.0,1.9535,0.0,0.0,0.0,0.0,0.0,0.0,0.0,2.0005,2.0551,0.0,2.0418,2.0678,2.0835,2.0835,2.0835,2.0905,2.1046,2.116,2.1292,2.1424,2.1511,2.1377,2.1258,2.1707,2.1554,2.115,2.1696,2.1698,2.1391,2.1419,2.1509,2.1633,2.4821,2.4821,0.0,0.0,2.4838,0.0,2.4864,2.4881,2.5026,2.536,2.5403,2.554,2.5842,2.5902,2.5831,2.548,0.0,0.0,0.0,2.5061,2.4864,2.4864,2.4838,2.4821,2.4821,2.4821,2.4821,2.4821,2.4453,2.4076,2.3752,2.3752,2.3744,2.3701,2.3306,2.3151,2.3134,2.2826,2.2671,2.2671,2.2671,2.2663,2.2637,2.2637,2.262,2.2594,2.2594,2.2594,2.2594,2.2644,2.2644,2.2644,2.2695,2.2695,2.2695,2.2594,2.2594,2.2594,2.2594,2.2594,2.2695,2.3129,2.3279,2.324,2.2944,2.2846,2.2615,2.1877,2.1755,2.1888,2.2377,2.2134,2.2124,2.2969,2.2692,2.2265,2.1951,0.0,0.0,0.0,0.0,0.0,0.0,2.1326,2.1757,0.0,0.0,0.0,0.0,0.0,1.9854,2.2935,2.2176,2.1909,2.2353,2.1909,2.1696,2.1696,2.1696,2.1888,2.2272,2.1861,2.1888,2.2217,2.1851,2.1696,2.1741,2.222,2.2132,2.1785,2.253,2.2464,2.2034,2.2085,2.2345,2.2559,0.0,0.0,2.4821,2.4821,2.5052,2.5241,2.5241,2.5489,2.5645,2.5788,2.5806,2.584,2.5867,2.6191,2.6319,2.6234,2.5968,2.5806,2.5806,2.5446,2.5241,2.5241,2.4967,2.4821,2.4821,2.4821,2.4821,2.4821,2.4727,2.4479,2.4102,2.4102,2.3956,2.3691,2.358,2.3545,2.3554,2.3443,2.3452,2.3452,2.3452,2.328,2.298,2.298,2.28,2.2594,2.2594,2.2594,2.2644,2.3038,2.3129,2.3238,2.3637,2.3737,2.3587,2.2846,2.2594,2.2594,2.2594,2.2594,2.2644,2.2745,2.3038,2.3411,2.3718,2.3611,2.3377,2.3185,2.3185,2.3176,2.2955,2.314,2.3258,2.3106,2.2469,2.1984,2.1914,2.1349,0.0,0.0,2.044,2.079,2.1673,2.1761,2.161,0.0,0.0,0.0,0.0,2.08,2.1193,2.2536,2.1998,2.1731,2.1865,2.1785,2.1696,2.1696,2.1696,2.1742,2.1824,2.1733,2.1742,2.1824,2.1733,2.1696,2.1741,2.222,2.222,2.2052,2.2583,2.2508,2.213,2.2433,2.2492,2.2409,2.5269,2.5269,2.5269,2.5269,2.5497,2.5634,2.5634,2.6036,2.64,2.6565,2.6874,2.7011,2.6844,2.7044,2.7046,2.6816,2.6414,2.6191,2.6191,2.584,2.5634,2.5634,2.5266,2.5181,2.5405,2.5287,2.5366,2.5633,2.5633,2.5518,2.5296,2.5296,2.5037,2.4628,2.4428,2.4198,2.3931,2.3742,2.3718,2.3718,2.3674,2.3554,2.3365,2.3365,2.3134,2.2809,2.2809,2.274,2.2695,2.3129,2.3279,2.3379,2.3926,2.4084,2.3985,2.3438,2.3288,2.3238,2.2987,2.2937,2.2937,2.2937,2.3488,2.4035,2.4084,2.4156,2.4098,2.3662,2.3641,2.3598,2.3426,2.3417,2.3487,2.3432,2.2559,2.1885,2.1885,2.1163,0.0,2.1163,2.1212,2.1514,2.2373,2.2461,2.2269,2.1807,0.0,0.0,2.1807,2.2019,2.2313,2.2731,2.2485,2.2344,2.2344,2.2344,2.2344,2.2344,2.2344,2.2447,2.2636,2.2636,2.274,2.2909,2.2909,2.2909,2.2955,2.3226,2.3031,2.2601,2.2949,2.2725,2.2187,2.2368,2.2483,2.2574,2.6166,2.6166,2.6166,2.6166,2.6209,2.6252,2.6252,2.6826,2.7325,2.7579,2.8151,2.8405,2.8164,2.814,2.79,2.7315,2.6944,2.6695,2.6576,2.6225,2.5961,2.5961,2.5652,2.5656,2.6048,2.5827,2.5953,2.6436,2.6545,2.66,2.66,2.66,2.6336,2.5826,2.5478,2.5057,2.4561,2.4232,2.4147,2.4156,2.412,2.4085,2.4069,2.4069,2.373,2.3307,2.3307,2.3057,2.273,2.3226,2.3373,2.3529,2.4026,2.4282,2.4332,2.4332,2.4332,2.4233,2.3578,2.3429,2.3429,2.3529,2.4233,2.4784,2.443,2.4677,2.4827,2.4082,2.391,2.3924,2.3899,2.3621,2.3472,2.3676,2.2676,2.1865,2.1797,0.0,2.0967,2.1787,2.2002,2.2353,2.3023,2.3091,2.3091,2.3091,2.3091,2.3091,0.0,2.3091,2.3091,2.3091,2.3091,2.3091,2.3091,2.3159,2.3198,2.3198,2.3257,2.3481,2.3887,2.3887,2.4082,2.4414,2.4368,2.4322,2.4322,2.4331,2.3842,2.3216,2.3389,2.306,2.2428,2.2323,2.2547,2.2849,2.748,2.748,2.748,2.748,2.7809,2.8028,2.8028,2.8387,2.8701,2.8756,2.8824,2.8911,2.8856,2.8865,2.8558,2.79,2.7778,2.7572,2.7048,2.6619,2.6405,2.6405,2.6045,2.576,2.5548,2.5661,2.5734,2.5844,2.6336,2.66,2.66,2.66,2.6545,2.6436,2.6372,2.6345,2.6227,2.6173,2.6136,2.6136,2.6145,2.5945,2.5645,2.5645,2.5092,2.4385,2.4385,2.3765,2.3074,2.3639,2.3865,2.4084,2.4587,2.5088,2.543,2.543,2.543,2.5235,2.4233,2.3985,2.4084,2.4529,2.4784,2.4981,2.5391,2.5538,2.5518,2.5402,2.5382,2.5247,2.4954,2.4818,2.4419,2.3374,2.248,2.1758,2.1346,0.0,2.1318,2.1826,2.251,2.2955,2.3081,2.3091,2.3091,2.3091,2.3091,2.3091,2.3091,2.3091,2.3091,2.3091,2.3091,2.3091,2.3091,2.3506,2.3691,2.3691,2.4053,2.4258,2.4316,2.4316,2.4355,2.4368,2.4173,2.4081,2.4034,2.3887,2.3719,2.3615,2.3662,2.3429,2.3131,2.3122,2.3037,2.2849,2.8425,2.8425,2.8425,2.8425,2.8572,2.8691,2.8691,2.9151,2.945,2.945,2.9813,2.9872,2.9509,2.945,2.9222,2.8618,2.8558,2.8448,2.8148,2.7322,2.6807,2.6807,2.6439,2.6345,2.6706,2.6864,2.7096,2.7416,2.7481,2.753,2.753,2.753,2.7368,2.7043,2.7043,2.6871,2.66,2.66,2.66,2.66,2.66,2.6499,2.6324,2.6324,2.5925,2.5367,2.5367,2.4947,2.4441,2.4966,2.5048,2.5014,2.553,2.5722,2.5693,2.5693,2.5489,2.5137,2.4686,2.4332,2.4183,2.443,2.4686,2.4981,2.5235,2.5489,2.5693,2.5693,2.5693,2.5625,2.5469,2.5234,2.4795,2.3919,2.3071,0.0,0.0,2.237,2.2379,2.2861,2.3252,2.3398,2.312,2.3091,2.3091,2.3091,2.3315,2.3486,2.3486,2.3656,2.3783,2.3783,2.3603,2.3594,2.3783,2.4023,2.4121,2.4131,2.4326,2.4541,2.4766,2.4766,2.4902,2.5079,2.4832,2.4689,2.4689,2.4459,2.424,2.3994,2.3994,2.3721,2.3289,2.3289,2.3148,2.2849,2.9213,2.934,2.9459,2.9459,2.9459,2.9459,2.9459,2.9813,3.0108,3.0108,3.0587,3.0713,3.0167,3.0108,2.9872,2.9272,2.9213,2.9163,2.8984,2.8089,2.7556,2.7556,2.7173,2.7225,2.7911,2.8117,2.8401,2.8843,2.8598,2.8437,2.8437,2.834,2.8023,2.7593,2.7593,2.7368,2.698,2.698,2.698,2.698,2.698,2.698,2.698,2.698,2.674,2.631,2.631,2.5989,2.5586,2.6003,2.5998,2.5809,2.6222,2.6131,2.584,2.584,2.5517,2.5088,2.5088,2.4784,2.448,2.448,2.4784,2.5088,2.5088,2.5391,2.5693,2.5693,2.5693,2.5693,2.5693,2.5459,2.5049,2.4502,0.0,0.0,0.0,2.3496,2.3447,2.3887,2.3935,2.3799,2.3422,2.3393,2.3393,2.3393,2.3695,2.3845,2.3845,2.411,2.4287,2.4384,2.4114,2.4092,2.4414,2.4521,2.4524,2.4487,2.4584,2.4751,2.5072,2.5072,2.5218,2.5489,2.5235,2.5137,2.5079,2.4843,2.4557,2.4275,2.4275,2.3943,2.3511,2.3371,2.324,2.2986,2.9804,3.0352,3.0772,3.0772,3.0772,3.0772,3.0772,3.0772,3.083,3.083,3.0889,3.0889,3.083,3.083,3.0587,2.9872,2.9804,2.9577,2.9044,2.8925,2.8865,2.8865,2.8454,2.8284,2.8364,2.8549,2.8681,2.8728,2.8807,2.8877,2.8867,2.8476,2.8291,2.8237,2.8237,2.8184,2.8184,2.8184,2.8184,2.8184,2.8184,2.8184,2.8184,2.8184,2.7789,2.7276,2.7276,2.6735,2.5966,2.6019,2.6057,2.6176,2.6186,2.6266,2.6338,2.6338,2.6005,2.5635,2.5635,2.5586,2.5586,2.5586,2.5586,2.5635,2.5635,2.5684,2.5693,2.5693,2.5693,2.5693,2.5693,2.5664,2.5362,2.4551,0.0,0.0,2.3838,2.376,2.3896,2.4316,2.4375,2.4355,2.4326,2.4326,2.4326,2.4326,2.4115,2.3986,2.3986,2.3821,2.3937,2.4317,2.433,2.4385,2.4414,2.4814,2.4935,2.4679,2.5054,2.511,2.4933,2.4933,2.4952,2.4932,2.4686,2.4578,2.4529,2.435,2.4233,2.4205,2.4205,2.4187,2.4064,2.3639,2.3453,2.3398,2.9804,3.0108,3.0284,3.0284,3.0645,3.0889,3.0889,3.0889,3.0889,3.0889,3.0889,3.0889,3.0889,3.0889,3.0772,3.0528,3.0528,3.0411,3.0176,3.0176,2.9823,2.9044,2.8828,2.8923,2.9325,2.9163,2.9232,2.9611,2.942,2.9189,2.8916,2.875,2.8545,2.8291,2.8291,2.8291,2.8291,2.8291,2.8291,2.8291,2.8291,2.8291,2.8291,2.8291,2.8184,2.797,2.797,2.7703,2.7409,2.7409,2.729,2.7153,2.7153,2.6965,2.6728,2.6465,2.6269,2.6084,2.5762,2.5693,2.5693,2.5693,2.5693,2.5693,2.5693,2.5693,2.5693,2.5693,2.5693,2.5693,2.5693,2.5693,2.5537,2.4922,0.0,2.5078,2.4639,2.4824,2.4866,2.4618,2.4609,2.4408,2.4009,2.41,2.4127,2.4127,2.4341,2.441,2.441,2.4421,2.4495,2.4646,2.4688,2.4794,2.4938,2.4958,2.4996,2.5054,2.5061,2.4981,2.4883,2.4883,2.4883,2.4883,2.4637,2.448,2.448,2.4291,2.4202,2.4202,2.4202,2.4202,2.4183,2.3978,2.3923,2.3868,2.9813,3.0049,3.0225,3.0225,3.0587,3.0889,3.0889,3.0889,3.0889,3.0889,3.0889,3.0889,3.0889,3.0889,3.0889,3.0889,3.0889,3.0889,3.0889,3.0889,3.0538,2.9636,2.9577,2.9813,3.0225,2.9948,3.0026,3.042,2.998,2.9609,2.9316,2.918,2.8896,2.8496,2.8496,2.8418,2.8291,2.8291,2.8291,2.8291,2.8291,2.8291,2.8291,2.8291,2.8291,2.8291,2.8291,2.8291,2.8291,2.8291,2.8096,2.7861,2.7861,2.7568,2.7139,2.6709,2.6592,2.6484,2.6064,2.5947,2.5859,2.5723,2.5693,2.5693,2.5693,2.5693,2.5693,2.5693,2.5693,2.5693,2.5693,2.5635,2.5489,2.5226,2.5382,2.548,2.5226,2.5392,2.5382,2.4948,2.4814,2.4555,2.4127,2.4221,2.4297,2.4297,2.4488,2.4621,2.4573,2.4643,2.4695,2.4695,2.4695,2.4784,2.5039,2.4941,2.4932,2.5039,2.4883,2.4735,2.4695,2.4695,2.4695,2.4686,2.4489,2.439,2.439,2.4251,2.4202,2.4202,2.4202,2.4202,2.4202,2.4202,2.4202,2.4165,2.9813,3.047,3.0889,3.0889,3.0889,3.0889,3.0889,3.0889,3.0889,3.0889,3.0889,3.0889,3.0889,3.0889,3.0889,3.0889,3.0889,3.0889,3.0889,3.0889,3.0889,3.0889,3.0889,3.0889,3.0889,3.0889,3.0889,3.0889,3.043,3.0205,3.0185,2.9766,2.9346,2.8926,2.8916,2.8682,2.8301,2.8291,2.8291,2.8291,2.8291,2.8291,2.8291,2.8291,2.8291,2.8291,2.8291,2.8291,2.8291,2.8291,2.8291,2.8291,2.8291,2.8008,2.764,2.7148,2.7021,2.6924,2.6504,2.6396,2.6289,2.5801,2.5693,2.5693,2.5693,2.5693,2.5693,2.5693,2.5693,2.5693,2.5693,2.5489,2.5284,2.5284,2.5284,2.5284,2.5284,2.5284,2.5284,2.5284,2.5088,2.4883,2.4883,2.4883,2.4883,2.4883,2.4627,2.439,2.4202,2.4202,2.4202,2.4202,2.4202,2.4301,2.448,2.4784,2.4784,2.448,2.448,2.439,2.4202,2.4202,2.4202,2.4202,2.4202,2.4202,2.4202,2.4202,2.4202,2.4202,2.4202,2.4202,2.4202,2.4202,2.4202,2.4202,2.9813,3.0049,3.0225,3.0225,3.0401,3.0635,3.0889,3.0704,3.0635,3.0889,3.0889,3.0889,3.0889,3.0889,3.0889,3.0889,3.0889,3.0889,3.0889,3.0889,3.0889,3.0889,3.0889,3.0889,3.0889,3.0889,3.0889,3.0889,3.0752,3.0518,3.0195,3.0068,2.9785,2.9365,2.9053,2.8848,2.8711,2.8418,2.8291,2.8291,2.8291,2.8291,2.8291,2.8291,2.8291,2.8291,2.8291,2.8291,2.8291,2.8291,2.8291,2.8291,2.8291,2.8203,2.8027,2.7598,2.7305,2.7095,2.6892,2.6674,2.6398,2.582,2.5538,2.544,2.544,2.544,2.544,2.544,2.5586,2.5693,2.5693,2.5489,2.5284,2.5284,2.5137,2.503,2.503,2.503,2.4941,2.4784,2.4686,2.4538,2.4449,2.4538,2.4637,2.4637,2.4538,2.439,2.4202,2.4202,2.4202,2.4202,2.4202,2.4251,2.4301,2.435,2.444,2.448,2.4341,2.4251,2.4202,2.4202,2.4202,2.4202,2.4202,2.4202,2.4202,2.4202,2.4202,2.4202,2.4202,2.4202,2.4202,2.4202,2.4202,2.4202,3.0167,3.0284,3.0284,3.0284,3.046,3.0694,3.0889,3.0704,3.0694,3.0889,3.0889,3.0889,3.0889,3.0889,3.0889,3.0889,3.0889,3.0889,3.0889,3.0889,3.0889,3.0889,3.0889,3.0889,3.0889,3.0889,3.0889,3.0889,3.0889,3.0742,3.0469,3.0469,3.0244,2.9805,2.9541,2.9238,2.8896,2.8643,2.8447,2.8291,2.8291,2.8291,2.8291,2.8291,2.8291,2.8291,2.8291,2.8291,2.8291,2.8291,2.8291,2.8291,2.8291,2.8291,2.8242,2.7882,2.7636,2.7372,2.702,2.6801,2.6534,2.6006,2.5718,2.5495,2.5224,2.5137,2.5137,2.5137,2.5284,2.5382,2.5382,2.5137,2.4981,2.4981,2.4833,2.4735,2.4735,2.4735,2.4686,2.4529,2.444,2.4341,2.4202,2.4301,2.439,2.439,2.439,2.4341,2.4202,2.4202,2.4202,2.4202,2.4202,2.4202,2.4202,2.4202,2.4251,2.439,2.4251,2.4202,2.4202,2.4202,2.4202,2.4202,2.4202,2.4202,2.4202,2.4202,2.4202,2.4202,2.4202,2.4202,2.4202,2.4202,2.4202,2.4202,3.0772,3.0889,3.0889,3.0889,3.0889,3.0889,3.0889,3.0889,3.0889,3.0889,3.0889,3.0889,3.0889,3.0889,3.0889,3.0889,3.0889,3.0889,3.0889,3.0889,3.0889,3.0889,3.0889,3.0889,3.0889,3.0889,3.0889,3.0889,3.0889,3.0889,3.0889,3.0889,3.0664,3.0254,3.0215,2.9766,2.9033,2.8994,2.873,2.835,2.835,2.833,2.8291,2.8291,2.8291,2.8291,2.8291,2.8291,2.8291,2.8291,2.8237,2.8237,2.8237,2.8237,2.8184,2.7906,2.7853,2.7669,2.703,2.6829,2.6725,2.6248,2.6066,2.5867,2.5093,2.4911,2.4883,2.4883,2.4883,2.4883,2.4883,2.4686,2.448,2.448,2.448,2.4489,2.4489,2.4489,2.4489,2.4489,2.4301,2.4202,2.4202,2.4202,2.4202,2.4202,2.4202,2.4202,2.4202,2.4202,2.4202,2.4202,2.4202,2.4202,2.4202,2.4202,2.4202,2.4202,2.4202,2.4202,2.4202,2.4202,2.4202,2.4202,2.4202,2.4202,2.4202,2.4202,2.4202,2.4202,2.4202,2.4202,2.4202,2.4202,2.4202,2.4202,3.0889,3.0889,3.0889,3.0889,3.0704,3.0577,3.083,3.0704,3.0577,3.0889,3.0889,3.0889,3.0889,3.0889,3.0889,3.0889,3.0889,3.0889,3.0889,3.0889,3.0889,3.0889,3.0889,3.0889,3.0889,3.0889,3.0889,3.0889,3.0889,3.0889,3.0889,3.0889,3.084,3.0723,3.0361,3.0098,2.9902,2.957,2.918,2.8779,2.8779,2.8584,2.8291,2.8291,2.8291,2.8291,2.8291,2.8291,2.8291,2.8067,2.7799,2.7593,2.7593,2.7593,2.7593,2.7539,2.7368,2.7187,2.7264,2.7138,2.6873,2.6461,2.6293,2.6083,2.5273,2.4812,2.4587,2.4587,2.4735,2.4883,2.4883,2.4686,2.448,2.448,2.439,2.4251,2.4251,2.4251,2.4251,2.4251,2.4251,2.4202,2.4202,2.4202,2.4202,2.4202,2.4202,2.4202,2.4202,2.4202,2.4202,2.4202,2.4202,2.4202,2.4202,2.4202,2.4202,2.4202,2.4202,2.4202,2.4202,2.4202,2.4202,2.4202,2.4202,2.4202,2.4202,2.4202,2.4202,2.4202,2.4202,2.4202,2.4202,2.4202,2.4202,2.4202,3.0889,3.0889,3.0889,3.0889,3.0762,3.0704,3.0889,3.0762,3.0704,3.0889,3.0889,3.0889,3.0889,3.0889,3.0889,3.0889,3.0889,3.0889,3.0889,3.0889,3.0889,3.0889,3.0889,3.0889,3.0889,3.0889,3.0889,3.0889,3.0889,3.0889,3.0889,3.0889,3.0889,3.0879,3.0635,3.04,3.0185,2.9961,2.9619,2.9209,2.9004,2.8789,2.8574,2.8369,2.8237,2.813,2.8237,2.8237,2.8077,2.796,2.7691,2.7377,2.7377,2.7377,2.7368,2.7269,2.7098,2.6989,2.7008,2.6899,2.6735,2.6532,2.6328,2.6067,2.5376,2.4932,2.4646,2.4646,2.4588,2.4597,2.4597,2.444,2.4341,2.4341,2.4251,2.4202,2.4202,2.4202,2.4202,2.4202,2.4202,2.4202,2.4202,2.4202,2.4202,2.4202,2.4202,2.4202,2.4202,2.4202,2.4202,2.4202,2.4202,2.4202,2.4202,2.4686,2.4922,2.4922,2.444,2.4202,2.4202,2.4202,2.4202,2.4202,2.4202,2.4202,2.4202,2.4202,2.4202,2.4202,2.4202,2.4202,2.4202,2.4202,2.4202,2.4202,3.0889,3.0889,3.0889,3.0889,3.0889,3.0889,3.0889,3.0889,3.0889,3.0889,3.0889,3.0889,3.0889,3.0889,3.0889,3.0889,3.0889,3.0889,3.0889,3.0889,3.0889,3.0889,3.0889,3.0889,3.0889,3.0889,3.0889,3.0889,3.0889,3.0889,3.0889,3.0889,3.0889,3.0889,3.0889,3.0674,3.0322,3.0322,3.0068,2.9648,2.9287,2.9092,2.8984,2.851,2.8183,2.8012,2.8096,2.796,2.7745,2.7745,2.753,2.7269,2.7269,2.7269,2.7215,2.6999,2.7043,2.7142,2.6944,2.7008,2.7107,2.6899,2.6791,2.6542,2.6005,2.5507,2.5154,2.5089,2.4792,2.4523,2.426,2.4202,2.4202,2.4202,2.4202,2.4202,2.4202,2.4202,2.4251,2.4449,2.4449,2.4399,2.4202,2.4202,2.4202,2.4202,2.4341,2.4449,2.4449,2.4449,2.4449,2.4449,2.4301,2.4301,2.444,2.5265,2.579,2.5926,2.5109,2.4637,2.444,2.4301,2.4202,2.4202,2.4202,2.4202,2.4202,2.4202,2.4202,2.4202,2.4399,2.4449,2.4449,2.4449,2.435,2.4202,3.0889,3.0889,3.0889,3.0889,3.0889,3.0889,3.0889,3.0889,3.0889,3.0889,3.0889,3.0889,3.0889,3.0889,3.0889,3.0889,3.0889,3.0889,3.0889,3.0889,3.0889,3.0889,3.0889,3.0889,3.0889,3.0889,3.0889,3.0889,3.0889,3.0889,3.0889,3.0889,3.0889,3.0889,3.0889,3.0859,3.0801,3.0801,3.0537,3.0107,3.0049,2.9805,2.9434,2.8749,2.8475,2.8317,2.7727,2.7368,2.7098,2.7098,2.6954,2.6691,2.6691,2.6691,2.6691,2.6636,2.7305,2.8019,2.7965,2.8711,2.924,2.8232,2.8661,2.9086,2.8076,2.7224,2.6596,2.6237,2.616,2.5718,2.4455,2.4202,2.4202,2.4202,2.4202,2.4202,2.4202,2.4202,2.4538,2.5401,2.5499,2.5167,2.4301,2.4202,2.4202,2.4202,2.502,2.5499,2.5499,2.5499,2.5499,2.5499,2.4637,2.4637,2.5499,2.5645,2.6167,2.6999,2.6856,2.634,2.545,2.4587,2.4202,2.4202,2.4202,2.4202,2.4202,2.4202,2.4202,2.4301,2.5167,2.5499,2.5499,2.5499,2.4971,2.4202,3.0889,3.0889,3.0889,3.0889,3.0889,3.0889,3.0889,3.0889,3.0889,3.0889,3.0889,3.0889,3.0889,3.0889,3.0889,3.0889,3.0889,3.0889,3.0889,3.0889,3.0889,3.0889,3.0889,3.0889,3.0889,3.0889,3.0889,3.0889,3.0889,3.0889,3.0889,3.0889,3.082,3.0635,3.0635,3.0518,3.0343,3.0343,3.0344,3.0258,2.9853,3.0098,3.066,2.9887,2.9498,2.9163,2.7933,2.7303,2.6989,2.6989,2.6836,2.6591,2.6591,2.6591,2.6591,2.6591,2.7359,2.8223,2.8223,2.9019,2.9765,2.9292,2.9555,2.9922,3.0057,2.9848,2.9268,2.8208,2.7823,2.7222,2.5718,2.5452,2.5178,2.4337,2.4202,2.4202,2.4202,2.4686,2.5401,2.6446,2.6022,2.5548,2.5069,2.4538,2.444,2.502,2.545,2.5926,2.6484,2.6532,2.6532,2.6532,2.6099,2.6099,2.6532,2.7115,2.7589,2.8049,2.8049,2.7531,2.6532,2.6051,2.5868,2.5868,2.5868,2.5586,2.502,2.502,2.502,2.5069,2.5548,2.6022,2.6532,2.6532,2.6244,2.5868]}]]